<?xml version="1.0" encoding="UTF-8" standalone="yes"?>
<gpx
 xmlns="http://www.topografix.com/GPX/1/1"
 creator="OziExplorer Version 3955s - http://www.oziexplorer.com"
 version="1.1"
 xmlns:xsi="http://www.w3.org/2001/XMLSchema-instance"
 xsi:schemaLocation="http://www.topografix.com/GPX/1/1 http://www.topografix.com/GPX/1/1/gpx.xsd">
<metadata>
 <time>2013-09-29T15:01:58Z</time>
 <bounds minlat="42.549940" minlon="1.318543" maxlat="42.627419" maxlon="1.389887"/>
</metadata>
<wpt lat="42.6135560" lon="1.3217740">
 <ele>1400.251221</ele>
 <time>2013-09-29T17:01:58.099Z</time>
 <name>Font</name>
 <sym>City (Small)</sym>
</wpt>
<wpt lat="42.6163200" lon="1.3223090">
 <ele>1415.796021</ele>
 <time>2013-09-29T17:01:58.099Z</time>
 <name>Trencall</name>
 <sym>City (Small)</sym>
</wpt>
<wpt lat="42.6189500" lon="1.3291090">
 <ele>1528.267212</ele>
 <time>2013-09-29T17:01:58.099Z</time>
 <name>Trencall</name>
 <sym>City (Small)</sym>
</wpt>
<wpt lat="42.6219100" lon="1.3462500">
 <ele>1682.495972</ele>
 <time>2013-09-29T17:01:58.099Z</time>
 <name>Trencall</name>
 <sym>City (Small)</sym>
</wpt>
<wpt lat="42.6216300" lon="1.3863510">
 <ele>1843.430420</ele>
 <time>2013-09-29T17:01:58.099Z</time>
 <name>Trencall</name>
 <sym>City (Small)</sym>
</wpt>
<wpt lat="42.6192800" lon="1.3346000">
 <ele>1590.141602</ele>
 <time>2013-09-29T17:01:58.099Z</time>
 <name>Font del Gavatxó</name>
 <sym>City (Small)</sym>
</wpt>
<wpt lat="42.6210800" lon="1.3443910">
 <ele>1692.859253</ele>
 <time>2013-09-29T17:01:58.099Z</time>
 <name>Pla de la Selva</name>
 <sym>City (Small)</sym>
</wpt>
<wpt lat="42.5488630" lon="1.3174140">
 <ele>1050.036011</ele>
 <time>2013-09-29T17:01:58.099Z</time>
 <name>Alins</name>
 <sym>City (Small)</sym>
</wpt>
<wpt lat="42.6250744" lon="1.3878956">
 <ele>1903.000000</ele>
 <time>2013-08-31T22:00:00.000Z</time>
 <name>Refugi de Vallferrera</name>
 <sym>City (Small)</sym>
</wpt>
<trk>
 <name>08 Alins-Refugi de Vallferrera TRACK</name>
 <desc>08 Alins-Refugi de Vallferrera</desc>
<trkseg>
<trkpt lat="42.5488700" lon="1.3174430">
<ele>1050.188354</ele>
<time>2013-09-29T22:00:00.996Z</time>
</trkpt>
<trkpt lat="42.5488870" lon="1.3173750">
<ele>1050.096924</ele>
<time>2013-09-29T22:00:00.996Z</time>
</trkpt>
<trkpt lat="42.5492080" lon="1.3174640">
<ele>1049.822632</ele>
<time>2013-09-29T22:00:00.996Z</time>
</trkpt>
<trkpt lat="42.5493930" lon="1.3175140">
<ele>1050.249390</ele>
<time>2013-09-29T22:00:00.996Z</time>
</trkpt>
<trkpt lat="42.5494840" lon="1.3175540">
<ele>1051.102783</ele>
<time>2013-09-29T22:00:00.996Z</time>
</trkpt>
<trkpt lat="42.5495250" lon="1.3175770">
<ele>1051.255249</ele>
<time>2013-09-29T22:00:00.996Z</time>
</trkpt>
<trkpt lat="42.5496020" lon="1.3176300">
<ele>1051.620972</ele>
<time>2013-09-29T22:00:00.996Z</time>
</trkpt>
<trkpt lat="42.5496700" lon="1.3176890">
<ele>1051.468506</ele>
<time>2013-09-29T22:00:00.996Z</time>
</trkpt>
<trkpt lat="42.5497210" lon="1.3177490">
<ele>1051.255249</ele>
<time>2013-09-29T22:00:00.996Z</time>
</trkpt>
<trkpt lat="42.5497760" lon="1.3178200">
<ele>1051.316162</ele>
<time>2013-09-29T22:00:00.996Z</time>
</trkpt>
<trkpt lat="42.5498080" lon="1.3178740">
<ele>1051.438110</ele>
<time>2013-09-29T22:00:00.996Z</time>
</trkpt>
<trkpt lat="42.5498450" lon="1.3179460">
<ele>1051.834351</ele>
<time>2013-09-29T22:00:00.996Z</time>
</trkpt>
<trkpt lat="42.5498780" lon="1.3180250">
<ele>1052.657349</ele>
<time>2013-09-29T22:00:00.996Z</time>
</trkpt>
<trkpt lat="42.5499200" lon="1.3181630">
<ele>1053.023071</ele>
<time>2013-09-29T22:00:00.996Z</time>
</trkpt>
<trkpt lat="42.5499590" lon="1.3183570">
<ele>1053.419312</ele>
<time>2013-09-29T22:00:00.996Z</time>
</trkpt>
<trkpt lat="42.5501960" lon="1.3200870">
<ele>1056.010132</ele>
<time>2013-09-29T22:00:00.996Z</time>
</trkpt>
<trkpt lat="42.5502160" lon="1.3202020">
<ele>1055.888184</ele>
<time>2013-09-29T22:00:00.996Z</time>
</trkpt>
<trkpt lat="42.5502400" lon="1.3203050">
<ele>1055.766235</ele>
<time>2013-09-29T22:00:00.996Z</time>
</trkpt>
<trkpt lat="42.5502640" lon="1.3204010">
<ele>1055.888184</ele>
<time>2013-09-29T22:00:00.996Z</time>
</trkpt>
<trkpt lat="42.5502920" lon="1.3204980">
<ele>1056.284424</ele>
<time>2013-09-29T22:00:00.996Z</time>
</trkpt>
<trkpt lat="42.5503340" lon="1.3206070">
<ele>1056.833008</ele>
<time>2013-09-29T22:00:00.996Z</time>
</trkpt>
<trkpt lat="42.5503900" lon="1.3207210">
<ele>1057.412109</ele>
<time>2013-09-29T22:00:00.996Z</time>
</trkpt>
<trkpt lat="42.5509730" lon="1.3217460">
<ele>1061.831787</ele>
<time>2013-09-29T22:00:00.996Z</time>
</trkpt>
<trkpt lat="42.5510510" lon="1.3218910">
<ele>1061.435547</ele>
<time>2013-09-29T22:00:00.996Z</time>
</trkpt>
<trkpt lat="42.5511350" lon="1.3220710">
<ele>1063.782471</ele>
<time>2013-09-29T22:00:00.996Z</time>
</trkpt>
<trkpt lat="42.5512000" lon="1.3222150">
<ele>1063.233887</ele>
<time>2013-09-29T22:00:00.996Z</time>
</trkpt>
<trkpt lat="42.5513680" lon="1.3225950">
<ele>1062.959473</ele>
<time>2013-09-29T22:00:00.996Z</time>
</trkpt>
<trkpt lat="42.5514240" lon="1.3227210">
<ele>1062.502319</ele>
<time>2013-09-29T22:00:00.996Z</time>
</trkpt>
<trkpt lat="42.5515010" lon="1.3228720">
<ele>1063.020508</ele>
<time>2013-09-29T22:00:00.996Z</time>
</trkpt>
<trkpt lat="42.5515790" lon="1.3230040">
<ele>1063.172852</ele>
<time>2013-09-29T22:00:00.996Z</time>
</trkpt>
<trkpt lat="42.5516300" lon="1.3230810">
<ele>1062.624268</ele>
<time>2013-09-29T22:00:00.996Z</time>
</trkpt>
<trkpt lat="42.5516850" lon="1.3231530">
<ele>1063.751953</ele>
<time>2013-09-29T22:00:00.996Z</time>
</trkpt>
<trkpt lat="42.5517220" lon="1.3231950">
<ele>1064.300659</ele>
<time>2013-09-29T22:00:00.996Z</time>
</trkpt>
<trkpt lat="42.5517630" lon="1.3232300">
<ele>1064.148315</ele>
<time>2013-09-29T22:00:00.996Z</time>
</trkpt>
<trkpt lat="42.5518100" lon="1.3232650">
<ele>1063.965332</ele>
<time>2013-09-29T22:00:00.996Z</time>
</trkpt>
<trkpt lat="42.5519230" lon="1.3233350">
<ele>1063.630127</ele>
<time>2013-09-29T22:00:00.996Z</time>
</trkpt>
<trkpt lat="42.5524090" lon="1.3236020">
<ele>1065.032104</ele>
<time>2013-09-29T22:00:00.996Z</time>
</trkpt>
<trkpt lat="42.5525630" lon="1.3236890">
<ele>1065.215088</ele>
<time>2013-09-29T22:00:00.996Z</time>
</trkpt>
<trkpt lat="42.5527180" lon="1.3237760">
<ele>1065.733154</ele>
<time>2013-09-29T22:00:00.996Z</time>
</trkpt>
<trkpt lat="42.5527770" lon="1.3238170">
<ele>1066.403687</ele>
<time>2013-09-29T22:00:00.996Z</time>
</trkpt>
<trkpt lat="42.5528220" lon="1.3238530">
<ele>1067.501099</ele>
<time>2013-09-29T22:00:00.996Z</time>
</trkpt>
<trkpt lat="42.5528680" lon="1.3238940">
<ele>1068.537354</ele>
<time>2013-09-29T22:00:00.996Z</time>
</trkpt>
<trkpt lat="42.5529000" lon="1.3239300">
<ele>1068.689697</ele>
<time>2013-09-29T22:00:00.996Z</time>
</trkpt>
<trkpt lat="42.5529230" lon="1.3239660">
<ele>1068.415405</ele>
<time>2013-09-29T22:00:00.996Z</time>
</trkpt>
<trkpt lat="42.5529600" lon="1.3240320">
<ele>1067.287720</ele>
<time>2013-09-29T22:00:00.996Z</time>
</trkpt>
<trkpt lat="42.5530110" lon="1.3241640">
<ele>1068.080200</ele>
<time>2013-09-29T22:00:00.996Z</time>
</trkpt>
<trkpt lat="42.5530630" lon="1.3243150">
<ele>1069.726074</ele>
<time>2013-09-29T22:00:00.996Z</time>
</trkpt>
<trkpt lat="42.5531010" lon="1.3244480">
<ele>1067.470581</ele>
<time>2013-09-29T22:00:00.996Z</time>
</trkpt>
<trkpt lat="42.5531200" lon="1.3245330">
<ele>1067.013306</ele>
<time>2013-09-29T22:00:00.996Z</time>
</trkpt>
<trkpt lat="42.5532120" lon="1.3249200">
<ele>1069.695557</ele>
<time>2013-09-29T22:00:00.996Z</time>
</trkpt>
<trkpt lat="42.5532400" lon="1.3250290">
<ele>1068.263062</ele>
<time>2013-09-29T22:00:00.996Z</time>
</trkpt>
<trkpt lat="42.5532730" lon="1.3251260">
<ele>1068.659302</ele>
<time>2013-09-29T22:00:00.996Z</time>
</trkpt>
<trkpt lat="42.5533150" lon="1.3252160">
<ele>1069.025024</ele>
<time>2013-09-29T22:00:00.996Z</time>
</trkpt>
<trkpt lat="42.5533700" lon="1.3253000">
<ele>1070.823364</ele>
<time>2013-09-29T22:00:00.996Z</time>
</trkpt>
<trkpt lat="42.5534250" lon="1.3253650">
<ele>1070.640503</ele>
<time>2013-09-29T22:00:00.996Z</time>
</trkpt>
<trkpt lat="42.5534850" lon="1.3254310">
<ele>1069.878540</ele>
<time>2013-09-29T22:00:00.996Z</time>
</trkpt>
<trkpt lat="42.5535210" lon="1.3254720">
<ele>1069.756592</ele>
<time>2013-09-29T22:00:00.996Z</time>
</trkpt>
<trkpt lat="42.5535430" lon="1.3255020">
<ele>1069.512695</ele>
<time>2013-09-29T22:00:00.996Z</time>
</trkpt>
<trkpt lat="42.5535670" lon="1.3255440">
<ele>1069.512695</ele>
<time>2013-09-29T22:00:00.996Z</time>
</trkpt>
<trkpt lat="42.5535940" lon="1.3255990">
<ele>1069.543213</ele>
<time>2013-09-29T22:00:00.996Z</time>
</trkpt>
<trkpt lat="42.5536190" lon="1.3256650">
<ele>1069.695557</ele>
<time>2013-09-29T22:00:00.996Z</time>
</trkpt>
<trkpt lat="42.5536320" lon="1.3257070">
<ele>1069.939453</ele>
<time>2013-09-29T22:00:00.996Z</time>
</trkpt>
<trkpt lat="42.5536510" lon="1.3257800">
<ele>1070.335693</ele>
<time>2013-09-29T22:00:00.996Z</time>
</trkpt>
<trkpt lat="42.5536650" lon="1.3258340">
<ele>1070.518555</ele>
<time>2013-09-29T22:00:00.996Z</time>
</trkpt>
<trkpt lat="42.5536810" lon="1.3258940">
<ele>1070.244263</ele>
<time>2013-09-29T22:00:00.996Z</time>
</trkpt>
<trkpt lat="42.5537190" lon="1.3260330">
<ele>1070.762451</ele>
<time>2013-09-29T22:00:00.996Z</time>
</trkpt>
<trkpt lat="42.5537660" lon="1.3261780">
<ele>1071.554932</ele>
<time>2013-09-29T22:00:00.996Z</time>
</trkpt>
<trkpt lat="42.5538160" lon="1.3263110">
<ele>1071.463501</ele>
<time>2013-09-29T22:00:00.996Z</time>
</trkpt>
<trkpt lat="42.5538630" lon="1.3264070">
<ele>1072.012085</ele>
<time>2013-09-29T22:00:00.996Z</time>
</trkpt>
<trkpt lat="42.5539090" lon="1.3264970">
<ele>1073.261719</ele>
<time>2013-09-29T22:00:00.996Z</time>
</trkpt>
<trkpt lat="42.5539600" lon="1.3265810">
<ele>1071.920654</ele>
<time>2013-09-29T22:00:00.996Z</time>
</trkpt>
<trkpt lat="42.5539920" lon="1.3266290">
<ele>1071.250122</ele>
<time>2013-09-29T22:00:00.996Z</time>
</trkpt>
<trkpt lat="42.5540330" lon="1.3266890">
<ele>1072.164551</ele>
<time>2013-09-29T22:00:00.996Z</time>
</trkpt>
<trkpt lat="42.5540840" lon="1.3267490">
<ele>1072.682617</ele>
<time>2013-09-29T22:00:00.996Z</time>
</trkpt>
<trkpt lat="42.5541390" lon="1.3268080">
<ele>1071.158691</ele>
<time>2013-09-29T22:00:00.996Z</time>
</trkpt>
<trkpt lat="42.5541940" lon="1.3268670">
<ele>1072.591187</ele>
<time>2013-09-29T22:00:00.996Z</time>
</trkpt>
<trkpt lat="42.5542810" lon="1.3269440">
<ele>1076.096436</ele>
<time>2013-09-29T22:00:00.996Z</time>
</trkpt>
<trkpt lat="42.5543860" lon="1.3270260">
<ele>1073.962769</ele>
<time>2013-09-29T22:00:00.996Z</time>
</trkpt>
<trkpt lat="42.5544910" lon="1.3271030">
<ele>1075.090576</ele>
<time>2013-09-29T22:00:00.996Z</time>
</trkpt>
<trkpt lat="42.5545500" lon="1.3271560">
<ele>1074.663818</ele>
<time>2013-09-29T22:00:00.996Z</time>
</trkpt>
<trkpt lat="42.5546410" lon="1.3272450">
<ele>1075.242920</ele>
<time>2013-09-29T22:00:00.996Z</time>
</trkpt>
<trkpt lat="42.5547190" lon="1.3273220">
<ele>1075.669678</ele>
<time>2013-09-29T22:00:00.996Z</time>
</trkpt>
<trkpt lat="42.5547920" lon="1.3273930">
<ele>1075.883057</ele>
<time>2013-09-29T22:00:00.996Z</time>
</trkpt>
<trkpt lat="42.5548560" lon="1.3274400">
<ele>1077.803345</ele>
<time>2013-09-29T22:00:00.996Z</time>
</trkpt>
<trkpt lat="42.5549330" lon="1.3274810">
<ele>1078.473877</ele>
<time>2013-09-29T22:00:00.996Z</time>
</trkpt>
<trkpt lat="42.5550600" lon="1.3275380">
<ele>1077.468018</ele>
<time>2013-09-29T22:00:00.996Z</time>
</trkpt>
<trkpt lat="42.5556400" lon="1.3277850">
<ele>1080.759888</ele>
<time>2013-09-29T22:00:00.996Z</time>
</trkpt>
<trkpt lat="42.5558350" lon="1.3278710">
<ele>1081.186523</ele>
<time>2013-09-29T22:00:00.996Z</time>
</trkpt>
<trkpt lat="42.5559160" lon="1.3279050">
<ele>1080.820801</ele>
<time>2013-09-29T22:00:00.996Z</time>
</trkpt>
<trkpt lat="42.5559840" lon="1.3279340">
<ele>1080.576904</ele>
<time>2013-09-29T22:00:00.996Z</time>
</trkpt>
<trkpt lat="42.5560570" lon="1.3279750">
<ele>1081.277954</ele>
<time>2013-09-29T22:00:00.996Z</time>
</trkpt>
<trkpt lat="42.5561710" lon="1.3280570">
<ele>1081.552246</ele>
<time>2013-09-29T22:00:00.996Z</time>
</trkpt>
<trkpt lat="42.5562530" lon="1.3281340">
<ele>1081.979004</ele>
<time>2013-09-29T22:00:00.996Z</time>
</trkpt>
<trkpt lat="42.5563210" lon="1.3281990">
<ele>1081.826660</ele>
<time>2013-09-29T22:00:00.996Z</time>
</trkpt>
<trkpt lat="42.5564130" lon="1.3282940">
<ele>1082.161865</ele>
<time>2013-09-29T22:00:00.996Z</time>
</trkpt>
<trkpt lat="42.5565090" lon="1.3283950">
<ele>1083.350708</ele>
<time>2013-09-29T22:00:00.996Z</time>
</trkpt>
<trkpt lat="42.5566090" lon="1.3284900">
<ele>1084.630859</ele>
<time>2013-09-29T22:00:00.996Z</time>
</trkpt>
<trkpt lat="42.5566870" lon="1.3285550">
<ele>1085.088013</ele>
<time>2013-09-29T22:00:00.996Z</time>
</trkpt>
<trkpt lat="42.5567780" lon="1.3286310">
<ele>1085.179443</ele>
<time>2013-09-29T22:00:00.996Z</time>
</trkpt>
<trkpt lat="42.5568600" lon="1.3286960">
<ele>1085.636597</ele>
<time>2013-09-29T22:00:00.996Z</time>
</trkpt>
<trkpt lat="42.5569370" lon="1.3287430">
<ele>1086.002441</ele>
<time>2013-09-29T22:00:00.996Z</time>
</trkpt>
<trkpt lat="42.5570140" lon="1.3287830">
<ele>1086.032959</ele>
<time>2013-09-29T22:00:00.996Z</time>
</trkpt>
<trkpt lat="42.5571050" lon="1.3288240">
<ele>1087.069214</ele>
<time>2013-09-29T22:00:00.996Z</time>
</trkpt>
<trkpt lat="42.5571720" lon="1.3288340">
<ele>1087.617798</ele>
<time>2013-09-29T22:00:00.996Z</time>
</trkpt>
<trkpt lat="42.5572580" lon="1.3288440">
<ele>1088.562744</ele>
<time>2013-09-29T22:00:00.996Z</time>
</trkpt>
<trkpt lat="42.5573170" lon="1.3288480">
<ele>1089.263794</ele>
<time>2013-09-29T22:00:00.996Z</time>
</trkpt>
<trkpt lat="42.5573800" lon="1.3288470">
<ele>1089.903809</ele>
<time>2013-09-29T22:00:00.996Z</time>
</trkpt>
<trkpt lat="42.5574430" lon="1.3288570">
<ele>1090.452515</ele>
<time>2013-09-29T22:00:00.996Z</time>
</trkpt>
<trkpt lat="42.5575020" lon="1.3288740">
<ele>1090.086670</ele>
<time>2013-09-29T22:00:00.996Z</time>
</trkpt>
<trkpt lat="42.5575560" lon="1.3289030">
<ele>1089.507568</ele>
<time>2013-09-29T22:00:00.996Z</time>
</trkpt>
<trkpt lat="42.5576060" lon="1.3289380">
<ele>1088.654175</ele>
<time>2013-09-29T22:00:00.996Z</time>
</trkpt>
<trkpt lat="42.5576520" lon="1.3289670">
<ele>1088.196899</ele>
<time>2013-09-29T22:00:00.996Z</time>
</trkpt>
<trkpt lat="42.5577240" lon="1.3290200">
<ele>1088.837036</ele>
<time>2013-09-29T22:00:00.996Z</time>
</trkpt>
<trkpt lat="42.5578250" lon="1.3291030">
<ele>1089.111328</ele>
<time>2013-09-29T22:00:00.996Z</time>
</trkpt>
<trkpt lat="42.5579970" lon="1.3292200">
<ele>1093.073730</ele>
<time>2013-09-29T22:00:00.996Z</time>
</trkpt>
<trkpt lat="42.5580750" lon="1.3292610">
<ele>1092.829834</ele>
<time>2013-09-29T22:00:00.996Z</time>
</trkpt>
<trkpt lat="42.5581610" lon="1.3293010">
<ele>1093.469971</ele>
<time>2013-09-29T22:00:00.996Z</time>
</trkpt>
<trkpt lat="42.5582470" lon="1.3293290">
<ele>1094.475830</ele>
<time>2013-09-29T22:00:00.996Z</time>
</trkpt>
<trkpt lat="42.5583190" lon="1.3293520">
<ele>1095.603638</ele>
<time>2013-09-29T22:00:00.996Z</time>
</trkpt>
<trkpt lat="42.5583820" lon="1.3293680">
<ele>1096.121704</ele>
<time>2013-09-29T22:00:00.996Z</time>
</trkpt>
<trkpt lat="42.5584550" lon="1.3293840">
<ele>1096.091309</ele>
<time>2013-09-29T22:00:00.996Z</time>
</trkpt>
<trkpt lat="42.5585540" lon="1.3294000">
<ele>1095.725464</ele>
<time>2013-09-29T22:00:00.996Z</time>
</trkpt>
<trkpt lat="42.5586170" lon="1.3294040">
<ele>1095.207397</ele>
<time>2013-09-29T22:00:00.996Z</time>
</trkpt>
<trkpt lat="42.5586930" lon="1.3294020">
<ele>1094.841553</ele>
<time>2013-09-29T22:00:00.996Z</time>
</trkpt>
<trkpt lat="42.5587790" lon="1.3293940">
<ele>1094.506348</ele>
<time>2013-09-29T22:00:00.996Z</time>
</trkpt>
<trkpt lat="42.5588820" lon="1.3293670">
<ele>1094.353882</ele>
<time>2013-09-29T22:00:00.996Z</time>
</trkpt>
<trkpt lat="42.5589720" lon="1.3293400">
<ele>1095.176880</ele>
<time>2013-09-29T22:00:00.996Z</time>
</trkpt>
<trkpt lat="42.5590700" lon="1.3293070">
<ele>1095.634155</ele>
<time>2013-09-29T22:00:00.996Z</time>
</trkpt>
<trkpt lat="42.5594740" lon="1.3291750">
<ele>1094.780640</ele>
<time>2013-09-29T22:00:00.996Z</time>
</trkpt>
<trkpt lat="42.5595630" lon="1.3291480">
<ele>1094.567261</ele>
<time>2013-09-29T22:00:00.996Z</time>
</trkpt>
<trkpt lat="42.5595950" lon="1.3291410">
<ele>1094.750122</ele>
<time>2013-09-29T22:00:00.996Z</time>
</trkpt>
<trkpt lat="42.5596530" lon="1.3291270">
<ele>1094.811035</ele>
<time>2013-09-29T22:00:00.996Z</time>
</trkpt>
<trkpt lat="42.5597430" lon="1.3291190">
<ele>1094.628296</ele>
<time>2013-09-29T22:00:00.996Z</time>
</trkpt>
<trkpt lat="42.5598560" lon="1.3291280">
<ele>1095.115845</ele>
<time>2013-09-29T22:00:00.996Z</time>
</trkpt>
<trkpt lat="42.5599820" lon="1.3291550">
<ele>1094.506348</ele>
<time>2013-09-29T22:00:00.996Z</time>
</trkpt>
<trkpt lat="42.5601040" lon="1.3291880">
<ele>1092.403198</ele>
<time>2013-09-29T22:00:00.996Z</time>
</trkpt>
<trkpt lat="42.5601580" lon="1.3292050">
<ele>1092.951904</ele>
<time>2013-09-29T22:00:00.996Z</time>
</trkpt>
<trkpt lat="42.5602080" lon="1.3292160">
<ele>1093.317627</ele>
<time>2013-09-29T22:00:00.996Z</time>
</trkpt>
<trkpt lat="42.5602980" lon="1.3292260">
<ele>1093.256714</ele>
<time>2013-09-29T22:00:00.996Z</time>
</trkpt>
<trkpt lat="42.5603480" lon="1.3292240">
<ele>1093.896729</ele>
<time>2013-09-29T22:00:00.996Z</time>
</trkpt>
<trkpt lat="42.5604020" lon="1.3292170">
<ele>1094.994019</ele>
<time>2013-09-29T22:00:00.996Z</time>
</trkpt>
<trkpt lat="42.5604820" lon="1.3291960">
<ele>1096.060791</ele>
<time>2013-09-29T22:00:00.996Z</time>
</trkpt>
<trkpt lat="42.5605670" lon="1.3291580">
<ele>1096.274170</ele>
<time>2013-09-29T22:00:00.996Z</time>
</trkpt>
<trkpt lat="42.5606880" lon="1.3290990">
<ele>1098.468750</ele>
<time>2013-09-29T22:00:00.996Z</time>
</trkpt>
<trkpt lat="42.5611530" lon="1.3288560">
<ele>1101.333862</ele>
<time>2013-09-29T22:00:00.996Z</time>
</trkpt>
<trkpt lat="42.5613980" lon="1.3287150">
<ele>1102.431030</ele>
<time>2013-09-29T22:00:00.996Z</time>
</trkpt>
<trkpt lat="42.5614970" lon="1.3286580">
<ele>1099.962280</ele>
<time>2013-09-29T22:00:00.996Z</time>
</trkpt>
<trkpt lat="42.5616220" lon="1.3285870">
<ele>1098.712524</ele>
<time>2013-09-29T22:00:00.996Z</time>
</trkpt>
<trkpt lat="42.5617240" lon="1.3285360">
<ele>1102.065308</ele>
<time>2013-09-29T22:00:00.996Z</time>
</trkpt>
<trkpt lat="42.5617870" lon="1.3285100">
<ele>1104.077026</ele>
<time>2013-09-29T22:00:00.996Z</time>
</trkpt>
<trkpt lat="42.5618590" lon="1.3284900">
<ele>1104.747559</ele>
<time>2013-09-29T22:00:00.996Z</time>
</trkpt>
<trkpt lat="42.5619260" lon="1.3284760">
<ele>1104.229492</ele>
<time>2013-09-29T22:00:00.996Z</time>
</trkpt>
<trkpt lat="42.5620160" lon="1.3284670">
<ele>1103.589355</ele>
<time>2013-09-29T22:00:00.996Z</time>
</trkpt>
<trkpt lat="42.5621290" lon="1.3284640">
<ele>1104.320923</ele>
<time>2013-09-29T22:00:00.996Z</time>
</trkpt>
<trkpt lat="42.5622410" lon="1.3284730">
<ele>1105.905884</ele>
<time>2013-09-29T22:00:00.996Z</time>
</trkpt>
<trkpt lat="42.5623090" lon="1.3284780">
<ele>1106.484985</ele>
<time>2013-09-29T22:00:00.996Z</time>
</trkpt>
<trkpt lat="42.5624710" lon="1.3284980">
<ele>1107.368896</ele>
<time>2013-09-29T22:00:00.996Z</time>
</trkpt>
<trkpt lat="42.5626700" lon="1.3285230">
<ele>1107.978516</ele>
<time>2013-09-29T22:00:00.996Z</time>
</trkpt>
<trkpt lat="42.5628910" lon="1.3285470">
<ele>1109.197754</ele>
<time>2013-09-29T22:00:00.996Z</time>
</trkpt>
<trkpt lat="42.5629530" lon="1.3285500">
<ele>1110.112061</ele>
<time>2013-09-29T22:00:00.996Z</time>
</trkpt>
<trkpt lat="42.5630070" lon="1.3285540">
<ele>1110.721680</ele>
<time>2013-09-29T22:00:00.996Z</time>
</trkpt>
<trkpt lat="42.5630390" lon="1.3285540">
<ele>1111.087402</ele>
<time>2013-09-29T22:00:00.996Z</time>
</trkpt>
<trkpt lat="42.5631110" lon="1.3285460">
<ele>1111.666504</ele>
<time>2013-09-29T22:00:00.996Z</time>
</trkpt>
<trkpt lat="42.5631650" lon="1.3285380">
<ele>1111.971313</ele>
<time>2013-09-29T22:00:00.996Z</time>
</trkpt>
<trkpt lat="42.5632230" lon="1.3285240">
<ele>1112.367554</ele>
<time>2013-09-29T22:00:00.996Z</time>
</trkpt>
<trkpt lat="42.5633170" lon="1.3284970">
<ele>1112.550537</ele>
<time>2013-09-29T22:00:00.996Z</time>
</trkpt>
<trkpt lat="42.5635020" lon="1.3284520">
<ele>1113.068604</ele>
<time>2013-09-29T22:00:00.996Z</time>
</trkpt>
<trkpt lat="42.5636720" lon="1.3284050">
<ele>1112.702881</ele>
<time>2013-09-29T22:00:00.996Z</time>
</trkpt>
<trkpt lat="42.5639500" lon="1.3283120">
<ele>1116.421509</ele>
<time>2013-09-29T22:00:00.996Z</time>
</trkpt>
<trkpt lat="42.5641020" lon="1.3282650">
<ele>1118.524536</ele>
<time>2013-09-29T22:00:00.996Z</time>
</trkpt>
<trkpt lat="42.5643260" lon="1.3281680">
<ele>1118.585449</ele>
<time>2013-09-29T22:00:00.996Z</time>
</trkpt>
<trkpt lat="42.5644550" lon="1.3280950">
<ele>1120.566650</ele>
<time>2013-09-29T22:00:00.996Z</time>
</trkpt>
<trkpt lat="42.5645530" lon="1.3280440">
<ele>1118.859863</ele>
<time>2013-09-29T22:00:00.996Z</time>
</trkpt>
<trkpt lat="42.5646380" lon="1.3279990">
<ele>1118.097900</ele>
<time>2013-09-29T22:00:00.996Z</time>
</trkpt>
<trkpt lat="42.5647100" lon="1.3279630">
<ele>1119.317017</ele>
<time>2013-09-29T22:00:00.996Z</time>
</trkpt>
<trkpt lat="42.5647590" lon="1.3279430">
<ele>1120.200928</ele>
<time>2013-09-29T22:00:00.996Z</time>
</trkpt>
<trkpt lat="42.5648080" lon="1.3279280">
<ele>1120.932495</ele>
<time>2013-09-29T22:00:00.996Z</time>
</trkpt>
<trkpt lat="42.5648570" lon="1.3279200">
<ele>1121.481079</ele>
<time>2013-09-29T22:00:00.996Z</time>
</trkpt>
<trkpt lat="42.5649380" lon="1.3279180">
<ele>1121.694458</ele>
<time>2013-09-29T22:00:00.996Z</time>
</trkpt>
<trkpt lat="42.5650070" lon="1.3279240">
<ele>1121.420166</ele>
<time>2013-09-29T22:00:00.996Z</time>
</trkpt>
<trkpt lat="42.5651110" lon="1.3279340">
<ele>1121.724976</ele>
<time>2013-09-29T22:00:00.996Z</time>
</trkpt>
<trkpt lat="42.5653270" lon="1.3279580">
<ele>1121.816406</ele>
<time>2013-09-29T22:00:00.996Z</time>
</trkpt>
<trkpt lat="42.5656110" lon="1.3279870">
<ele>1123.889038</ele>
<time>2013-09-29T22:00:00.996Z</time>
</trkpt>
<trkpt lat="42.5661570" lon="1.3280400">
<ele>1126.083618</ele>
<time>2013-09-29T22:00:00.996Z</time>
</trkpt>
<trkpt lat="42.5663230" lon="1.3280600">
<ele>1126.479858</ele>
<time>2013-09-29T22:00:00.996Z</time>
</trkpt>
<trkpt lat="42.5663820" lon="1.3280700">
<ele>1126.662720</ele>
<time>2013-09-29T22:00:00.996Z</time>
</trkpt>
<trkpt lat="42.5664450" lon="1.3280870">
<ele>1125.992188</ele>
<time>2013-09-29T22:00:00.996Z</time>
</trkpt>
<trkpt lat="42.5665040" lon="1.3281100">
<ele>1125.473999</ele>
<time>2013-09-29T22:00:00.996Z</time>
</trkpt>
<trkpt lat="42.5666500" lon="1.3281910">
<ele>1125.961670</ele>
<time>2013-09-29T22:00:00.996Z</time>
</trkpt>
<trkpt lat="42.5669630" lon="1.3283840">
<ele>1126.083618</ele>
<time>2013-09-29T22:00:00.996Z</time>
</trkpt>
<trkpt lat="42.5670310" lon="1.3284180">
<ele>1125.413086</ele>
<time>2013-09-29T22:00:00.996Z</time>
</trkpt>
<trkpt lat="42.5670760" lon="1.3284420">
<ele>1125.108276</ele>
<time>2013-09-29T22:00:00.996Z</time>
</trkpt>
<trkpt lat="42.5671260" lon="1.3284590">
<ele>1125.108276</ele>
<time>2013-09-29T22:00:00.996Z</time>
</trkpt>
<trkpt lat="42.5671990" lon="1.3284750">
<ele>1126.418945</ele>
<time>2013-09-29T22:00:00.996Z</time>
</trkpt>
<trkpt lat="42.5672800" lon="1.3284730">
<ele>1129.649780</ele>
<time>2013-09-29T22:00:00.996Z</time>
</trkpt>
<trkpt lat="42.5673740" lon="1.3284580">
<ele>1130.289795</ele>
<time>2013-09-29T22:00:00.996Z</time>
</trkpt>
<trkpt lat="42.5674730" lon="1.3284310">
<ele>1126.723755</ele>
<time>2013-09-29T22:00:00.996Z</time>
</trkpt>
<trkpt lat="42.5676160" lon="1.3283850">
<ele>1127.942871</ele>
<time>2013-09-29T22:00:00.996Z</time>
</trkpt>
<trkpt lat="42.5677860" lon="1.3283250">
<ele>1129.344971</ele>
<time>2013-09-29T22:00:00.996Z</time>
</trkpt>
<trkpt lat="42.5679070" lon="1.3282850">
<ele>1129.588745</ele>
<time>2013-09-29T22:00:00.996Z</time>
</trkpt>
<trkpt lat="42.5680240" lon="1.3282460">
<ele>1130.106934</ele>
<time>2013-09-29T22:00:00.996Z</time>
</trkpt>
<trkpt lat="42.5680910" lon="1.3282260">
<ele>1130.807983</ele>
<time>2013-09-29T22:00:00.996Z</time>
</trkpt>
<trkpt lat="42.5681490" lon="1.3282180">
<ele>1131.356689</ele>
<time>2013-09-29T22:00:00.996Z</time>
</trkpt>
<trkpt lat="42.5682260" lon="1.3282160">
<ele>1131.600464</ele>
<time>2013-09-29T22:00:00.996Z</time>
</trkpt>
<trkpt lat="42.5682980" lon="1.3282260">
<ele>1131.905273</ele>
<time>2013-09-29T22:00:00.996Z</time>
</trkpt>
<trkpt lat="42.5684020" lon="1.3282540">
<ele>1132.423462</ele>
<time>2013-09-29T22:00:00.996Z</time>
</trkpt>
<trkpt lat="42.5685560" lon="1.3283050">
<ele>1134.770386</ele>
<time>2013-09-29T22:00:00.996Z</time>
</trkpt>
<trkpt lat="42.5687460" lon="1.3283730">
<ele>1136.294434</ele>
<time>2013-09-29T22:00:00.996Z</time>
</trkpt>
<trkpt lat="42.5688410" lon="1.3284130">
<ele>1137.239258</ele>
<time>2013-09-29T22:00:00.996Z</time>
</trkpt>
<trkpt lat="42.5689270" lon="1.3284590">
<ele>1138.336548</ele>
<time>2013-09-29T22:00:00.996Z</time>
</trkpt>
<trkpt lat="42.5690000" lon="1.3285180">
<ele>1139.464233</ele>
<time>2013-09-29T22:00:00.996Z</time>
</trkpt>
<trkpt lat="42.5690640" lon="1.3285710">
<ele>1140.134888</ele>
<time>2013-09-29T22:00:00.996Z</time>
</trkpt>
<trkpt lat="42.5691550" lon="1.3286480">
<ele>1142.268555</ele>
<time>2013-09-29T22:00:00.996Z</time>
</trkpt>
<trkpt lat="42.5692670" lon="1.3287340">
<ele>1144.859253</ele>
<time>2013-09-29T22:00:00.996Z</time>
</trkpt>
<trkpt lat="42.5693460" lon="1.3287770">
<ele>1146.840454</ele>
<time>2013-09-29T22:00:00.996Z</time>
</trkpt>
<trkpt lat="42.5694140" lon="1.3288060">
<ele>1148.303467</ele>
<time>2013-09-29T22:00:00.996Z</time>
</trkpt>
<trkpt lat="42.5694820" lon="1.3288220">
<ele>1148.730225</ele>
<time>2013-09-29T22:00:00.996Z</time>
</trkpt>
<trkpt lat="42.5695360" lon="1.3288270">
<ele>1149.156982</ele>
<time>2013-09-29T22:00:00.996Z</time>
</trkpt>
<trkpt lat="42.5696350" lon="1.3288240">
<ele>1149.095947</ele>
<time>2013-09-29T22:00:00.996Z</time>
</trkpt>
<trkpt lat="42.5696750" lon="1.3288170">
<ele>1148.760742</ele>
<time>2013-09-29T22:00:00.996Z</time>
</trkpt>
<trkpt lat="42.5697470" lon="1.3287970">
<ele>1147.663452</ele>
<time>2013-09-29T22:00:00.996Z</time>
</trkpt>
<trkpt lat="42.5698050" lon="1.3287710">
<ele>1146.931885</ele>
<time>2013-09-29T22:00:00.996Z</time>
</trkpt>
<trkpt lat="42.5698720" lon="1.3287260">
<ele>1147.480591</ele>
<time>2013-09-29T22:00:00.996Z</time>
</trkpt>
<trkpt lat="42.5699280" lon="1.3286920">
<ele>1148.029175</ele>
<time>2013-09-29T22:00:00.996Z</time>
</trkpt>
<trkpt lat="42.5699810" lon="1.3286540">
<ele>1148.516968</ele>
<time>2013-09-29T22:00:00.996Z</time>
</trkpt>
<trkpt lat="42.5700520" lon="1.3285980">
<ele>1148.638794</ele>
<time>2013-09-29T22:00:00.996Z</time>
</trkpt>
<trkpt lat="42.5701550" lon="1.3285100">
<ele>1149.675049</ele>
<time>2013-09-29T22:00:00.996Z</time>
</trkpt>
<trkpt lat="42.5702440" lon="1.3284400">
<ele>1149.644653</ele>
<time>2013-09-29T22:00:00.996Z</time>
</trkpt>
<trkpt lat="42.5703420" lon="1.3283890">
<ele>1148.943604</ele>
<time>2013-09-29T22:00:00.996Z</time>
</trkpt>
<trkpt lat="42.5704340" lon="1.3283460">
<ele>1149.553223</ele>
<time>2013-09-29T22:00:00.996Z</time>
</trkpt>
<trkpt lat="42.5706130" lon="1.3282680">
<ele>1150.345703</ele>
<time>2013-09-29T22:00:00.996Z</time>
</trkpt>
<trkpt lat="42.5706980" lon="1.3282290">
<ele>1150.528564</ele>
<time>2013-09-29T22:00:00.996Z</time>
</trkpt>
<trkpt lat="42.5708360" lon="1.3281650">
<ele>1149.065430</ele>
<time>2013-09-29T22:00:00.996Z</time>
</trkpt>
<trkpt lat="42.5709530" lon="1.3281250">
<ele>1151.077148</ele>
<time>2013-09-29T22:00:00.996Z</time>
</trkpt>
<trkpt lat="42.5710650" lon="1.3280910">
<ele>1151.686768</ele>
<time>2013-09-29T22:00:00.996Z</time>
</trkpt>
<trkpt lat="42.5711320" lon="1.3280770">
<ele>1151.046631</ele>
<time>2013-09-29T22:00:00.996Z</time>
</trkpt>
<trkpt lat="42.5712220" lon="1.3280630">
<ele>1150.559082</ele>
<time>2013-09-29T22:00:00.996Z</time>
</trkpt>
<trkpt lat="42.5713300" lon="1.3280420">
<ele>1150.802856</ele>
<time>2013-09-29T22:00:00.996Z</time>
</trkpt>
<trkpt lat="42.5714200" lon="1.3280330">
<ele>1150.802856</ele>
<time>2013-09-29T22:00:00.996Z</time>
</trkpt>
<trkpt lat="42.5715190" lon="1.3280120">
<ele>1150.955322</ele>
<time>2013-09-29T22:00:00.996Z</time>
</trkpt>
<trkpt lat="42.5716490" lon="1.3279910">
<ele>1152.022095</ele>
<time>2013-09-29T22:00:00.996Z</time>
</trkpt>
<trkpt lat="42.5717610" lon="1.3279690">
<ele>1151.717285</ele>
<time>2013-09-29T22:00:00.996Z</time>
</trkpt>
<trkpt lat="42.5718870" lon="1.3279540">
<ele>1152.692627</ele>
<time>2013-09-29T22:00:00.996Z</time>
</trkpt>
<trkpt lat="42.5719810" lon="1.3279510">
<ele>1152.997437</ele>
<time>2013-09-29T22:00:00.996Z</time>
</trkpt>
<trkpt lat="42.5720220" lon="1.3279500">
<ele>1152.997437</ele>
<time>2013-09-29T22:00:00.996Z</time>
</trkpt>
<trkpt lat="42.5720810" lon="1.3279550">
<ele>1153.302246</ele>
<time>2013-09-29T22:00:00.996Z</time>
</trkpt>
<trkpt lat="42.5721210" lon="1.3279660">
<ele>1153.576538</ele>
<time>2013-09-29T22:00:00.996Z</time>
</trkpt>
<trkpt lat="42.5721800" lon="1.3279820">
<ele>1154.338501</ele>
<time>2013-09-29T22:00:00.996Z</time>
</trkpt>
<trkpt lat="42.5722480" lon="1.3280050">
<ele>1155.374878</ele>
<time>2013-09-29T22:00:00.996Z</time>
</trkpt>
<trkpt lat="42.5723340" lon="1.3280390">
<ele>1157.112305</ele>
<time>2013-09-29T22:00:00.996Z</time>
</trkpt>
<trkpt lat="42.5724330" lon="1.3280610">
<ele>1157.782837</ele>
<time>2013-09-29T22:00:00.996Z</time>
</trkpt>
<trkpt lat="42.5724830" lon="1.3280600">
<ele>1158.483887</ele>
<time>2013-09-29T22:00:00.996Z</time>
</trkpt>
<trkpt lat="42.5725460" lon="1.3280520">
<ele>1159.824951</ele>
<time>2013-09-29T22:00:00.996Z</time>
</trkpt>
<trkpt lat="42.5726440" lon="1.3280310">
<ele>1160.526001</ele>
<time>2013-09-29T22:00:00.996Z</time>
</trkpt>
<trkpt lat="42.5727430" lon="1.3279800">
<ele>1160.617432</ele>
<time>2013-09-29T22:00:00.996Z</time>
</trkpt>
<trkpt lat="42.5728590" lon="1.3279160">
<ele>1161.105103</ele>
<time>2013-09-29T22:00:00.996Z</time>
</trkpt>
<trkpt lat="42.5729170" lon="1.3278900">
<ele>1161.562256</ele>
<time>2013-09-29T22:00:00.996Z</time>
</trkpt>
<trkpt lat="42.5729710" lon="1.3278820">
<ele>1162.232910</ele>
<time>2013-09-29T22:00:00.996Z</time>
</trkpt>
<trkpt lat="42.5730340" lon="1.3278800">
<ele>1162.720581</ele>
<time>2013-09-29T22:00:00.996Z</time>
</trkpt>
<trkpt lat="42.5731020" lon="1.3278850">
<ele>1162.872925</ele>
<time>2013-09-29T22:00:00.996Z</time>
</trkpt>
<trkpt lat="42.5731740" lon="1.3278950">
<ele>1163.299683</ele>
<time>2013-09-29T22:00:00.996Z</time>
</trkpt>
<trkpt lat="42.5732370" lon="1.3279180">
<ele>1163.513062</ele>
<time>2013-09-29T22:00:00.996Z</time>
</trkpt>
<trkpt lat="42.5733190" lon="1.3279460">
<ele>1164.244507</ele>
<time>2013-09-29T22:00:00.996Z</time>
</trkpt>
<trkpt lat="42.5734090" lon="1.3279800">
<ele>1164.976074</ele>
<time>2013-09-29T22:00:00.996Z</time>
</trkpt>
<trkpt lat="42.5735180" lon="1.3280260">
<ele>1167.536377</ele>
<time>2013-09-29T22:00:00.996Z</time>
</trkpt>
<trkpt lat="42.5737800" lon="1.3281290">
<ele>1170.096680</ele>
<time>2013-09-29T22:00:00.996Z</time>
</trkpt>
<trkpt lat="42.5739430" lon="1.3281850">
<ele>1172.413208</ele>
<time>2013-09-29T22:00:00.996Z</time>
</trkpt>
<trkpt lat="42.5739840" lon="1.3282020">
<ele>1172.626587</ele>
<time>2013-09-29T22:00:00.996Z</time>
</trkpt>
<trkpt lat="42.5740290" lon="1.3282130">
<ele>1172.687500</ele>
<time>2013-09-29T22:00:00.996Z</time>
</trkpt>
<trkpt lat="42.5740610" lon="1.3282190">
<ele>1172.565552</ele>
<time>2013-09-29T22:00:00.996Z</time>
</trkpt>
<trkpt lat="42.5741740" lon="1.3282280">
<ele>1172.230347</ele>
<time>2013-09-29T22:00:00.996Z</time>
</trkpt>
<trkpt lat="42.5742770" lon="1.3282310">
<ele>1171.376953</ele>
<time>2013-09-29T22:00:00.996Z</time>
</trkpt>
<trkpt lat="42.5743370" lon="1.3282270">
<ele>1171.041626</ele>
<time>2013-09-29T22:00:00.996Z</time>
</trkpt>
<trkpt lat="42.5743940" lon="1.3282280">
<ele>1170.432007</ele>
<time>2013-09-29T22:00:00.996Z</time>
</trkpt>
<trkpt lat="42.5744450" lon="1.3282370">
<ele>1169.791870</ele>
<time>2013-09-29T22:00:00.996Z</time>
</trkpt>
<trkpt lat="42.5744950" lon="1.3282480">
<ele>1169.365234</ele>
<time>2013-09-29T22:00:00.996Z</time>
</trkpt>
<trkpt lat="42.5745620" lon="1.3282760">
<ele>1168.389893</ele>
<time>2013-09-29T22:00:00.996Z</time>
</trkpt>
<trkpt lat="42.5746210" lon="1.3283050">
<ele>1168.206909</ele>
<time>2013-09-29T22:00:00.996Z</time>
</trkpt>
<trkpt lat="42.5746620" lon="1.3283280">
<ele>1168.450806</ele>
<time>2013-09-29T22:00:00.996Z</time>
</trkpt>
<trkpt lat="42.5747490" lon="1.3283810">
<ele>1169.304199</ele>
<time>2013-09-29T22:00:00.996Z</time>
</trkpt>
<trkpt lat="42.5748430" lon="1.3284410">
<ele>1168.664185</ele>
<time>2013-09-29T22:00:00.996Z</time>
</trkpt>
<trkpt lat="42.5749160" lon="1.3284880">
<ele>1168.633667</ele>
<time>2013-09-29T22:00:00.996Z</time>
</trkpt>
<trkpt lat="42.5749840" lon="1.3285350">
<ele>1169.304199</ele>
<time>2013-09-29T22:00:00.996Z</time>
</trkpt>
<trkpt lat="42.5750390" lon="1.3285760">
<ele>1170.188110</ele>
<time>2013-09-29T22:00:00.996Z</time>
</trkpt>
<trkpt lat="42.5750930" lon="1.3286300">
<ele>1170.371094</ele>
<time>2013-09-29T22:00:00.996Z</time>
</trkpt>
<trkpt lat="42.5751350" lon="1.3286770">
<ele>1170.432007</ele>
<time>2013-09-29T22:00:00.996Z</time>
</trkpt>
<trkpt lat="42.5751850" lon="1.3287490">
<ele>1169.273804</ele>
<time>2013-09-29T22:00:00.996Z</time>
</trkpt>
<trkpt lat="42.5752450" lon="1.3288270">
<ele>1168.694702</ele>
<time>2013-09-29T22:00:00.996Z</time>
</trkpt>
<trkpt lat="42.5752860" lon="1.3288740">
<ele>1169.670044</ele>
<time>2013-09-29T22:00:00.996Z</time>
</trkpt>
<trkpt lat="42.5753410" lon="1.3289210">
<ele>1170.127197</ele>
<time>2013-09-29T22:00:00.996Z</time>
</trkpt>
<trkpt lat="42.5754040" lon="1.3289560">
<ele>1169.273804</ele>
<time>2013-09-29T22:00:00.996Z</time>
</trkpt>
<trkpt lat="42.5754770" lon="1.3289850">
<ele>1168.938477</ele>
<time>2013-09-29T22:00:00.996Z</time>
</trkpt>
<trkpt lat="42.5755490" lon="1.3290010">
<ele>1169.822388</ele>
<time>2013-09-29T22:00:00.996Z</time>
</trkpt>
<trkpt lat="42.5756210" lon="1.3290050">
<ele>1171.315918</ele>
<time>2013-09-29T22:00:00.996Z</time>
</trkpt>
<trkpt lat="42.5756940" lon="1.3290010">
<ele>1172.535034</ele>
<time>2013-09-29T22:00:00.996Z</time>
</trkpt>
<trkpt lat="42.5757700" lon="1.3289950">
<ele>1173.754272</ele>
<time>2013-09-29T22:00:00.996Z</time>
</trkpt>
<trkpt lat="42.5758280" lon="1.3289820">
<ele>1174.120117</ele>
<time>2013-09-29T22:00:00.996Z</time>
</trkpt>
<trkpt lat="42.5759630" lon="1.3289480">
<ele>1173.388550</ele>
<time>2013-09-29T22:00:00.996Z</time>
</trkpt>
<trkpt lat="42.5762310" lon="1.3288610">
<ele>1176.467041</ele>
<time>2013-09-29T22:00:00.996Z</time>
</trkpt>
<trkpt lat="42.5764290" lon="1.3288070">
<ele>1177.960571</ele>
<time>2013-09-29T22:00:00.996Z</time>
</trkpt>
<trkpt lat="42.5765500" lon="1.3287670">
<ele>1178.600708</ele>
<time>2013-09-29T22:00:00.996Z</time>
</trkpt>
<trkpt lat="42.5766350" lon="1.3287350">
<ele>1178.570190</ele>
<time>2013-09-29T22:00:00.996Z</time>
</trkpt>
<trkpt lat="42.5767240" lon="1.3286830">
<ele>1178.631104</ele>
<time>2013-09-29T22:00:00.996Z</time>
</trkpt>
<trkpt lat="42.5768230" lon="1.3286240">
<ele>1178.265381</ele>
<time>2013-09-29T22:00:00.996Z</time>
</trkpt>
<trkpt lat="42.5769030" lon="1.3285690">
<ele>1177.960571</ele>
<time>2013-09-29T22:00:00.996Z</time>
</trkpt>
<trkpt lat="42.5769780" lon="1.3285240">
<ele>1178.082520</ele>
<time>2013-09-29T22:00:00.996Z</time>
</trkpt>
<trkpt lat="42.5770280" lon="1.3284930">
<ele>1178.204346</ele>
<time>2013-09-29T22:00:00.996Z</time>
</trkpt>
<trkpt lat="42.5771120" lon="1.3284480">
<ele>1177.930054</ele>
<time>2013-09-29T22:00:00.996Z</time>
</trkpt>
<trkpt lat="42.5771660" lon="1.3284280">
<ele>1177.594849</ele>
<time>2013-09-29T22:00:00.996Z</time>
</trkpt>
<trkpt lat="42.5772380" lon="1.3284080">
<ele>1176.863281</ele>
<time>2013-09-29T22:00:00.996Z</time>
</trkpt>
<trkpt lat="42.5773140" lon="1.3283940">
<ele>1176.314697</ele>
<time>2013-09-29T22:00:00.996Z</time>
</trkpt>
<trkpt lat="42.5774310" lon="1.3283900">
<ele>1176.527954</ele>
<time>2013-09-29T22:00:00.996Z</time>
</trkpt>
<trkpt lat="42.5775030" lon="1.3283950">
<ele>1176.802246</ele>
<time>2013-09-29T22:00:00.996Z</time>
</trkpt>
<trkpt lat="42.5776070" lon="1.3284100">
<ele>1176.863281</ele>
<time>2013-09-29T22:00:00.996Z</time>
</trkpt>
<trkpt lat="42.5776970" lon="1.3284260">
<ele>1176.588989</ele>
<time>2013-09-29T22:00:00.996Z</time>
</trkpt>
<trkpt lat="42.5777920" lon="1.3284420">
<ele>1176.619507</ele>
<time>2013-09-29T22:00:00.996Z</time>
</trkpt>
<trkpt lat="42.5778730" lon="1.3284580">
<ele>1177.198486</ele>
<time>2013-09-29T22:00:00.996Z</time>
</trkpt>
<trkpt lat="42.5779590" lon="1.3284740">
<ele>1178.356812</ele>
<time>2013-09-29T22:00:00.996Z</time>
</trkpt>
<trkpt lat="42.5780360" lon="1.3284840">
<ele>1178.661621</ele>
<time>2013-09-29T22:00:00.996Z</time>
</trkpt>
<trkpt lat="42.5780810" lon="1.3284950">
<ele>1178.204346</ele>
<time>2013-09-29T22:00:00.996Z</time>
</trkpt>
<trkpt lat="42.5781170" lon="1.3285060">
<ele>1177.930054</ele>
<time>2013-09-29T22:00:00.996Z</time>
</trkpt>
<trkpt lat="42.5781720" lon="1.3285350">
<ele>1178.082520</ele>
<time>2013-09-29T22:00:00.996Z</time>
</trkpt>
<trkpt lat="42.5782170" lon="1.3285580">
<ele>1178.783447</ele>
<time>2013-09-29T22:00:00.996Z</time>
</trkpt>
<trkpt lat="42.5782760" lon="1.3285990">
<ele>1179.697876</ele>
<time>2013-09-29T22:00:00.996Z</time>
</trkpt>
<trkpt lat="42.5783170" lon="1.3286350">
<ele>1179.758911</ele>
<time>2013-09-29T22:00:00.996Z</time>
</trkpt>
<trkpt lat="42.5783540" lon="1.3286640">
<ele>1179.819824</ele>
<time>2013-09-29T22:00:00.996Z</time>
</trkpt>
<trkpt lat="42.5783900" lon="1.3286880">
<ele>1180.216064</ele>
<time>2013-09-29T22:00:00.996Z</time>
</trkpt>
<trkpt lat="42.5785130" lon="1.3287640">
<ele>1181.618164</ele>
<time>2013-09-29T22:00:00.996Z</time>
</trkpt>
<trkpt lat="42.5785760" lon="1.3287860">
<ele>1182.105835</ele>
<time>2013-09-29T22:00:00.996Z</time>
</trkpt>
<trkpt lat="42.5786260" lon="1.3287970">
<ele>1182.563110</ele>
<time>2013-09-29T22:00:00.996Z</time>
</trkpt>
<trkpt lat="42.5786930" lon="1.3288080">
<ele>1183.142090</ele>
<time>2013-09-29T22:00:00.996Z</time>
</trkpt>
<trkpt lat="42.5787430" lon="1.3288120">
<ele>1183.385986</ele>
<time>2013-09-29T22:00:00.996Z</time>
</trkpt>
<trkpt lat="42.5788600" lon="1.3288150">
<ele>1184.452759</ele>
<time>2013-09-29T22:00:00.996Z</time>
</trkpt>
<trkpt lat="42.5789950" lon="1.3288180">
<ele>1186.129150</ele>
<time>2013-09-29T22:00:00.996Z</time>
</trkpt>
<trkpt lat="42.5791260" lon="1.3288200">
<ele>1186.982666</ele>
<time>2013-09-29T22:00:00.996Z</time>
</trkpt>
<trkpt lat="42.5792430" lon="1.3288290">
<ele>1187.714111</ele>
<time>2013-09-29T22:00:00.996Z</time>
</trkpt>
<trkpt lat="42.5793920" lon="1.3288320">
<ele>1188.537109</ele>
<time>2013-09-29T22:00:00.996Z</time>
</trkpt>
<trkpt lat="42.5795670" lon="1.3288210">
<ele>1189.421021</ele>
<time>2013-09-29T22:00:00.996Z</time>
</trkpt>
<trkpt lat="42.5797020" lon="1.3288170">
<ele>1189.360107</ele>
<time>2013-09-29T22:00:00.996Z</time>
</trkpt>
<trkpt lat="42.5798010" lon="1.3288270">
<ele>1189.055298</ele>
<time>2013-09-29T22:00:00.996Z</time>
</trkpt>
<trkpt lat="42.5798690" lon="1.3288370">
<ele>1189.024780</ele>
<time>2013-09-29T22:00:00.996Z</time>
</trkpt>
<trkpt lat="42.5799370" lon="1.3288470">
<ele>1189.146729</ele>
<time>2013-09-29T22:00:00.996Z</time>
</trkpt>
<trkpt lat="42.5800000" lon="1.3288580">
<ele>1189.329590</ele>
<time>2013-09-29T22:00:00.996Z</time>
</trkpt>
<trkpt lat="42.5800770" lon="1.3288800">
<ele>1189.482056</ele>
<time>2013-09-29T22:00:00.996Z</time>
</trkpt>
<trkpt lat="42.5801450" lon="1.3289030">
<ele>1189.482056</ele>
<time>2013-09-29T22:00:00.996Z</time>
</trkpt>
<trkpt lat="42.5802760" lon="1.3289540">
<ele>1190.426880</ele>
<time>2013-09-29T22:00:00.996Z</time>
</trkpt>
<trkpt lat="42.5803660" lon="1.3289820">
<ele>1190.426880</ele>
<time>2013-09-29T22:00:00.996Z</time>
</trkpt>
<trkpt lat="42.5804700" lon="1.3290040">
<ele>1190.457397</ele>
<time>2013-09-29T22:00:00.996Z</time>
</trkpt>
<trkpt lat="42.5805470" lon="1.3290140">
<ele>1190.762085</ele>
<time>2013-09-29T22:00:00.996Z</time>
</trkpt>
<trkpt lat="42.5806140" lon="1.3290160">
<ele>1190.945068</ele>
<time>2013-09-29T22:00:00.996Z</time>
</trkpt>
<trkpt lat="42.5806680" lon="1.3290110">
<ele>1191.005981</ele>
<time>2013-09-29T22:00:00.996Z</time>
</trkpt>
<trkpt lat="42.5807450" lon="1.3289960">
<ele>1191.615601</ele>
<time>2013-09-29T22:00:00.996Z</time>
</trkpt>
<trkpt lat="42.5808260" lon="1.3289760">
<ele>1192.682373</ele>
<time>2013-09-29T22:00:00.996Z</time>
</trkpt>
<trkpt lat="42.5809510" lon="1.3289300">
<ele>1194.023438</ele>
<time>2013-09-29T22:00:00.996Z</time>
</trkpt>
<trkpt lat="42.5810400" lon="1.3288850">
<ele>1195.608521</ele>
<time>2013-09-29T22:00:00.996Z</time>
</trkpt>
<trkpt lat="42.5811210" lon="1.3288400">
<ele>1196.553345</ele>
<time>2013-09-29T22:00:00.996Z</time>
</trkpt>
<trkpt lat="42.5811920" lon="1.3287900">
<ele>1197.559204</ele>
<time>2013-09-29T22:00:00.996Z</time>
</trkpt>
<trkpt lat="42.5812760" lon="1.3287140">
<ele>1197.711548</ele>
<time>2013-09-29T22:00:00.996Z</time>
</trkpt>
<trkpt lat="42.5813640" lon="1.3286310">
<ele>1197.772583</ele>
<time>2013-09-29T22:00:00.996Z</time>
</trkpt>
<trkpt lat="42.5814190" lon="1.3285760">
<ele>1198.656494</ele>
<time>2013-09-29T22:00:00.996Z</time>
</trkpt>
<trkpt lat="42.5816540" lon="1.3283320">
<ele>1198.138306</ele>
<time>2013-09-29T22:00:00.996Z</time>
</trkpt>
<trkpt lat="42.5818710" lon="1.3281010">
<ele>1200.576660</ele>
<time>2013-09-29T22:00:00.996Z</time>
</trkpt>
<trkpt lat="42.5819820" lon="1.3279820">
<ele>1201.582520</ele>
<time>2013-09-29T22:00:00.996Z</time>
</trkpt>
<trkpt lat="42.5820970" lon="1.3278390">
<ele>1202.954102</ele>
<time>2013-09-29T22:00:00.996Z</time>
</trkpt>
<trkpt lat="42.5822640" lon="1.3275970">
<ele>1205.514526</ele>
<time>2013-09-29T22:00:00.996Z</time>
</trkpt>
<trkpt lat="42.5824410" lon="1.3273370">
<ele>1207.587036</ele>
<time>2013-09-29T22:00:00.996Z</time>
</trkpt>
<trkpt lat="42.5824980" lon="1.3272620">
<ele>1207.830933</ele>
<time>2013-09-29T22:00:00.996Z</time>
</trkpt>
<trkpt lat="42.5825470" lon="1.3272120">
<ele>1207.922363</ele>
<time>2013-09-29T22:00:00.996Z</time>
</trkpt>
<trkpt lat="42.5826000" lon="1.3271620">
<ele>1208.562500</ele>
<time>2013-09-29T22:00:00.996Z</time>
</trkpt>
<trkpt lat="42.5826360" lon="1.3271360">
<ele>1209.050171</ele>
<time>2013-09-29T22:00:00.996Z</time>
</trkpt>
<trkpt lat="42.5826980" lon="1.3270980">
<ele>1210.056030</ele>
<time>2013-09-29T22:00:00.996Z</time>
</trkpt>
<trkpt lat="42.5827610" lon="1.3270660">
<ele>1211.214233</ele>
<time>2013-09-29T22:00:00.996Z</time>
</trkpt>
<trkpt lat="42.5828410" lon="1.3270390">
<ele>1212.189575</ele>
<time>2013-09-29T22:00:00.996Z</time>
</trkpt>
<trkpt lat="42.5829360" lon="1.3270130">
<ele>1212.463867</ele>
<time>2013-09-29T22:00:00.996Z</time>
</trkpt>
<trkpt lat="42.5830240" lon="1.3270020">
<ele>1213.164917</ele>
<time>2013-09-29T22:00:00.996Z</time>
</trkpt>
<trkpt lat="42.5831060" lon="1.3269780">
<ele>1214.170776</ele>
<time>2013-09-29T22:00:00.996Z</time>
</trkpt>
<trkpt lat="42.5832180" lon="1.3269440">
<ele>1214.841309</ele>
<time>2013-09-29T22:00:00.996Z</time>
</trkpt>
<trkpt lat="42.5832850" lon="1.3269180">
<ele>1215.237549</ele>
<time>2013-09-29T22:00:00.996Z</time>
</trkpt>
<trkpt lat="42.5834150" lon="1.3268540">
<ele>1216.334961</ele>
<time>2013-09-29T22:00:00.996Z</time>
</trkpt>
<trkpt lat="42.5835310" lon="1.3267770">
<ele>1216.670166</ele>
<time>2013-09-29T22:00:00.996Z</time>
</trkpt>
<trkpt lat="42.5836240" lon="1.3267080">
<ele>1215.572876</ele>
<time>2013-09-29T22:00:00.996Z</time>
</trkpt>
<trkpt lat="42.5837580" lon="1.3266010">
<ele>1216.426270</ele>
<time>2013-09-29T22:00:00.996Z</time>
</trkpt>
<trkpt lat="42.5839050" lon="1.3265050">
<ele>1216.761597</ele>
<time>2013-09-29T22:00:00.996Z</time>
</trkpt>
<trkpt lat="42.5839540" lon="1.3264740">
<ele>1216.792114</ele>
<time>2013-09-29T22:00:00.996Z</time>
</trkpt>
<trkpt lat="42.5839990" lon="1.3264540">
<ele>1216.639771</ele>
<time>2013-09-29T22:00:00.996Z</time>
</trkpt>
<trkpt lat="42.5840480" lon="1.3264410">
<ele>1216.487305</ele>
<time>2013-09-29T22:00:00.996Z</time>
</trkpt>
<trkpt lat="42.5841380" lon="1.3264320">
<ele>1216.517700</ele>
<time>2013-09-29T22:00:00.996Z</time>
</trkpt>
<trkpt lat="42.5842550" lon="1.3264290">
<ele>1217.188232</ele>
<time>2013-09-29T22:00:00.996Z</time>
</trkpt>
<trkpt lat="42.5844850" lon="1.3264470">
<ele>1217.249268</ele>
<time>2013-09-29T22:00:00.996Z</time>
</trkpt>
<trkpt lat="42.5847600" lon="1.3264580">
<ele>1216.761597</ele>
<time>2013-09-29T22:00:00.996Z</time>
</trkpt>
<trkpt lat="42.5849310" lon="1.3264660">
<ele>1215.633911</ele>
<time>2013-09-29T22:00:00.996Z</time>
</trkpt>
<trkpt lat="42.5850300" lon="1.3264750">
<ele>1215.847168</ele>
<time>2013-09-29T22:00:00.996Z</time>
</trkpt>
<trkpt lat="42.5851160" lon="1.3264970">
<ele>1216.151978</ele>
<time>2013-09-29T22:00:00.996Z</time>
</trkpt>
<trkpt lat="42.5851930" lon="1.3265200">
<ele>1217.279785</ele>
<time>2013-09-29T22:00:00.996Z</time>
</trkpt>
<trkpt lat="42.5852790" lon="1.3265540">
<ele>1217.797852</ele>
<time>2013-09-29T22:00:00.996Z</time>
</trkpt>
<trkpt lat="42.5853790" lon="1.3266000">
<ele>1216.365356</ele>
<time>2013-09-29T22:00:00.996Z</time>
</trkpt>
<trkpt lat="42.5854740" lon="1.3266400">
<ele>1215.725342</ele>
<time>2013-09-29T22:00:00.996Z</time>
</trkpt>
<trkpt lat="42.5855640" lon="1.3266680">
<ele>1216.121460</ele>
<time>2013-09-29T22:00:00.996Z</time>
</trkpt>
<trkpt lat="42.5856320" lon="1.3266850">
<ele>1216.487305</ele>
<time>2013-09-29T22:00:00.996Z</time>
</trkpt>
<trkpt lat="42.5857540" lon="1.3267060">
<ele>1217.645508</ele>
<time>2013-09-29T22:00:00.996Z</time>
</trkpt>
<trkpt lat="42.5859750" lon="1.3267360">
<ele>1217.889404</ele>
<time>2013-09-29T22:00:00.996Z</time>
</trkpt>
<trkpt lat="42.5860520" lon="1.3267460">
<ele>1217.371216</ele>
<time>2013-09-29T22:00:00.996Z</time>
</trkpt>
<trkpt lat="42.5861690" lon="1.3267740">
<ele>1216.121460</ele>
<time>2013-09-29T22:00:00.996Z</time>
</trkpt>
<trkpt lat="42.5863770" lon="1.3268350">
<ele>1217.096924</ele>
<time>2013-09-29T22:00:00.996Z</time>
</trkpt>
<trkpt lat="42.5865490" lon="1.3268920">
<ele>1217.706543</ele>
<time>2013-09-29T22:00:00.996Z</time>
</trkpt>
<trkpt lat="42.5866670" lon="1.3269430">
<ele>1218.011353</ele>
<time>2013-09-29T22:00:00.996Z</time>
</trkpt>
<trkpt lat="42.5867620" lon="1.3269960">
<ele>1217.736938</ele>
<time>2013-09-29T22:00:00.996Z</time>
</trkpt>
<trkpt lat="42.5869530" lon="1.3271180">
<ele>1218.559937</ele>
<time>2013-09-29T22:00:00.996Z</time>
</trkpt>
<trkpt lat="42.5871120" lon="1.3272240">
<ele>1218.285645</ele>
<time>2013-09-29T22:00:00.996Z</time>
</trkpt>
<trkpt lat="42.5872490" lon="1.3272990">
<ele>1218.559937</ele>
<time>2013-09-29T22:00:00.996Z</time>
</trkpt>
<trkpt lat="42.5872980" lon="1.3273220">
<ele>1218.834229</ele>
<time>2013-09-29T22:00:00.996Z</time>
</trkpt>
<trkpt lat="42.5873660" lon="1.3273450">
<ele>1219.321899</ele>
<time>2013-09-29T22:00:00.996Z</time>
</trkpt>
<trkpt lat="42.5874130" lon="1.3273540">
<ele>1219.565796</ele>
<time>2013-09-29T22:00:00.996Z</time>
</trkpt>
<trkpt lat="42.5874520" lon="1.3273550">
<ele>1219.718140</ele>
<time>2013-09-29T22:00:00.996Z</time>
</trkpt>
<trkpt lat="42.5875080" lon="1.3273520">
<ele>1219.748657</ele>
<time>2013-09-29T22:00:00.996Z</time>
</trkpt>
<trkpt lat="42.5875530" lon="1.3273450">
<ele>1219.748657</ele>
<time>2013-09-29T22:00:00.996Z</time>
</trkpt>
<trkpt lat="42.5876160" lon="1.3273250">
<ele>1219.809570</ele>
<time>2013-09-29T22:00:00.996Z</time>
</trkpt>
<trkpt lat="42.5877610" lon="1.3272610">
<ele>1220.327759</ele>
<time>2013-09-29T22:00:00.996Z</time>
</trkpt>
<trkpt lat="42.5881500" lon="1.3270680">
<ele>1223.101440</ele>
<time>2013-09-29T22:00:00.996Z</time>
</trkpt>
<trkpt lat="42.5881900" lon="1.3270430">
<ele>1223.131836</ele>
<time>2013-09-29T22:00:00.996Z</time>
</trkpt>
<trkpt lat="42.5882260" lon="1.3270110">
<ele>1223.345337</ele>
<time>2013-09-29T22:00:00.996Z</time>
</trkpt>
<trkpt lat="42.5882480" lon="1.3269860">
<ele>1223.589111</ele>
<time>2013-09-29T22:00:00.996Z</time>
</trkpt>
<trkpt lat="42.5882660" lon="1.3269550">
<ele>1223.802490</ele>
<time>2013-09-29T22:00:00.996Z</time>
</trkpt>
<trkpt lat="42.5883050" lon="1.3268990">
<ele>1224.015869</ele>
<time>2013-09-29T22:00:00.996Z</time>
</trkpt>
<trkpt lat="42.5883450" lon="1.3268440">
<ele>1224.107300</ele>
<time>2013-09-29T22:00:00.996Z</time>
</trkpt>
<trkpt lat="42.5883980" lon="1.3267990">
<ele>1224.625488</ele>
<time>2013-09-29T22:00:00.996Z</time>
</trkpt>
<trkpt lat="42.5884830" lon="1.3267550">
<ele>1225.661743</ele>
<time>2013-09-29T22:00:00.996Z</time>
</trkpt>
<trkpt lat="42.5887740" lon="1.3266310">
<ele>1227.520996</ele>
<time>2013-09-29T22:00:00.996Z</time>
</trkpt>
<trkpt lat="42.5890300" lon="1.3265570">
<ele>1228.709717</ele>
<time>2013-09-29T22:00:00.996Z</time>
</trkpt>
<trkpt lat="42.5891240" lon="1.3265180">
<ele>1229.105957</ele>
<time>2013-09-29T22:00:00.996Z</time>
</trkpt>
<trkpt lat="42.5892040" lon="1.3264670">
<ele>1229.166992</ele>
<time>2013-09-29T22:00:00.996Z</time>
</trkpt>
<trkpt lat="42.5892660" lon="1.3264170">
<ele>1229.746094</ele>
<time>2013-09-29T22:00:00.996Z</time>
</trkpt>
<trkpt lat="42.5893380" lon="1.3263780">
<ele>1230.599487</ele>
<time>2013-09-29T22:00:00.996Z</time>
</trkpt>
<trkpt lat="42.5893960" lon="1.3263520">
<ele>1230.843384</ele>
<time>2013-09-29T22:00:00.996Z</time>
</trkpt>
<trkpt lat="42.5894990" lon="1.3263250">
<ele>1231.331055</ele>
<time>2013-09-29T22:00:00.996Z</time>
</trkpt>
<trkpt lat="42.5896070" lon="1.3262980">
<ele>1232.093018</ele>
<time>2013-09-29T22:00:00.996Z</time>
</trkpt>
<trkpt lat="42.5896830" lon="1.3262840">
<ele>1232.093018</ele>
<time>2013-09-29T22:00:00.996Z</time>
</trkpt>
<trkpt lat="42.5897460" lon="1.3262580">
<ele>1232.794067</ele>
<time>2013-09-29T22:00:00.996Z</time>
</trkpt>
<trkpt lat="42.5897990" lon="1.3262070">
<ele>1233.525635</ele>
<time>2013-09-29T22:00:00.996Z</time>
</trkpt>
<trkpt lat="42.5898430" lon="1.3261330">
<ele>1233.891357</ele>
<time>2013-09-29T22:00:00.996Z</time>
</trkpt>
<trkpt lat="42.5899090" lon="1.3260220">
<ele>1235.171509</ele>
<time>2013-09-29T22:00:00.996Z</time>
</trkpt>
<trkpt lat="42.5899570" lon="1.3259230">
<ele>1235.750610</ele>
<time>2013-09-29T22:00:00.996Z</time>
</trkpt>
<trkpt lat="42.5900140" lon="1.3258240">
<ele>1236.238281</ele>
<time>2013-09-29T22:00:00.996Z</time>
</trkpt>
<trkpt lat="42.5900710" lon="1.3257250">
<ele>1236.482178</ele>
<time>2013-09-29T22:00:00.996Z</time>
</trkpt>
<trkpt lat="42.5901420" lon="1.3256500">
<ele>1236.665039</ele>
<time>2013-09-29T22:00:00.996Z</time>
</trkpt>
<trkpt lat="42.5902310" lon="1.3255740">
<ele>1237.762329</ele>
<time>2013-09-29T22:00:00.996Z</time>
</trkpt>
<trkpt lat="42.5903690" lon="1.3254850">
<ele>1237.762329</ele>
<time>2013-09-29T22:00:00.996Z</time>
</trkpt>
<trkpt lat="42.5906190" lon="1.3253450">
<ele>1241.297974</ele>
<time>2013-09-29T22:00:00.996Z</time>
</trkpt>
<trkpt lat="42.5909050" lon="1.3251780">
<ele>1243.766968</ele>
<time>2013-09-29T22:00:00.996Z</time>
</trkpt>
<trkpt lat="42.5911550" lon="1.3250380">
<ele>1246.723511</ele>
<time>2013-09-29T22:00:00.996Z</time>
</trkpt>
<trkpt lat="42.5913920" lon="1.3248910">
<ele>1249.801880</ele>
<time>2013-09-29T22:00:00.996Z</time>
</trkpt>
<trkpt lat="42.5915590" lon="1.3248000">
<ele>1252.423218</ele>
<time>2013-09-29T22:00:00.996Z</time>
</trkpt>
<trkpt lat="42.5916080" lon="1.3247740">
<ele>1253.337646</ele>
<time>2013-09-29T22:00:00.996Z</time>
</trkpt>
<trkpt lat="42.5916440" lon="1.3247610">
<ele>1253.886230</ele>
<time>2013-09-29T22:00:00.996Z</time>
</trkpt>
<trkpt lat="42.5916930" lon="1.3247540">
<ele>1254.526245</ele>
<time>2013-09-29T22:00:00.996Z</time>
</trkpt>
<trkpt lat="42.5918410" lon="1.3247380">
<ele>1257.056274</ele>
<time>2013-09-29T22:00:00.996Z</time>
</trkpt>
<trkpt lat="42.5918980" lon="1.3247250">
<ele>1257.970581</ele>
<time>2013-09-29T22:00:00.996Z</time>
</trkpt>
<trkpt lat="42.5919310" lon="1.3247110">
<ele>1258.336304</ele>
<time>2013-09-29T22:00:00.996Z</time>
</trkpt>
<trkpt lat="42.5919670" lon="1.3246920">
<ele>1258.671631</ele>
<time>2013-09-29T22:00:00.996Z</time>
</trkpt>
<trkpt lat="42.5919890" lon="1.3246730">
<ele>1258.945923</ele>
<time>2013-09-29T22:00:00.996Z</time>
</trkpt>
<trkpt lat="42.5920020" lon="1.3246600">
<ele>1259.159302</ele>
<time>2013-09-29T22:00:00.996Z</time>
</trkpt>
<trkpt lat="42.5920290" lon="1.3246350">
<ele>1259.616455</ele>
<time>2013-09-29T22:00:00.996Z</time>
</trkpt>
<trkpt lat="42.5920600" lon="1.3246040">
<ele>1260.317505</ele>
<time>2013-09-29T22:00:00.996Z</time>
</trkpt>
<trkpt lat="42.5920820" lon="1.3245790">
<ele>1260.896606</ele>
<time>2013-09-29T22:00:00.996Z</time>
</trkpt>
<trkpt lat="42.5921270" lon="1.3245410">
<ele>1262.268188</ele>
<time>2013-09-29T22:00:00.996Z</time>
</trkpt>
<trkpt lat="42.5921690" lon="1.3245110">
<ele>1263.639771</ele>
<time>2013-09-29T22:00:00.996Z</time>
</trkpt>
<trkpt lat="42.5922410" lon="1.3244850">
<ele>1265.224854</ele>
<time>2013-09-29T22:00:00.996Z</time>
</trkpt>
<trkpt lat="42.5923490" lon="1.3244570">
<ele>1266.413452</ele>
<time>2013-09-29T22:00:00.996Z</time>
</trkpt>
<trkpt lat="42.5924740" lon="1.3244230">
<ele>1267.998535</ele>
<time>2013-09-29T22:00:00.996Z</time>
</trkpt>
<trkpt lat="42.5926000" lon="1.3244020">
<ele>1269.949219</ele>
<time>2013-09-29T22:00:00.996Z</time>
</trkpt>
<trkpt lat="42.5927080" lon="1.3243870">
<ele>1272.570557</ele>
<time>2013-09-29T22:00:00.996Z</time>
</trkpt>
<trkpt lat="42.5927590" lon="1.3243900">
<ele>1274.094482</ele>
<time>2013-09-29T22:00:00.996Z</time>
</trkpt>
<trkpt lat="42.5928130" lon="1.3243950">
<ele>1275.344238</ele>
<time>2013-09-29T22:00:00.996Z</time>
</trkpt>
<trkpt lat="42.5928880" lon="1.3244120">
<ele>1275.679321</ele>
<time>2013-09-29T22:00:00.996Z</time>
</trkpt>
<trkpt lat="42.5929790" lon="1.3244470">
<ele>1276.228149</ele>
<time>2013-09-29T22:00:00.996Z</time>
</trkpt>
<trkpt lat="42.5931010" lon="1.3244740">
<ele>1277.020630</ele>
<time>2013-09-29T22:00:00.996Z</time>
</trkpt>
<trkpt lat="42.5932320" lon="1.3244820">
<ele>1277.843506</ele>
<time>2013-09-29T22:00:00.996Z</time>
</trkpt>
<trkpt lat="42.5933570" lon="1.3244670">
<ele>1279.763794</ele>
<time>2013-09-29T22:00:00.996Z</time>
</trkpt>
<trkpt lat="42.5934470" lon="1.3244460">
<ele>1280.891479</ele>
<time>2013-09-29T22:00:00.996Z</time>
</trkpt>
<trkpt lat="42.5935460" lon="1.3244070">
<ele>1281.287842</ele>
<time>2013-09-29T22:00:00.996Z</time>
</trkpt>
<trkpt lat="42.5936080" lon="1.3243690">
<ele>1281.440186</ele>
<time>2013-09-29T22:00:00.996Z</time>
</trkpt>
<trkpt lat="42.5936710" lon="1.3243490">
<ele>1281.805908</ele>
<time>2013-09-29T22:00:00.996Z</time>
</trkpt>
<trkpt lat="42.5937520" lon="1.3243280">
<ele>1283.025146</ele>
<time>2013-09-29T22:00:00.996Z</time>
</trkpt>
<trkpt lat="42.5939040" lon="1.3243180">
<ele>1284.031006</ele>
<time>2013-09-29T22:00:00.996Z</time>
</trkpt>
<trkpt lat="42.5939760" lon="1.3243160">
<ele>1284.183472</ele>
<time>2013-09-29T22:00:00.996Z</time>
</trkpt>
<trkpt lat="42.5940390" lon="1.3243020">
<ele>1284.457764</ele>
<time>2013-09-29T22:00:00.996Z</time>
</trkpt>
<trkpt lat="42.5941060" lon="1.3242640">
<ele>1285.036743</ele>
<time>2013-09-29T22:00:00.996Z</time>
</trkpt>
<trkpt lat="42.5942180" lon="1.3241760">
<ele>1286.438965</ele>
<time>2013-09-29T22:00:00.996Z</time>
</trkpt>
<trkpt lat="42.5944440" lon="1.3239750">
<ele>1289.456421</ele>
<time>2013-09-29T22:00:00.996Z</time>
</trkpt>
<trkpt lat="42.5945730" lon="1.3238610">
<ele>1291.254639</ele>
<time>2013-09-29T22:00:00.996Z</time>
</trkpt>
<trkpt lat="42.5946710" lon="1.3237860">
<ele>1293.814941</ele>
<time>2013-09-29T22:00:00.996Z</time>
</trkpt>
<trkpt lat="42.5947600" lon="1.3237220">
<ele>1294.028442</ele>
<time>2013-09-29T22:00:00.996Z</time>
</trkpt>
<trkpt lat="42.5948670" lon="1.3236460">
<ele>1294.790405</ele>
<time>2013-09-29T22:00:00.996Z</time>
</trkpt>
<trkpt lat="42.5951260" lon="1.3234690">
<ele>1295.095215</ele>
<time>2013-09-29T22:00:00.996Z</time>
</trkpt>
<trkpt lat="42.5951970" lon="1.3234180">
<ele>1295.704834</ele>
<time>2013-09-29T22:00:00.996Z</time>
</trkpt>
<trkpt lat="42.5952730" lon="1.3233670">
<ele>1295.521851</ele>
<time>2013-09-29T22:00:00.996Z</time>
</trkpt>
<trkpt lat="42.5953310" lon="1.3233170">
<ele>1295.247559</ele>
<time>2013-09-29T22:00:00.996Z</time>
</trkpt>
<trkpt lat="42.5955260" lon="1.3231110">
<ele>1296.527832</ele>
<time>2013-09-29T22:00:00.996Z</time>
</trkpt>
<trkpt lat="42.5956150" lon="1.3230350">
<ele>1296.619141</ele>
<time>2013-09-29T22:00:00.996Z</time>
</trkpt>
<trkpt lat="42.5956950" lon="1.3229780">
<ele>1296.619141</ele>
<time>2013-09-29T22:00:00.996Z</time>
</trkpt>
<trkpt lat="42.5957620" lon="1.3229400">
<ele>1296.009644</ele>
<time>2013-09-29T22:00:00.996Z</time>
</trkpt>
<trkpt lat="42.5958200" lon="1.3229140">
<ele>1295.918213</ele>
<time>2013-09-29T22:00:00.996Z</time>
</trkpt>
<trkpt lat="42.5959990" lon="1.3228600">
<ele>1298.051880</ele>
<time>2013-09-29T22:00:00.996Z</time>
</trkpt>
<trkpt lat="42.5960760" lon="1.3228460">
<ele>1297.929810</ele>
<time>2013-09-29T22:00:00.996Z</time>
</trkpt>
<trkpt lat="42.5961520" lon="1.3228200">
<ele>1297.655518</ele>
<time>2013-09-29T22:00:00.996Z</time>
</trkpt>
<trkpt lat="42.5963080" lon="1.3227550">
<ele>1298.326050</ele>
<time>2013-09-29T22:00:00.996Z</time>
</trkpt>
<trkpt lat="42.5963710" lon="1.3227410">
<ele>1298.509033</ele>
<time>2013-09-29T22:00:00.996Z</time>
</trkpt>
<trkpt lat="42.5964570" lon="1.3227380">
<ele>1298.783325</ele>
<time>2013-09-29T22:00:00.996Z</time>
</trkpt>
<trkpt lat="42.5965470" lon="1.3227480">
<ele>1298.966187</ele>
<time>2013-09-29T22:00:00.996Z</time>
</trkpt>
<trkpt lat="42.5966960" lon="1.3227620">
<ele>1300.764526</ele>
<time>2013-09-29T22:00:00.996Z</time>
</trkpt>
<trkpt lat="42.5967900" lon="1.3227720">
<ele>1301.770264</ele>
<time>2013-09-29T22:00:00.996Z</time>
</trkpt>
<trkpt lat="42.5968720" lon="1.3228000">
<ele>1302.014160</ele>
<time>2013-09-29T22:00:00.996Z</time>
</trkpt>
<trkpt lat="42.5969310" lon="1.3228350">
<ele>1301.434937</ele>
<time>2013-09-29T22:00:00.996Z</time>
</trkpt>
<trkpt lat="42.5969950" lon="1.3228760">
<ele>1301.465454</ele>
<time>2013-09-29T22:00:00.996Z</time>
</trkpt>
<trkpt lat="42.5970400" lon="1.3229120">
<ele>1301.526489</ele>
<time>2013-09-29T22:00:00.996Z</time>
</trkpt>
<trkpt lat="42.5970990" lon="1.3229470">
<ele>1302.166626</ele>
<time>2013-09-29T22:00:00.996Z</time>
</trkpt>
<trkpt lat="42.5974300" lon="1.3230960">
<ele>1305.824219</ele>
<time>2013-09-29T22:00:00.996Z</time>
</trkpt>
<trkpt lat="42.5974800" lon="1.3231130">
<ele>1306.525146</ele>
<time>2013-09-29T22:00:00.996Z</time>
</trkpt>
<trkpt lat="42.5975340" lon="1.3231240">
<ele>1307.409058</ele>
<time>2013-09-29T22:00:00.996Z</time>
</trkpt>
<trkpt lat="42.5976200" lon="1.3231340">
<ele>1308.140625</ele>
<time>2013-09-29T22:00:00.996Z</time>
</trkpt>
<trkpt lat="42.5978490" lon="1.3231460">
<ele>1308.384521</ele>
<time>2013-09-29T22:00:00.996Z</time>
</trkpt>
<trkpt lat="42.5979400" lon="1.3231620">
<ele>1310.578979</ele>
<time>2013-09-29T22:00:00.996Z</time>
</trkpt>
<trkpt lat="42.5980120" lon="1.3231720">
<ele>1311.036133</ele>
<time>2013-09-29T22:00:00.996Z</time>
</trkpt>
<trkpt lat="42.5980660" lon="1.3231710">
<ele>1311.188599</ele>
<time>2013-09-29T22:00:00.996Z</time>
</trkpt>
<trkpt lat="42.5981290" lon="1.3231630">
<ele>1311.676270</ele>
<time>2013-09-29T22:00:00.996Z</time>
</trkpt>
<trkpt lat="42.5981910" lon="1.3231370">
<ele>1311.615479</ele>
<time>2013-09-29T22:00:00.996Z</time>
</trkpt>
<trkpt lat="42.5982540" lon="1.3230920">
<ele>1311.005859</ele>
<time>2013-09-29T22:00:00.996Z</time>
</trkpt>
<trkpt lat="42.5983070" lon="1.3230300">
<ele>1309.725586</ele>
<time>2013-09-29T22:00:00.996Z</time>
</trkpt>
<trkpt lat="42.5983950" lon="1.3229180">
<ele>1309.695068</ele>
<time>2013-09-29T22:00:00.996Z</time>
</trkpt>
<trkpt lat="42.5984700" lon="1.3228180">
<ele>1308.049194</ele>
<time>2013-09-29T22:00:00.996Z</time>
</trkpt>
<trkpt lat="42.5985590" lon="1.3227250">
<ele>1308.140625</ele>
<time>2013-09-29T22:00:00.996Z</time>
</trkpt>
<trkpt lat="42.5987330" lon="1.3225800">
<ele>1309.390259</ele>
<time>2013-09-29T22:00:00.996Z</time>
</trkpt>
<trkpt lat="42.5987860" lon="1.3225420">
<ele>1309.603760</ele>
<time>2013-09-29T22:00:00.996Z</time>
</trkpt>
<trkpt lat="42.5988440" lon="1.3225040">
<ele>1309.969360</ele>
<time>2013-09-29T22:00:00.996Z</time>
</trkpt>
<trkpt lat="42.5989110" lon="1.3224710">
<ele>1310.030396</ele>
<time>2013-09-29T22:00:00.996Z</time>
</trkpt>
<trkpt lat="42.5989740" lon="1.3224510">
<ele>1310.030396</ele>
<time>2013-09-29T22:00:00.996Z</time>
</trkpt>
<trkpt lat="42.5990370" lon="1.3224380">
<ele>1310.121826</ele>
<time>2013-09-29T22:00:00.996Z</time>
</trkpt>
<trkpt lat="42.5991810" lon="1.3224220">
<ele>1311.158203</ele>
<time>2013-09-29T22:00:00.996Z</time>
</trkpt>
<trkpt lat="42.5993240" lon="1.3224050">
<ele>1312.194458</ele>
<time>2013-09-29T22:00:00.996Z</time>
</trkpt>
<trkpt lat="42.5994230" lon="1.3223970">
<ele>1312.163940</ele>
<time>2013-09-29T22:00:00.996Z</time>
</trkpt>
<trkpt lat="42.5994860" lon="1.3224010">
<ele>1311.950562</ele>
<time>2013-09-29T22:00:00.996Z</time>
</trkpt>
<trkpt lat="42.5995860" lon="1.3224230">
<ele>1311.737305</ele>
<time>2013-09-29T22:00:00.996Z</time>
</trkpt>
<trkpt lat="42.5997030" lon="1.3224560">
<ele>1313.230835</ele>
<time>2013-09-29T22:00:00.996Z</time>
</trkpt>
<trkpt lat="42.5998800" lon="1.3225370">
<ele>1314.175659</ele>
<time>2013-09-29T22:00:00.996Z</time>
</trkpt>
<trkpt lat="42.5999610" lon="1.3225590">
<ele>1314.724243</ele>
<time>2013-09-29T22:00:00.996Z</time>
</trkpt>
<trkpt lat="42.6000110" lon="1.3225700">
<ele>1314.968262</ele>
<time>2013-09-29T22:00:00.996Z</time>
</trkpt>
<trkpt lat="42.6000560" lon="1.3225560">
<ele>1315.333862</ele>
<time>2013-09-29T22:00:00.996Z</time>
</trkpt>
<trkpt lat="42.6001100" lon="1.3225310">
<ele>1315.425415</ele>
<time>2013-09-29T22:00:00.996Z</time>
</trkpt>
<trkpt lat="42.6002070" lon="1.3224490">
<ele>1315.364380</ele>
<time>2013-09-29T22:00:00.996Z</time>
</trkpt>
<trkpt lat="42.6002880" lon="1.3223920">
<ele>1315.181519</ele>
<time>2013-09-29T22:00:00.996Z</time>
</trkpt>
<trkpt lat="42.6003370" lon="1.3223600">
<ele>1315.151001</ele>
<time>2013-09-29T22:00:00.996Z</time>
</trkpt>
<trkpt lat="42.6003950" lon="1.3223400">
<ele>1315.151001</ele>
<time>2013-09-29T22:00:00.996Z</time>
</trkpt>
<trkpt lat="42.6004890" lon="1.3223250">
<ele>1315.303345</ele>
<time>2013-09-29T22:00:00.996Z</time>
</trkpt>
<trkpt lat="42.6005570" lon="1.3223110">
<ele>1315.333862</ele>
<time>2013-09-29T22:00:00.996Z</time>
</trkpt>
<trkpt lat="42.6006100" lon="1.3222920">
<ele>1315.364380</ele>
<time>2013-09-29T22:00:00.996Z</time>
</trkpt>
<trkpt lat="42.6008610" lon="1.3221870">
<ele>1316.979736</ele>
<time>2013-09-29T22:00:00.996Z</time>
</trkpt>
<trkpt lat="42.6009500" lon="1.3221490">
<ele>1316.614136</ele>
<time>2013-09-29T22:00:00.996Z</time>
</trkpt>
<trkpt lat="42.6009860" lon="1.3221290">
<ele>1316.492188</ele>
<time>2013-09-29T22:00:00.996Z</time>
</trkpt>
<trkpt lat="42.6010440" lon="1.3221090">
<ele>1316.979736</ele>
<time>2013-09-29T22:00:00.996Z</time>
</trkpt>
<trkpt lat="42.6011030" lon="1.3221020">
<ele>1317.802856</ele>
<time>2013-09-29T22:00:00.996Z</time>
</trkpt>
<trkpt lat="42.6011750" lon="1.3220940">
<ele>1318.381836</ele>
<time>2013-09-29T22:00:00.996Z</time>
</trkpt>
<trkpt lat="42.6015440" lon="1.3221020">
<ele>1319.113403</ele>
<time>2013-09-29T22:00:00.996Z</time>
</trkpt>
<trkpt lat="42.6016470" lon="1.3220870">
<ele>1319.692627</ele>
<time>2013-09-29T22:00:00.996Z</time>
</trkpt>
<trkpt lat="42.6017100" lon="1.3220730">
<ele>1319.875366</ele>
<time>2013-09-29T22:00:00.996Z</time>
</trkpt>
<trkpt lat="42.6017600" lon="1.3220600">
<ele>1319.936401</ele>
<time>2013-09-29T22:00:00.996Z</time>
</trkpt>
<trkpt lat="42.6018220" lon="1.3220340">
<ele>1319.784058</ele>
<time>2013-09-29T22:00:00.996Z</time>
</trkpt>
<trkpt lat="42.6019210" lon="1.3219820">
<ele>1319.174438</ele>
<time>2013-09-29T22:00:00.996Z</time>
</trkpt>
<trkpt lat="42.6020640" lon="1.3219170">
<ele>1319.631592</ele>
<time>2013-09-29T22:00:00.996Z</time>
</trkpt>
<trkpt lat="42.6021260" lon="1.3218910">
<ele>1319.631592</ele>
<time>2013-09-29T22:00:00.996Z</time>
</trkpt>
<trkpt lat="42.6021940" lon="1.3218770">
<ele>1319.296265</ele>
<time>2013-09-29T22:00:00.996Z</time>
</trkpt>
<trkpt lat="42.6022250" lon="1.3218770">
<ele>1319.204956</ele>
<time>2013-09-29T22:00:00.996Z</time>
</trkpt>
<trkpt lat="42.6022880" lon="1.3218810">
<ele>1319.113403</ele>
<time>2013-09-29T22:00:00.996Z</time>
</trkpt>
<trkpt lat="42.6023610" lon="1.3218970">
<ele>1319.814453</ele>
<time>2013-09-29T22:00:00.996Z</time>
</trkpt>
<trkpt lat="42.6025820" lon="1.3219280">
<ele>1322.100464</ele>
<time>2013-09-29T22:00:00.996Z</time>
</trkpt>
<trkpt lat="42.6026950" lon="1.3219620">
<ele>1321.673828</ele>
<time>2013-09-29T22:00:00.996Z</time>
</trkpt>
<trkpt lat="42.6027990" lon="1.3219950">
<ele>1321.765259</ele>
<time>2013-09-29T22:00:00.996Z</time>
</trkpt>
<trkpt lat="42.6028670" lon="1.3220180">
<ele>1322.466187</ele>
<time>2013-09-29T22:00:00.996Z</time>
</trkpt>
<trkpt lat="42.6029570" lon="1.3220700">
<ele>1322.923340</ele>
<time>2013-09-29T22:00:00.996Z</time>
</trkpt>
<trkpt lat="42.6030760" lon="1.3221520">
<ele>1323.350220</ele>
<time>2013-09-29T22:00:00.996Z</time>
</trkpt>
<trkpt lat="42.6032130" lon="1.3222770">
<ele>1324.081665</ele>
<time>2013-09-29T22:00:00.996Z</time>
</trkpt>
<trkpt lat="42.6032990" lon="1.3223660">
<ele>1324.721802</ele>
<time>2013-09-29T22:00:00.996Z</time>
</trkpt>
<trkpt lat="42.6033680" lon="1.3224550">
<ele>1325.361816</ele>
<time>2013-09-29T22:00:00.996Z</time>
</trkpt>
<trkpt lat="42.6035520" lon="1.3227060">
<ele>1326.824951</ele>
<time>2013-09-29T22:00:00.996Z</time>
</trkpt>
<trkpt lat="42.6037350" lon="1.3229210">
<ele>1327.891724</ele>
<time>2013-09-29T22:00:00.996Z</time>
</trkpt>
<trkpt lat="42.6039590" lon="1.3231470">
<ele>1328.592651</ele>
<time>2013-09-29T22:00:00.996Z</time>
</trkpt>
<trkpt lat="42.6040140" lon="1.3232060">
<ele>1329.263306</ele>
<time>2013-09-29T22:00:00.996Z</time>
</trkpt>
<trkpt lat="42.6040780" lon="1.3232530">
<ele>1330.116699</ele>
<time>2013-09-29T22:00:00.996Z</time>
</trkpt>
<trkpt lat="42.6041500" lon="1.3232880">
<ele>1330.482544</ele>
<time>2013-09-29T22:00:00.996Z</time>
</trkpt>
<trkpt lat="42.6042360" lon="1.3233100">
<ele>1330.086182</ele>
<time>2013-09-29T22:00:00.996Z</time>
</trkpt>
<trkpt lat="42.6043310" lon="1.3233190">
<ele>1330.482544</ele>
<time>2013-09-29T22:00:00.996Z</time>
</trkpt>
<trkpt lat="42.6044970" lon="1.3233030">
<ele>1331.366455</ele>
<time>2013-09-29T22:00:00.996Z</time>
</trkpt>
<trkpt lat="42.6046770" lon="1.3232800">
<ele>1331.762573</ele>
<time>2013-09-29T22:00:00.996Z</time>
</trkpt>
<trkpt lat="42.6048790" lon="1.3232440">
<ele>1332.859863</ele>
<time>2013-09-29T22:00:00.996Z</time>
</trkpt>
<trkpt lat="42.6050720" lon="1.3232140">
<ele>1333.896240</ele>
<time>2013-09-29T22:00:00.996Z</time>
</trkpt>
<trkpt lat="42.6051350" lon="1.3231940">
<ele>1334.383911</ele>
<time>2013-09-29T22:00:00.996Z</time>
</trkpt>
<trkpt lat="42.6052020" lon="1.3231740">
<ele>1334.902100</ele>
<time>2013-09-29T22:00:00.996Z</time>
</trkpt>
<trkpt lat="42.6052560" lon="1.3231480">
<ele>1334.658203</ele>
<time>2013-09-29T22:00:00.996Z</time>
</trkpt>
<trkpt lat="42.6053050" lon="1.3231100">
<ele>1334.322998</ele>
<time>2013-09-29T22:00:00.996Z</time>
</trkpt>
<trkpt lat="42.6053360" lon="1.3230730">
<ele>1334.566772</ele>
<time>2013-09-29T22:00:00.996Z</time>
</trkpt>
<trkpt lat="42.6053710" lon="1.3230230">
<ele>1335.237427</ele>
<time>2013-09-29T22:00:00.996Z</time>
</trkpt>
<trkpt lat="42.6053970" lon="1.3229620">
<ele>1335.847046</ele>
<time>2013-09-29T22:00:00.996Z</time>
</trkpt>
<trkpt lat="42.6054100" lon="1.3229000">
<ele>1335.938354</ele>
<time>2013-09-29T22:00:00.996Z</time>
</trkpt>
<trkpt lat="42.6054220" lon="1.3228150">
<ele>1336.090820</ele>
<time>2013-09-29T22:00:00.996Z</time>
</trkpt>
<trkpt lat="42.6054340" lon="1.3227050">
<ele>1336.761475</ele>
<time>2013-09-29T22:00:00.996Z</time>
</trkpt>
<trkpt lat="42.6054410" lon="1.3225700">
<ele>1337.736694</ele>
<time>2013-09-29T22:00:00.996Z</time>
</trkpt>
<trkpt lat="42.6054470" lon="1.3223690">
<ele>1338.620605</ele>
<time>2013-09-29T22:00:00.996Z</time>
</trkpt>
<trkpt lat="42.6054490" lon="1.3221860">
<ele>1339.504639</ele>
<time>2013-09-29T22:00:00.996Z</time>
</trkpt>
<trkpt lat="42.6054630" lon="1.3219240">
<ele>1340.754150</ele>
<time>2013-09-29T22:00:00.996Z</time>
</trkpt>
<trkpt lat="42.6054750" lon="1.3218020">
<ele>1341.150513</ele>
<time>2013-09-29T22:00:00.996Z</time>
</trkpt>
<trkpt lat="42.6054910" lon="1.3216730">
<ele>1341.394287</ele>
<time>2013-09-29T22:00:00.996Z</time>
</trkpt>
<trkpt lat="42.6055260" lon="1.3213000">
<ele>1342.400269</ele>
<time>2013-09-29T22:00:00.996Z</time>
</trkpt>
<trkpt lat="42.6055420" lon="1.3211600">
<ele>1344.137451</ele>
<time>2013-09-29T22:00:00.996Z</time>
</trkpt>
<trkpt lat="42.6055530" lon="1.3210070">
<ele>1344.259399</ele>
<time>2013-09-29T22:00:00.996Z</time>
</trkpt>
<trkpt lat="42.6055520" lon="1.3209340">
<ele>1344.320435</ele>
<time>2013-09-29T22:00:00.996Z</time>
</trkpt>
<trkpt lat="42.6055510" lon="1.3208550">
<ele>1344.838623</ele>
<time>2013-09-29T22:00:00.996Z</time>
</trkpt>
<trkpt lat="42.6055500" lon="1.3207820">
<ele>1345.478638</ele>
<time>2013-09-29T22:00:00.996Z</time>
</trkpt>
<trkpt lat="42.6055540" lon="1.3207390">
<ele>1345.539551</ele>
<time>2013-09-29T22:00:00.996Z</time>
</trkpt>
<trkpt lat="42.6055620" lon="1.3206840">
<ele>1345.448242</ele>
<time>2013-09-29T22:00:00.996Z</time>
</trkpt>
<trkpt lat="42.6055700" lon="1.3206410">
<ele>1345.509033</ele>
<time>2013-09-29T22:00:00.996Z</time>
</trkpt>
<trkpt lat="42.6055880" lon="1.3205920">
<ele>1345.783325</ele>
<time>2013-09-29T22:00:00.996Z</time>
</trkpt>
<trkpt lat="42.6056180" lon="1.3205180">
<ele>1346.027344</ele>
<time>2013-09-29T22:00:00.996Z</time>
</trkpt>
<trkpt lat="42.6056880" lon="1.3203880">
<ele>1346.789307</ele>
<time>2013-09-29T22:00:00.996Z</time>
</trkpt>
<trkpt lat="42.6057190" lon="1.3203320">
<ele>1347.215942</ele>
<time>2013-09-29T22:00:00.996Z</time>
</trkpt>
<trkpt lat="42.6057540" lon="1.3202700">
<ele>1347.734253</ele>
<time>2013-09-29T22:00:00.996Z</time>
</trkpt>
<trkpt lat="42.6059130" lon="1.3200590">
<ele>1349.410645</ele>
<time>2013-09-29T22:00:00.996Z</time>
</trkpt>
<trkpt lat="42.6060280" lon="1.3199090">
<ele>1348.983765</ele>
<time>2013-09-29T22:00:00.996Z</time>
</trkpt>
<trkpt lat="42.6061120" lon="1.3198100">
<ele>1351.848999</ele>
<time>2013-09-29T22:00:00.996Z</time>
</trkpt>
<trkpt lat="42.6061870" lon="1.3197220">
<ele>1352.915771</ele>
<time>2013-09-29T22:00:00.996Z</time>
</trkpt>
<trkpt lat="42.6064050" lon="1.3195210">
<ele>1355.902832</ele>
<time>2013-09-29T22:00:00.996Z</time>
</trkpt>
<trkpt lat="42.6064850" lon="1.3194580">
<ele>1356.664795</ele>
<time>2013-09-29T22:00:00.996Z</time>
</trkpt>
<trkpt lat="42.6065650" lon="1.3194070">
<ele>1356.512451</ele>
<time>2013-09-29T22:00:00.996Z</time>
</trkpt>
<trkpt lat="42.6066100" lon="1.3193820">
<ele>1356.451416</ele>
<time>2013-09-29T22:00:00.996Z</time>
</trkpt>
<trkpt lat="42.6066460" lon="1.3193690">
<ele>1356.542969</ele>
<time>2013-09-29T22:00:00.996Z</time>
</trkpt>
<trkpt lat="42.6066910" lon="1.3193550">
<ele>1356.847656</ele>
<time>2013-09-29T22:00:00.996Z</time>
</trkpt>
<trkpt lat="42.6067440" lon="1.3193480">
<ele>1357.579224</ele>
<time>2013-09-29T22:00:00.996Z</time>
</trkpt>
<trkpt lat="42.6068260" lon="1.3193580">
<ele>1358.097412</ele>
<time>2013-09-29T22:00:00.996Z</time>
</trkpt>
<trkpt lat="42.6068980" lon="1.3193740">
<ele>1358.584961</ele>
<time>2013-09-29T22:00:00.996Z</time>
</trkpt>
<trkpt lat="42.6069750" lon="1.3194020">
<ele>1359.621460</ele>
<time>2013-09-29T22:00:00.996Z</time>
</trkpt>
<trkpt lat="42.6070970" lon="1.3194660">
<ele>1362.212280</ele>
<time>2013-09-29T22:00:00.996Z</time>
</trkpt>
<trkpt lat="42.6072700" lon="1.3195590">
<ele>1364.650635</ele>
<time>2013-09-29T22:00:00.996Z</time>
</trkpt>
<trkpt lat="42.6073510" lon="1.3195930">
<ele>1366.052612</ele>
<time>2013-09-29T22:00:00.996Z</time>
</trkpt>
<trkpt lat="42.6074510" lon="1.3196150">
<ele>1366.540283</ele>
<time>2013-09-29T22:00:00.996Z</time>
</trkpt>
<trkpt lat="42.6075910" lon="1.3196300">
<ele>1366.875610</ele>
<time>2013-09-29T22:00:00.996Z</time>
</trkpt>
<trkpt lat="42.6077030" lon="1.3196270">
<ele>1367.820557</ele>
<time>2013-09-29T22:00:00.996Z</time>
</trkpt>
<trkpt lat="42.6078470" lon="1.3196110">
<ele>1368.125366</ele>
<time>2013-09-29T22:00:00.996Z</time>
</trkpt>
<trkpt lat="42.6079280" lon="1.3196080">
<ele>1369.618774</ele>
<time>2013-09-29T22:00:00.996Z</time>
</trkpt>
<trkpt lat="42.6080090" lon="1.3196060">
<ele>1370.289429</ele>
<time>2013-09-29T22:00:00.996Z</time>
</trkpt>
<trkpt lat="42.6080630" lon="1.3195930">
<ele>1370.106567</ele>
<time>2013-09-29T22:00:00.996Z</time>
</trkpt>
<trkpt lat="42.6081210" lon="1.3195670">
<ele>1369.618774</ele>
<time>2013-09-29T22:00:00.996Z</time>
</trkpt>
<trkpt lat="42.6082370" lon="1.3194720">
<ele>1369.344482</ele>
<time>2013-09-29T22:00:00.996Z</time>
</trkpt>
<trkpt lat="42.6082810" lon="1.3194220">
<ele>1369.405396</ele>
<time>2013-09-29T22:00:00.996Z</time>
</trkpt>
<trkpt lat="42.6083210" lon="1.3193720">
<ele>1369.893066</ele>
<time>2013-09-29T22:00:00.996Z</time>
</trkpt>
<trkpt lat="42.6083380" lon="1.3193230">
<ele>1370.899048</ele>
<time>2013-09-29T22:00:00.996Z</time>
</trkpt>
<trkpt lat="42.6083550" lon="1.3192620">
<ele>1371.721924</ele>
<time>2013-09-29T22:00:00.996Z</time>
</trkpt>
<trkpt lat="42.6083680" lon="1.3191940">
<ele>1371.996216</ele>
<time>2013-09-29T22:00:00.996Z</time>
</trkpt>
<trkpt lat="42.6083890" lon="1.3191270">
<ele>1371.264648</ele>
<time>2013-09-29T22:00:00.996Z</time>
</trkpt>
<trkpt lat="42.6084150" lon="1.3190710">
<ele>1371.142822</ele>
<time>2013-09-29T22:00:00.996Z</time>
</trkpt>
<trkpt lat="42.6084510" lon="1.3190210">
<ele>1371.356201</ele>
<time>2013-09-29T22:00:00.996Z</time>
</trkpt>
<trkpt lat="42.6085220" lon="1.3189520">
<ele>1371.478149</ele>
<time>2013-09-29T22:00:00.996Z</time>
</trkpt>
<trkpt lat="42.6087270" lon="1.3188190">
<ele>1376.994995</ele>
<time>2013-09-29T22:00:00.996Z</time>
</trkpt>
<trkpt lat="42.6087890" lon="1.3187930">
<ele>1378.488525</ele>
<time>2013-09-29T22:00:00.996Z</time>
</trkpt>
<trkpt lat="42.6088300" lon="1.3187800">
<ele>1379.463745</ele>
<time>2013-09-29T22:00:00.996Z</time>
</trkpt>
<trkpt lat="42.6088840" lon="1.3187840">
<ele>1380.378174</ele>
<time>2013-09-29T22:00:00.996Z</time>
</trkpt>
<trkpt lat="42.6089430" lon="1.3188070">
<ele>1380.744019</ele>
<time>2013-09-29T22:00:00.996Z</time>
</trkpt>
<trkpt lat="42.6089970" lon="1.3188420">
<ele>1379.616211</ele>
<time>2013-09-29T22:00:00.996Z</time>
</trkpt>
<trkpt lat="42.6090880" lon="1.3189010">
<ele>1379.921021</ele>
<time>2013-09-29T22:00:00.996Z</time>
</trkpt>
<trkpt lat="42.6091520" lon="1.3189480">
<ele>1381.567017</ele>
<time>2013-09-29T22:00:00.996Z</time>
</trkpt>
<trkpt lat="42.6092150" lon="1.3189830">
<ele>1383.273804</ele>
<time>2013-09-29T22:00:00.996Z</time>
</trkpt>
<trkpt lat="42.6092560" lon="1.3190000">
<ele>1383.609131</ele>
<time>2013-09-29T22:00:00.996Z</time>
</trkpt>
<trkpt lat="42.6093780" lon="1.3190390">
<ele>1385.072266</ele>
<time>2013-09-29T22:00:00.996Z</time>
</trkpt>
<trkpt lat="42.6095680" lon="1.3190950">
<ele>1386.596191</ele>
<time>2013-09-29T22:00:00.996Z</time>
</trkpt>
<trkpt lat="42.6096320" lon="1.3191180">
<ele>1386.718140</ele>
<time>2013-09-29T22:00:00.996Z</time>
</trkpt>
<trkpt lat="42.6096860" lon="1.3191410">
<ele>1386.839966</ele>
<time>2013-09-29T22:00:00.996Z</time>
</trkpt>
<trkpt lat="42.6097270" lon="1.3191640">
<ele>1387.175293</ele>
<time>2013-09-29T22:00:00.996Z</time>
</trkpt>
<trkpt lat="42.6097630" lon="1.3191930">
<ele>1387.388550</ele>
<time>2013-09-29T22:00:00.996Z</time>
</trkpt>
<trkpt lat="42.6097950" lon="1.3192350">
<ele>1387.022949</ele>
<time>2013-09-29T22:00:00.996Z</time>
</trkpt>
<trkpt lat="42.6098230" lon="1.3192830">
<ele>1387.266724</ele>
<time>2013-09-29T22:00:00.996Z</time>
</trkpt>
<trkpt lat="42.6098510" lon="1.3193310">
<ele>1388.059204</ele>
<time>2013-09-29T22:00:00.996Z</time>
</trkpt>
<trkpt lat="42.6098970" lon="1.3194030">
<ele>1389.278442</ele>
<time>2013-09-29T22:00:00.996Z</time>
</trkpt>
<trkpt lat="42.6099520" lon="1.3194750">
<ele>1390.497559</ele>
<time>2013-09-29T22:00:00.996Z</time>
</trkpt>
<trkpt lat="42.6100300" lon="1.3195580">
<ele>1391.411987</ele>
<time>2013-09-29T22:00:00.996Z</time>
</trkpt>
<trkpt lat="42.6100660" lon="1.3195940">
<ele>1391.411987</ele>
<time>2013-09-29T22:00:00.996Z</time>
</trkpt>
<trkpt lat="42.6101260" lon="1.3196410">
<ele>1391.838745</ele>
<time>2013-09-29T22:00:00.996Z</time>
</trkpt>
<trkpt lat="42.6101890" lon="1.3196820">
<ele>1392.905518</ele>
<time>2013-09-29T22:00:00.996Z</time>
</trkpt>
<trkpt lat="42.6102300" lon="1.3196990">
<ele>1393.332153</ele>
<time>2013-09-29T22:00:00.996Z</time>
</trkpt>
<trkpt lat="42.6102660" lon="1.3197100">
<ele>1393.240845</ele>
<time>2013-09-29T22:00:00.996Z</time>
</trkpt>
<trkpt lat="42.6103110" lon="1.3197150">
<ele>1393.027344</ele>
<time>2013-09-29T22:00:00.996Z</time>
</trkpt>
<trkpt lat="42.6104190" lon="1.3196940">
<ele>1392.387451</ele>
<time>2013-09-29T22:00:00.996Z</time>
</trkpt>
<trkpt lat="42.6106030" lon="1.3196640">
<ele>1391.381470</ele>
<time>2013-09-29T22:00:00.996Z</time>
</trkpt>
<trkpt lat="42.6106750" lon="1.3196630">
<ele>1390.832886</ele>
<time>2013-09-29T22:00:00.996Z</time>
</trkpt>
<trkpt lat="42.6107290" lon="1.3196730">
<ele>1390.802368</ele>
<time>2013-09-29T22:00:00.996Z</time>
</trkpt>
<trkpt lat="42.6107880" lon="1.3197020">
<ele>1390.680542</ele>
<time>2013-09-29T22:00:00.996Z</time>
</trkpt>
<trkpt lat="42.6113290" lon="1.3200720">
<ele>1390.954834</ele>
<time>2013-09-29T22:00:00.996Z</time>
</trkpt>
<trkpt lat="42.6113700" lon="1.3200950">
<ele>1391.290161</ele>
<time>2013-09-29T22:00:00.996Z</time>
</trkpt>
<trkpt lat="42.6114160" lon="1.3201180">
<ele>1391.259644</ele>
<time>2013-09-29T22:00:00.996Z</time>
</trkpt>
<trkpt lat="42.6114700" lon="1.3201410">
<ele>1390.802368</ele>
<time>2013-09-29T22:00:00.996Z</time>
</trkpt>
<trkpt lat="42.6115380" lon="1.3201570">
<ele>1390.741333</ele>
<time>2013-09-29T22:00:00.996Z</time>
</trkpt>
<trkpt lat="42.6116140" lon="1.3201620">
<ele>1391.473022</ele>
<time>2013-09-29T22:00:00.996Z</time>
</trkpt>
<trkpt lat="42.6117360" lon="1.3201700">
<ele>1391.777832</ele>
<time>2013-09-29T22:00:00.996Z</time>
</trkpt>
<trkpt lat="42.6118260" lon="1.3201680">
<ele>1392.082642</ele>
<time>2013-09-29T22:00:00.996Z</time>
</trkpt>
<trkpt lat="42.6119250" lon="1.3201650">
<ele>1392.570190</ele>
<time>2013-09-29T22:00:00.996Z</time>
</trkpt>
<trkpt lat="42.6120330" lon="1.3201560">
<ele>1392.997070</ele>
<time>2013-09-29T22:00:00.996Z</time>
</trkpt>
<trkpt lat="42.6121820" lon="1.3201710">
<ele>1393.271362</ele>
<time>2013-09-29T22:00:00.996Z</time>
</trkpt>
<trkpt lat="42.6122860" lon="1.3201920">
<ele>1392.600708</ele>
<time>2013-09-29T22:00:00.996Z</time>
</trkpt>
<trkpt lat="42.6123400" lon="1.3202030">
<ele>1392.509277</ele>
<time>2013-09-29T22:00:00.996Z</time>
</trkpt>
<trkpt lat="42.6123900" lon="1.3202200">
<ele>1392.173950</ele>
<time>2013-09-29T22:00:00.996Z</time>
</trkpt>
<trkpt lat="42.6124400" lon="1.3202430">
<ele>1391.930176</ele>
<time>2013-09-29T22:00:00.996Z</time>
</trkpt>
<trkpt lat="42.6124850" lon="1.3202720">
<ele>1391.808228</ele>
<time>2013-09-29T22:00:00.996Z</time>
</trkpt>
<trkpt lat="42.6125670" lon="1.3203310">
<ele>1392.661743</ele>
<time>2013-09-29T22:00:00.996Z</time>
</trkpt>
<trkpt lat="42.6126670" lon="1.3204200">
<ele>1392.387451</ele>
<time>2013-09-29T22:00:00.996Z</time>
</trkpt>
<trkpt lat="42.6128140" lon="1.3205740">
<ele>1392.448242</ele>
<time>2013-09-29T22:00:00.996Z</time>
</trkpt>
<trkpt lat="42.6128870" lon="1.3206520">
<ele>1394.398926</ele>
<time>2013-09-29T22:00:00.996Z</time>
</trkpt>
<trkpt lat="42.6130420" lon="1.3208240">
<ele>1395.100098</ele>
<time>2013-09-29T22:00:00.996Z</time>
</trkpt>
<trkpt lat="42.6131980" lon="1.3209780">
<ele>1396.014526</ele>
<time>2013-09-29T22:00:00.996Z</time>
</trkpt>
<trkpt lat="42.6132570" lon="1.3210440">
<ele>1396.776489</ele>
<time>2013-09-29T22:00:00.996Z</time>
</trkpt>
<trkpt lat="42.6133080" lon="1.3211040">
<ele>1397.020264</ele>
<time>2013-09-29T22:00:00.996Z</time>
</trkpt>
<trkpt lat="42.6133260" lon="1.3211270">
<ele>1396.837402</ele>
<time>2013-09-29T22:00:00.996Z</time>
</trkpt>
<trkpt lat="42.6133400" lon="1.3211510">
<ele>1396.532593</ele>
<time>2013-09-29T22:00:00.996Z</time>
</trkpt>
<trkpt lat="42.6133590" lon="1.3212060">
<ele>1396.166870</ele>
<time>2013-09-29T22:00:00.996Z</time>
</trkpt>
<trkpt lat="42.6133680" lon="1.3212420">
<ele>1396.197388</ele>
<time>2013-09-29T22:00:00.996Z</time>
</trkpt>
<trkpt lat="42.6133730" lon="1.3212790">
<ele>1396.380127</ele>
<time>2013-09-29T22:00:00.996Z</time>
</trkpt>
<trkpt lat="42.6133740" lon="1.3213090">
<ele>1396.563110</ele>
<time>2013-09-29T22:00:00.996Z</time>
</trkpt>
<trkpt lat="42.6133740" lon="1.3213390">
<ele>1396.745972</ele>
<time>2013-09-29T22:00:00.996Z</time>
</trkpt>
<trkpt lat="42.6133710" lon="1.3214190">
<ele>1397.325073</ele>
<time>2013-09-29T22:00:00.996Z</time>
</trkpt>
<trkpt lat="42.6133670" lon="1.3214680">
<ele>1397.690918</ele>
<time>2013-09-29T22:00:00.996Z</time>
</trkpt>
<trkpt lat="42.6133680" lon="1.3215350">
<ele>1397.782349</ele>
<time>2013-09-29T22:00:00.996Z</time>
</trkpt>
<trkpt lat="42.6133730" lon="1.3215830">
<ele>1397.751831</ele>
<time>2013-09-29T22:00:00.996Z</time>
</trkpt>
<trkpt lat="42.6133870" lon="1.3216320">
<ele>1398.087036</ele>
<time>2013-09-29T22:00:00.996Z</time>
</trkpt>
<trkpt lat="42.6134060" lon="1.3216740">
<ele>1398.727173</ele>
<time>2013-09-29T22:00:00.996Z</time>
</trkpt>
<trkpt lat="42.6134380" lon="1.3217160">
<ele>1399.458740</ele>
<time>2013-09-29T22:00:00.996Z</time>
</trkpt>
<trkpt lat="42.6134790" lon="1.3217570">
<ele>1400.007446</ele>
<time>2013-09-29T22:00:00.996Z</time>
</trkpt>
<trkpt lat="42.6135430" lon="1.3217920">
<ele>1400.403564</ele>
<time>2013-09-29T22:00:00.996Z</time>
</trkpt>
<trkpt lat="42.6136200" lon="1.3218390">
<ele>1400.830322</ele>
<time>2013-09-29T22:00:00.996Z</time>
</trkpt>
<trkpt lat="42.6137880" lon="1.3219320">
<ele>1402.659058</ele>
<time>2013-09-29T22:00:00.996Z</time>
</trkpt>
<trkpt lat="42.6139060" lon="1.3219770">
<ele>1403.238159</ele>
<time>2013-09-29T22:00:00.996Z</time>
</trkpt>
<trkpt lat="42.6140600" lon="1.3220280">
<ele>1405.006104</ele>
<time>2013-09-29T22:00:00.996Z</time>
</trkpt>
<trkpt lat="42.6144040" lon="1.3221650">
<ele>1408.054077</ele>
<time>2013-09-29T22:00:00.996Z</time>
</trkpt>
<trkpt lat="42.6144900" lon="1.3221930">
<ele>1408.389404</ele>
<time>2013-09-29T22:00:00.996Z</time>
</trkpt>
<trkpt lat="42.6145670" lon="1.3222280">
<ele>1408.237061</ele>
<time>2013-09-29T22:00:00.996Z</time>
</trkpt>
<trkpt lat="42.6146570" lon="1.3222320">
<ele>1408.297852</ele>
<time>2013-09-29T22:00:00.996Z</time>
</trkpt>
<trkpt lat="42.6147470" lon="1.3222110">
<ele>1409.730469</ele>
<time>2013-09-29T22:00:00.996Z</time>
</trkpt>
<trkpt lat="42.6148450" lon="1.3221840">
<ele>1410.827759</ele>
<time>2013-09-29T22:00:00.996Z</time>
</trkpt>
<trkpt lat="42.6149170" lon="1.3221580">
<ele>1410.492554</ele>
<time>2013-09-29T22:00:00.996Z</time>
</trkpt>
<trkpt lat="42.6149800" lon="1.3221380">
<ele>1410.431519</ele>
<time>2013-09-29T22:00:00.996Z</time>
</trkpt>
<trkpt lat="42.6150340" lon="1.3221300">
<ele>1410.614380</ele>
<time>2013-09-29T22:00:00.996Z</time>
</trkpt>
<trkpt lat="42.6151060" lon="1.3221280">
<ele>1411.162964</ele>
<time>2013-09-29T22:00:00.996Z</time>
</trkpt>
<trkpt lat="42.6152360" lon="1.3221370">
<ele>1411.620239</ele>
<time>2013-09-29T22:00:00.996Z</time>
</trkpt>
<trkpt lat="42.6154120" lon="1.3221440">
<ele>1411.071655</ele>
<time>2013-09-29T22:00:00.996Z</time>
</trkpt>
<trkpt lat="42.6155470" lon="1.3221530">
<ele>1411.772583</ele>
<time>2013-09-29T22:00:00.996Z</time>
</trkpt>
<trkpt lat="42.6159890" lon="1.3222080">
<ele>1412.534546</ele>
<time>2013-09-29T22:00:00.996Z</time>
</trkpt>
<trkpt lat="42.6160980" lon="1.3222230">
<ele>1412.839355</ele>
<time>2013-09-29T22:00:00.996Z</time>
</trkpt>
<trkpt lat="42.6162060" lon="1.3222570">
<ele>1413.448975</ele>
<time>2013-09-29T22:00:00.996Z</time>
</trkpt>
<trkpt lat="42.6162650" lon="1.3222800">
<ele>1414.271973</ele>
<time>2013-09-29T22:00:00.996Z</time>
</trkpt>
<trkpt lat="42.6163100" lon="1.3223090">
<ele>1415.704590</ele>
<time>2013-09-29T22:00:00.996Z</time>
</trkpt>
<trkpt lat="42.6163380" lon="1.3223390">
<ele>1417.045654</ele>
<time>2013-09-29T22:00:00.996Z</time>
</trkpt>
<trkpt lat="42.6163610" lon="1.3223810">
<ele>1418.813477</ele>
<time>2013-09-29T22:00:00.996Z</time>
</trkpt>
<trkpt lat="42.6163840" lon="1.3224230">
<ele>1420.977539</ele>
<time>2013-09-29T22:00:00.996Z</time>
</trkpt>
<trkpt lat="42.6164070" lon="1.3224590">
<ele>1423.172241</ele>
<time>2013-09-29T22:00:00.996Z</time>
</trkpt>
<trkpt lat="42.6164210" lon="1.3224770">
<ele>1424.360962</ele>
<time>2013-09-29T22:00:00.996Z</time>
</trkpt>
<trkpt lat="42.6164480" lon="1.3224940">
<ele>1425.427734</ele>
<time>2013-09-29T22:00:00.996Z</time>
</trkpt>
<trkpt lat="42.6164710" lon="1.3225000">
<ele>1425.580078</ele>
<time>2013-09-29T22:00:00.996Z</time>
</trkpt>
<trkpt lat="42.6165110" lon="1.3225110">
<ele>1425.915405</ele>
<time>2013-09-29T22:00:00.996Z</time>
</trkpt>
<trkpt lat="42.6165480" lon="1.3225220">
<ele>1426.402954</ele>
<time>2013-09-29T22:00:00.996Z</time>
</trkpt>
<trkpt lat="42.6165970" lon="1.3225390">
<ele>1427.286987</ele>
<time>2013-09-29T22:00:00.996Z</time>
</trkpt>
<trkpt lat="42.6166250" lon="1.3225510">
<ele>1427.896606</ele>
<time>2013-09-29T22:00:00.996Z</time>
</trkpt>
<trkpt lat="42.6166520" lon="1.3225680">
<ele>1428.719482</ele>
<time>2013-09-29T22:00:00.996Z</time>
</trkpt>
<trkpt lat="42.6166750" lon="1.3225860">
<ele>1429.481445</ele>
<time>2013-09-29T22:00:00.996Z</time>
</trkpt>
<trkpt lat="42.6166930" lon="1.3226100">
<ele>1430.365356</ele>
<time>2013-09-29T22:00:00.996Z</time>
</trkpt>
<trkpt lat="42.6167710" lon="1.3227110">
<ele>1433.962158</ele>
<time>2013-09-29T22:00:00.996Z</time>
</trkpt>
<trkpt lat="42.6168490" lon="1.3228010">
<ele>1437.131958</ele>
<time>2013-09-29T22:00:00.996Z</time>
</trkpt>
<trkpt lat="42.6169400" lon="1.3228900">
<ele>1440.820068</ele>
<time>2013-09-29T22:00:00.996Z</time>
</trkpt>
<trkpt lat="42.6170580" lon="1.3229600">
<ele>1443.502319</ele>
<time>2013-09-29T22:00:00.996Z</time>
</trkpt>
<trkpt lat="42.6171580" lon="1.3230240">
<ele>1444.660645</ele>
<time>2013-09-29T22:00:00.996Z</time>
</trkpt>
<trkpt lat="42.6172410" lon="1.3231190">
<ele>1445.666382</ele>
<time>2013-09-29T22:00:00.996Z</time>
</trkpt>
<trkpt lat="42.6172730" lon="1.3231920">
<ele>1446.489380</ele>
<time>2013-09-29T22:00:00.996Z</time>
</trkpt>
<trkpt lat="42.6173100" lon="1.3232390">
<ele>1446.702637</ele>
<time>2013-09-29T22:00:00.996Z</time>
</trkpt>
<trkpt lat="42.6173560" lon="1.3232750">
<ele>1446.611328</ele>
<time>2013-09-29T22:00:00.996Z</time>
</trkpt>
<trkpt lat="42.6174100" lon="1.3232920">
<ele>1446.458862</ele>
<time>2013-09-29T22:00:00.996Z</time>
</trkpt>
<trkpt lat="42.6175100" lon="1.3233440">
<ele>1446.276001</ele>
<time>2013-09-29T22:00:00.996Z</time>
</trkpt>
<trkpt lat="42.6176190" lon="1.3234380">
<ele>1446.550293</ele>
<time>2013-09-29T22:00:00.996Z</time>
</trkpt>
<trkpt lat="42.6177280" lon="1.3235210">
<ele>1445.483521</ele>
<time>2013-09-29T22:00:00.996Z</time>
</trkpt>
<trkpt lat="42.6178200" lon="1.3236100">
<ele>1442.222168</ele>
<time>2013-09-29T22:00:00.996Z</time>
</trkpt>
<trkpt lat="42.6178610" lon="1.3236640">
<ele>1440.850586</ele>
<time>2013-09-29T22:00:00.996Z</time>
</trkpt>
<trkpt lat="42.6178890" lon="1.3237300">
<ele>1441.277344</ele>
<time>2013-09-29T22:00:00.996Z</time>
</trkpt>
<trkpt lat="42.6179030" lon="1.3237900">
<ele>1442.923218</ele>
<time>2013-09-29T22:00:00.996Z</time>
</trkpt>
<trkpt lat="42.6179180" lon="1.3238630">
<ele>1445.392090</ele>
<time>2013-09-29T22:00:00.996Z</time>
</trkpt>
<trkpt lat="42.6179200" lon="1.3239910">
<ele>1450.360229</ele>
<time>2013-09-29T22:00:00.996Z</time>
</trkpt>
<trkpt lat="42.6179400" lon="1.3241490">
<ele>1455.084717</ele>
<time>2013-09-29T22:00:00.996Z</time>
</trkpt>
<trkpt lat="42.6179700" lon="1.3243190">
<ele>1459.778564</ele>
<time>2013-09-29T22:00:00.996Z</time>
</trkpt>
<trkpt lat="42.6180220" lon="1.3244820">
<ele>1464.137329</ele>
<time>2013-09-29T22:00:00.996Z</time>
</trkpt>
<trkpt lat="42.6180910" lon="1.3246330">
<ele>1466.240356</ele>
<time>2013-09-29T22:00:00.996Z</time>
</trkpt>
<trkpt lat="42.6181100" lon="1.3247050">
<ele>1467.916748</ele>
<time>2013-09-29T22:00:00.996Z</time>
</trkpt>
<trkpt lat="42.6181210" lon="1.3247910">
<ele>1470.050415</ele>
<time>2013-09-29T22:00:00.996Z</time>
</trkpt>
<trkpt lat="42.6181180" lon="1.3249490">
<ele>1476.451172</ele>
<time>2013-09-29T22:00:00.996Z</time>
</trkpt>
<trkpt lat="42.6181240" lon="1.3250340">
<ele>1479.133423</ele>
<time>2013-09-29T22:00:00.996Z</time>
</trkpt>
<trkpt lat="42.6181390" lon="1.3251190">
<ele>1480.444092</ele>
<time>2013-09-29T22:00:00.996Z</time>
</trkpt>
<trkpt lat="42.6181360" lon="1.3252110">
<ele>1482.425293</ele>
<time>2013-09-29T22:00:00.996Z</time>
</trkpt>
<trkpt lat="42.6181280" lon="1.3253080">
<ele>1484.254150</ele>
<time>2013-09-29T22:00:00.996Z</time>
</trkpt>
<trkpt lat="42.6181080" lon="1.3254920">
<ele>1488.795654</ele>
<time>2013-09-29T22:00:00.996Z</time>
</trkpt>
<trkpt lat="42.6181200" lon="1.3256810">
<ele>1489.496582</ele>
<time>2013-09-29T22:00:00.996Z</time>
</trkpt>
<trkpt lat="42.6181350" lon="1.3257410">
<ele>1488.582153</ele>
<time>2013-09-29T22:00:00.996Z</time>
</trkpt>
<trkpt lat="42.6181670" lon="1.3258130">
<ele>1486.600952</ele>
<time>2013-09-29T22:00:00.996Z</time>
</trkpt>
<trkpt lat="42.6182220" lon="1.3258730">
<ele>1482.821533</ele>
<time>2013-09-29T22:00:00.996Z</time>
</trkpt>
<trkpt lat="42.6182860" lon="1.3259320">
<ele>1478.341064</ele>
<time>2013-09-29T22:00:00.996Z</time>
</trkpt>
<trkpt lat="42.6183090" lon="1.3259740">
<ele>1477.670410</ele>
<time>2013-09-29T22:00:00.996Z</time>
</trkpt>
<trkpt lat="42.6183330" lon="1.3260770">
<ele>1478.980957</ele>
<time>2013-09-29T22:00:00.996Z</time>
</trkpt>
<trkpt lat="42.6183480" lon="1.3261680">
<ele>1480.474609</ele>
<time>2013-09-29T22:00:00.996Z</time>
</trkpt>
<trkpt lat="42.6183810" lon="1.3263020">
<ele>1481.389038</ele>
<time>2013-09-29T22:00:00.996Z</time>
</trkpt>
<trkpt lat="42.6183880" lon="1.3264540">
<ele>1482.760620</ele>
<time>2013-09-29T22:00:00.996Z</time>
</trkpt>
<trkpt lat="42.6183810" lon="1.3265880">
<ele>1484.314941</ele>
<time>2013-09-29T22:00:00.996Z</time>
</trkpt>
<trkpt lat="42.6183790" lon="1.3267410">
<ele>1488.978516</ele>
<time>2013-09-29T22:00:00.996Z</time>
</trkpt>
<trkpt lat="42.6183900" lon="1.3268930">
<ele>1492.940918</ele>
<time>2013-09-29T22:00:00.996Z</time>
</trkpt>
<trkpt lat="42.6184010" lon="1.3270330">
<ele>1494.739258</ele>
<time>2013-09-29T22:00:00.996Z</time>
</trkpt>
<trkpt lat="42.6184300" lon="1.3271600">
<ele>1496.232666</ele>
<time>2013-09-29T22:00:00.996Z</time>
</trkpt>
<trkpt lat="42.6184590" lon="1.3272810">
<ele>1497.939575</ele>
<time>2013-09-29T22:00:00.996Z</time>
</trkpt>
<trkpt lat="42.6185010" lon="1.3274140">
<ele>1500.103760</ele>
<time>2013-09-29T22:00:00.996Z</time>
</trkpt>
<trkpt lat="42.6185350" lon="1.3275470">
<ele>1502.938232</ele>
<time>2013-09-29T22:00:00.996Z</time>
</trkpt>
<trkpt lat="42.6185680" lon="1.3276680">
<ele>1504.096680</ele>
<time>2013-09-29T22:00:00.996Z</time>
</trkpt>
<trkpt lat="42.6185790" lon="1.3278200">
<ele>1507.083618</ele>
<time>2013-09-29T22:00:00.996Z</time>
</trkpt>
<trkpt lat="42.6186080" lon="1.3279720">
<ele>1510.863037</ele>
<time>2013-09-29T22:00:00.996Z</time>
</trkpt>
<trkpt lat="42.6186200" lon="1.3281240">
<ele>1514.551147</ele>
<time>2013-09-29T22:00:00.996Z</time>
</trkpt>
<trkpt lat="42.6186300" lon="1.3282030">
<ele>1516.105713</ele>
<time>2013-09-29T22:00:00.996Z</time>
</trkpt>
<trkpt lat="42.6186490" lon="1.3282820">
<ele>1517.020142</ele>
<time>2013-09-29T22:00:00.996Z</time>
</trkpt>
<trkpt lat="42.6186810" lon="1.3283360">
<ele>1516.654297</ele>
<time>2013-09-29T22:00:00.996Z</time>
</trkpt>
<trkpt lat="42.6187270" lon="1.3283710">
<ele>1516.166626</ele>
<time>2013-09-29T22:00:00.996Z</time>
</trkpt>
<trkpt lat="42.6187810" lon="1.3283880">
<ele>1516.105713</ele>
<time>2013-09-29T22:00:00.996Z</time>
</trkpt>
<trkpt lat="42.6188350" lon="1.3283870">
<ele>1515.526611</ele>
<time>2013-09-29T22:00:00.996Z</time>
</trkpt>
<trkpt lat="42.6189070" lon="1.3284150">
<ele>1515.221802</ele>
<time>2013-09-29T22:00:00.996Z</time>
</trkpt>
<trkpt lat="42.6189580" lon="1.3284690">
<ele>1515.648560</ele>
<time>2013-09-29T22:00:00.996Z</time>
</trkpt>
<trkpt lat="42.6190410" lon="1.3285880">
<ele>1516.837158</ele>
<time>2013-09-29T22:00:00.996Z</time>
</trkpt>
<trkpt lat="42.6190730" lon="1.3286550">
<ele>1518.239258</ele>
<time>2013-09-29T22:00:00.996Z</time>
</trkpt>
<trkpt lat="42.6191010" lon="1.3287210">
<ele>1520.281372</ele>
<time>2013-09-29T22:00:00.996Z</time>
</trkpt>
<trkpt lat="42.6191020" lon="1.3288180">
<ele>1523.664673</ele>
<time>2013-09-29T22:00:00.996Z</time>
</trkpt>
<trkpt lat="42.6190900" lon="1.3289100">
<ele>1525.219238</ele>
<time>2013-09-29T22:00:00.996Z</time>
</trkpt>
<trkpt lat="42.6190690" lon="1.3289840">
<ele>1525.798340</ele>
<time>2013-09-29T22:00:00.996Z</time>
</trkpt>
<trkpt lat="42.6190430" lon="1.3290450">
<ele>1526.560303</ele>
<time>2013-09-29T22:00:00.996Z</time>
</trkpt>
<trkpt lat="42.6190070" lon="1.3290770">
<ele>1527.169922</ele>
<time>2013-09-29T22:00:00.996Z</time>
</trkpt>
<trkpt lat="42.6189440" lon="1.3290970">
<ele>1528.236694</ele>
<time>2013-09-29T22:00:00.996Z</time>
</trkpt>
<trkpt lat="42.6188910" lon="1.3291230">
<ele>1529.791260</ele>
<time>2013-09-29T22:00:00.996Z</time>
</trkpt>
<trkpt lat="42.6188020" lon="1.3291980">
<ele>1533.052612</ele>
<time>2013-09-29T22:00:00.996Z</time>
</trkpt>
<trkpt lat="42.6187530" lon="1.3292420">
<ele>1534.729004</ele>
<time>2013-09-29T22:00:00.996Z</time>
</trkpt>
<trkpt lat="42.6187310" lon="1.3293040">
<ele>1535.978638</ele>
<time>2013-09-29T22:00:00.996Z</time>
</trkpt>
<trkpt lat="42.6187190" lon="1.3293770">
<ele>1537.350220</ele>
<time>2013-09-29T22:00:00.996Z</time>
</trkpt>
<trkpt lat="42.6187200" lon="1.3294630">
<ele>1538.478027</ele>
<time>2013-09-29T22:00:00.996Z</time>
</trkpt>
<trkpt lat="42.6187260" lon="1.3295420">
<ele>1539.605835</ele>
<time>2013-09-29T22:00:00.996Z</time>
</trkpt>
<trkpt lat="42.6187180" lon="1.3296210">
<ele>1541.708862</ele>
<time>2013-09-29T22:00:00.996Z</time>
</trkpt>
<trkpt lat="42.6186920" lon="1.3296770">
<ele>1543.659546</ele>
<time>2013-09-29T22:00:00.996Z</time>
</trkpt>
<trkpt lat="42.6186560" lon="1.3297140">
<ele>1545.336060</ele>
<time>2013-09-29T22:00:00.996Z</time>
</trkpt>
<trkpt lat="42.6186300" lon="1.3297390">
<ele>1546.341797</ele>
<time>2013-09-29T22:00:00.996Z</time>
</trkpt>
<trkpt lat="42.6185900" lon="1.3297710">
<ele>1547.621948</ele>
<time>2013-09-29T22:00:00.996Z</time>
</trkpt>
<trkpt lat="42.6185590" lon="1.3298080">
<ele>1549.054565</ele>
<time>2013-09-29T22:00:00.996Z</time>
</trkpt>
<trkpt lat="42.6185280" lon="1.3298520">
<ele>1551.035767</ele>
<time>2013-09-29T22:00:00.996Z</time>
</trkpt>
<trkpt lat="42.6185110" lon="1.3299190">
<ele>1553.535034</ele>
<time>2013-09-29T22:00:00.996Z</time>
</trkpt>
<trkpt lat="42.6185160" lon="1.3299800">
<ele>1555.241943</ele>
<time>2013-09-29T22:00:00.996Z</time>
</trkpt>
<trkpt lat="42.6185390" lon="1.3300400">
<ele>1555.851563</ele>
<time>2013-09-29T22:00:00.996Z</time>
</trkpt>
<trkpt lat="42.6185810" lon="1.3301130">
<ele>1555.363892</ele>
<time>2013-09-29T22:00:00.996Z</time>
</trkpt>
<trkpt lat="42.6186040" lon="1.3301730">
<ele>1555.363892</ele>
<time>2013-09-29T22:00:00.996Z</time>
</trkpt>
<trkpt lat="42.6186190" lon="1.3302330">
<ele>1555.760254</ele>
<time>2013-09-29T22:00:00.996Z</time>
</trkpt>
<trkpt lat="42.6186200" lon="1.3303000">
<ele>1556.918457</ele>
<time>2013-09-29T22:00:00.996Z</time>
</trkpt>
<trkpt lat="42.6186210" lon="1.3303800">
<ele>1558.015747</ele>
<time>2013-09-29T22:00:00.996Z</time>
</trkpt>
<trkpt lat="42.6186400" lon="1.3304340">
<ele>1558.747192</ele>
<time>2013-09-29T22:00:00.996Z</time>
</trkpt>
<trkpt lat="42.6186860" lon="1.3305060">
<ele>1560.636963</ele>
<time>2013-09-29T22:00:00.996Z</time>
</trkpt>
<trkpt lat="42.6187270" lon="1.3305660">
<ele>1561.795166</ele>
<time>2013-09-29T22:00:00.996Z</time>
</trkpt>
<trkpt lat="42.6187510" lon="1.3306380">
<ele>1562.983887</ele>
<time>2013-09-29T22:00:00.996Z</time>
</trkpt>
<trkpt lat="42.6187520" lon="1.3307050">
<ele>1564.264160</ele>
<time>2013-09-29T22:00:00.996Z</time>
</trkpt>
<trkpt lat="42.6187390" lon="1.3307790">
<ele>1565.635742</ele>
<time>2013-09-29T22:00:00.996Z</time>
</trkpt>
<trkpt lat="42.6187130" lon="1.3308340">
<ele>1567.159668</ele>
<time>2013-09-29T22:00:00.996Z</time>
</trkpt>
<trkpt lat="42.6186740" lon="1.3308960">
<ele>1569.049438</ele>
<time>2013-09-29T22:00:00.996Z</time>
</trkpt>
<trkpt lat="42.6186300" lon="1.3309710">
<ele>1571.274536</ele>
<time>2013-09-29T22:00:00.996Z</time>
</trkpt>
<trkpt lat="42.6186130" lon="1.3310510">
<ele>1573.468994</ele>
<time>2013-09-29T22:00:00.996Z</time>
</trkpt>
<trkpt lat="42.6186090" lon="1.3311240">
<ele>1574.932129</ele>
<time>2013-09-29T22:00:00.996Z</time>
</trkpt>
<trkpt lat="42.6186100" lon="1.3311910">
<ele>1575.968384</ele>
<time>2013-09-29T22:00:00.996Z</time>
</trkpt>
<trkpt lat="42.6186200" lon="1.3312640">
<ele>1576.456055</ele>
<time>2013-09-29T22:00:00.996Z</time>
</trkpt>
<trkpt lat="42.6186440" lon="1.3313240">
<ele>1576.029419</ele>
<time>2013-09-29T22:00:00.996Z</time>
</trkpt>
<trkpt lat="42.6186810" lon="1.3313840">
<ele>1575.968384</ele>
<time>2013-09-29T22:00:00.996Z</time>
</trkpt>
<trkpt lat="42.6187490" lon="1.3314740">
<ele>1577.278931</ele>
<time>2013-09-29T22:00:00.996Z</time>
</trkpt>
<trkpt lat="42.6188000" lon="1.3315390">
<ele>1577.858276</ele>
<time>2013-09-29T22:00:00.996Z</time>
</trkpt>
<trkpt lat="42.6188640" lon="1.3316110">
<ele>1578.345825</ele>
<time>2013-09-29T22:00:00.996Z</time>
</trkpt>
<trkpt lat="42.6189190" lon="1.3316820">
<ele>1579.016357</ele>
<time>2013-09-29T22:00:00.996Z</time>
</trkpt>
<trkpt lat="42.6189790" lon="1.3317540">
<ele>1578.925049</ele>
<time>2013-09-29T22:00:00.996Z</time>
</trkpt>
<trkpt lat="42.6190520" lon="1.3318500">
<ele>1579.412598</ele>
<time>2013-09-29T22:00:00.996Z</time>
</trkpt>
<trkpt lat="42.6191300" lon="1.3319450">
<ele>1579.687012</ele>
<time>2013-09-29T22:00:00.996Z</time>
</trkpt>
<trkpt lat="42.6191670" lon="1.3320050">
<ele>1578.985840</ele>
<time>2013-09-29T22:00:00.996Z</time>
</trkpt>
<trkpt lat="42.6191900" lon="1.3320650">
<ele>1578.650635</ele>
<time>2013-09-29T22:00:00.996Z</time>
</trkpt>
<trkpt lat="42.6192010" lon="1.3321500">
<ele>1578.985840</ele>
<time>2013-09-29T22:00:00.996Z</time>
</trkpt>
<trkpt lat="42.6192020" lon="1.3322720">
<ele>1579.564941</ele>
<time>2013-09-29T22:00:00.996Z</time>
</trkpt>
<trkpt lat="42.6191900" lon="1.3323340">
<ele>1580.418457</ele>
<time>2013-09-29T22:00:00.996Z</time>
</trkpt>
<trkpt lat="42.6191730" lon="1.3324440">
<ele>1581.942505</ele>
<time>2013-09-29T22:00:00.996Z</time>
</trkpt>
<trkpt lat="42.6191700" lon="1.3325410">
<ele>1582.795898</ele>
<time>2013-09-29T22:00:00.996Z</time>
</trkpt>
<trkpt lat="42.6191720" lon="1.3326390">
<ele>1583.192261</ele>
<time>2013-09-29T22:00:00.996Z</time>
</trkpt>
<trkpt lat="42.6191780" lon="1.3327360">
<ele>1583.466553</ele>
<time>2013-09-29T22:00:00.996Z</time>
</trkpt>
<trkpt lat="42.6191880" lon="1.3328400">
<ele>1583.771362</ele>
<time>2013-09-29T22:00:00.996Z</time>
</trkpt>
<trkpt lat="42.6192100" lon="1.3331010">
<ele>1585.234253</ele>
<time>2013-09-29T22:00:00.996Z</time>
</trkpt>
<trkpt lat="42.6192210" lon="1.3332470">
<ele>1585.264771</ele>
<time>2013-09-29T22:00:00.996Z</time>
</trkpt>
<trkpt lat="42.6192390" lon="1.3335210">
<ele>1585.020996</ele>
<time>2013-09-29T22:00:00.996Z</time>
</trkpt>
<trkpt lat="42.6192490" lon="1.3336430">
<ele>1585.782959</ele>
<time>2013-09-29T22:00:00.996Z</time>
</trkpt>
<trkpt lat="42.6192690" lon="1.3337820">
<ele>1586.545044</ele>
<time>2013-09-29T22:00:00.996Z</time>
</trkpt>
<trkpt lat="42.6192890" lon="1.3339220">
<ele>1586.758301</ele>
<time>2013-09-29T22:00:00.996Z</time>
</trkpt>
<trkpt lat="42.6193100" lon="1.3340680">
<ele>1585.539063</ele>
<time>2013-09-29T22:00:00.996Z</time>
</trkpt>
<trkpt lat="42.6193290" lon="1.3342020">
<ele>1585.874390</ele>
<time>2013-09-29T22:00:00.996Z</time>
</trkpt>
<trkpt lat="42.6193350" lon="1.3342680">
<ele>1586.453491</ele>
<time>2013-09-29T22:00:00.996Z</time>
</trkpt>
<trkpt lat="42.6193310" lon="1.3343170">
<ele>1587.063110</ele>
<time>2013-09-29T22:00:00.996Z</time>
</trkpt>
<trkpt lat="42.6193090" lon="1.3343670">
<ele>1587.825073</ele>
<time>2013-09-29T22:00:00.996Z</time>
</trkpt>
<trkpt lat="42.6192830" lon="1.3344340">
<ele>1588.678589</ele>
<time>2013-09-29T22:00:00.996Z</time>
</trkpt>
<trkpt lat="42.6192750" lon="1.3344830">
<ele>1589.196655</ele>
<time>2013-09-29T22:00:00.996Z</time>
</trkpt>
<trkpt lat="42.6192710" lon="1.3345380">
<ele>1589.714966</ele>
<time>2013-09-29T22:00:00.996Z</time>
</trkpt>
<trkpt lat="42.6192810" lon="1.3345990">
<ele>1590.050171</ele>
<time>2013-09-29T22:00:00.996Z</time>
</trkpt>
<trkpt lat="42.6192950" lon="1.3346350">
<ele>1590.293945</ele>
<time>2013-09-29T22:00:00.996Z</time>
</trkpt>
<trkpt lat="42.6193140" lon="1.3346650">
<ele>1590.537720</ele>
<time>2013-09-29T22:00:00.996Z</time>
</trkpt>
<trkpt lat="42.6193410" lon="1.3347070">
<ele>1590.812256</ele>
<time>2013-09-29T22:00:00.996Z</time>
</trkpt>
<trkpt lat="42.6193690" lon="1.3347740">
<ele>1591.177856</ele>
<time>2013-09-29T22:00:00.996Z</time>
</trkpt>
<trkpt lat="42.6193980" lon="1.3348760">
<ele>1592.031372</ele>
<time>2013-09-29T22:00:00.996Z</time>
</trkpt>
<trkpt lat="42.6194220" lon="1.3349920">
<ele>1593.433350</ele>
<time>2013-09-29T22:00:00.996Z</time>
</trkpt>
<trkpt lat="42.6194510" lon="1.3351190">
<ele>1594.195435</ele>
<time>2013-09-29T22:00:00.996Z</time>
</trkpt>
<trkpt lat="42.6194940" lon="1.3352880">
<ele>1595.353760</ele>
<time>2013-09-29T22:00:00.996Z</time>
</trkpt>
<trkpt lat="42.6195370" lon="1.3354400">
<ele>1597.822632</ele>
<time>2013-09-29T22:00:00.996Z</time>
</trkpt>
<trkpt lat="42.6195700" lon="1.3356030">
<ele>1599.529419</ele>
<time>2013-09-29T22:00:00.996Z</time>
</trkpt>
<trkpt lat="42.6195900" lon="1.3357130">
<ele>1600.718262</ele>
<time>2013-09-29T22:00:00.996Z</time>
</trkpt>
<trkpt lat="42.6196140" lon="1.3358220">
<ele>1601.236328</ele>
<time>2013-09-29T22:00:00.996Z</time>
</trkpt>
<trkpt lat="42.6196380" lon="1.3359190">
<ele>1601.327759</ele>
<time>2013-09-29T22:00:00.996Z</time>
</trkpt>
<trkpt lat="42.6196710" lon="1.3360210">
<ele>1602.485962</ele>
<time>2013-09-29T22:00:00.996Z</time>
</trkpt>
<trkpt lat="42.6196950" lon="1.3360880">
<ele>1603.552856</ele>
<time>2013-09-29T22:00:00.996Z</time>
</trkpt>
<trkpt lat="42.6197310" lon="1.3361480">
<ele>1604.071045</ele>
<time>2013-09-29T22:00:00.996Z</time>
</trkpt>
<trkpt lat="42.6197960" lon="1.3362500">
<ele>1604.863403</ele>
<time>2013-09-29T22:00:00.996Z</time>
</trkpt>
<trkpt lat="42.6198690" lon="1.3363510">
<ele>1605.473022</ele>
<time>2013-09-29T22:00:00.996Z</time>
</trkpt>
<trkpt lat="42.6199150" lon="1.3364170">
<ele>1605.503540</ele>
<time>2013-09-29T22:00:00.996Z</time>
</trkpt>
<trkpt lat="42.6199390" lon="1.3364590">
<ele>1605.808350</ele>
<time>2013-09-29T22:00:00.996Z</time>
</trkpt>
<trkpt lat="42.6199570" lon="1.3365080">
<ele>1606.417847</ele>
<time>2013-09-29T22:00:00.996Z</time>
</trkpt>
<trkpt lat="42.6199720" lon="1.3365560">
<ele>1606.966675</ele>
<time>2013-09-29T22:00:00.996Z</time>
</trkpt>
<trkpt lat="42.6199810" lon="1.3365980">
<ele>1607.393311</ele>
<time>2013-09-29T22:00:00.996Z</time>
</trkpt>
<trkpt lat="42.6199910" lon="1.3366350">
<ele>1607.637085</ele>
<time>2013-09-29T22:00:00.996Z</time>
</trkpt>
<trkpt lat="42.6200050" lon="1.3366830">
<ele>1607.759033</ele>
<time>2013-09-29T22:00:00.996Z</time>
</trkpt>
<trkpt lat="42.6200190" lon="1.3367190">
<ele>1607.454224</ele>
<time>2013-09-29T22:00:00.996Z</time>
</trkpt>
<trkpt lat="42.6200370" lon="1.3367490">
<ele>1607.027466</ele>
<time>2013-09-29T22:00:00.996Z</time>
</trkpt>
<trkpt lat="42.6200560" lon="1.3367850">
<ele>1606.936157</ele>
<time>2013-09-29T22:00:00.996Z</time>
</trkpt>
<trkpt lat="42.6200750" lon="1.3368400">
<ele>1607.637085</ele>
<time>2013-09-29T22:00:00.996Z</time>
</trkpt>
<trkpt lat="42.6200840" lon="1.3368820">
<ele>1608.551514</ele>
<time>2013-09-29T22:00:00.996Z</time>
</trkpt>
<trkpt lat="42.6201080" lon="1.3369790">
<ele>1610.105957</ele>
<time>2013-09-29T22:00:00.996Z</time>
</trkpt>
<trkpt lat="42.6201280" lon="1.3371130">
<ele>1610.746094</ele>
<time>2013-09-29T22:00:00.996Z</time>
</trkpt>
<trkpt lat="42.6201390" lon="1.3372400">
<ele>1611.294678</ele>
<time>2013-09-29T22:00:00.996Z</time>
</trkpt>
<trkpt lat="42.6201410" lon="1.3373810">
<ele>1613.611206</ele>
<time>2013-09-29T22:00:00.996Z</time>
</trkpt>
<trkpt lat="42.6201610" lon="1.3375200">
<ele>1616.110596</ele>
<time>2013-09-29T22:00:00.996Z</time>
</trkpt>
<trkpt lat="42.6201900" lon="1.3376480">
<ele>1617.268799</ele>
<time>2013-09-29T22:00:00.996Z</time>
</trkpt>
<trkpt lat="42.6201960" lon="1.3377330">
<ele>1617.725952</ele>
<time>2013-09-29T22:00:00.996Z</time>
</trkpt>
<trkpt lat="42.6201970" lon="1.3378240">
<ele>1618.396606</ele>
<time>2013-09-29T22:00:00.996Z</time>
</trkpt>
<trkpt lat="42.6201990" lon="1.3379340">
<ele>1619.432861</ele>
<time>2013-09-29T22:00:00.996Z</time>
</trkpt>
<trkpt lat="42.6202100" lon="1.3380680">
<ele>1621.474976</ele>
<time>2013-09-29T22:00:00.996Z</time>
</trkpt>
<trkpt lat="42.6202300" lon="1.3382010">
<ele>1622.999023</ele>
<time>2013-09-29T22:00:00.996Z</time>
</trkpt>
<trkpt lat="42.6202400" lon="1.3382920">
<ele>1623.639038</ele>
<time>2013-09-29T22:00:00.996Z</time>
</trkpt>
<trkpt lat="42.6202370" lon="1.3383900">
<ele>1624.614502</ele>
<time>2013-09-29T22:00:00.996Z</time>
</trkpt>
<trkpt lat="42.6202250" lon="1.3385310">
<ele>1626.108032</ele>
<time>2013-09-29T22:00:00.996Z</time>
</trkpt>
<trkpt lat="42.6202270" lon="1.3386220">
<ele>1626.656616</ele>
<time>2013-09-29T22:00:00.996Z</time>
</trkpt>
<trkpt lat="42.6202320" lon="1.3387070">
<ele>1627.144287</ele>
<time>2013-09-29T22:00:00.996Z</time>
</trkpt>
<trkpt lat="42.6202290" lon="1.3387560">
<ele>1627.601440</ele>
<time>2013-09-29T22:00:00.996Z</time>
</trkpt>
<trkpt lat="42.6202160" lon="1.3387930">
<ele>1628.028198</ele>
<time>2013-09-29T22:00:00.996Z</time>
</trkpt>
<trkpt lat="42.6201930" lon="1.3388120">
<ele>1628.394043</ele>
<time>2013-09-29T22:00:00.996Z</time>
</trkpt>
<trkpt lat="42.6201660" lon="1.3388190">
<ele>1628.820679</ele>
<time>2013-09-29T22:00:00.996Z</time>
</trkpt>
<trkpt lat="42.6201390" lon="1.3388070">
<ele>1629.491333</ele>
<time>2013-09-29T22:00:00.996Z</time>
</trkpt>
<trkpt lat="42.6201030" lon="1.3387900">
<ele>1630.375244</ele>
<time>2013-09-29T22:00:00.996Z</time>
</trkpt>
<trkpt lat="42.6200760" lon="1.3387850">
<ele>1631.015259</ele>
<time>2013-09-29T22:00:00.996Z</time>
</trkpt>
<trkpt lat="42.6200540" lon="1.3387970">
<ele>1631.685791</ele>
<time>2013-09-29T22:00:00.996Z</time>
</trkpt>
<trkpt lat="42.6200400" lon="1.3388280">
<ele>1632.295410</ele>
<time>2013-09-29T22:00:00.996Z</time>
</trkpt>
<trkpt lat="42.6200410" lon="1.3388710">
<ele>1632.539307</ele>
<time>2013-09-29T22:00:00.996Z</time>
</trkpt>
<trkpt lat="42.6200510" lon="1.3389380">
<ele>1632.295410</ele>
<time>2013-09-29T22:00:00.996Z</time>
</trkpt>
<trkpt lat="42.6200620" lon="1.3390530">
<ele>1633.026978</ele>
<time>2013-09-29T22:00:00.996Z</time>
</trkpt>
<trkpt lat="42.6200550" lon="1.3391870">
<ele>1635.770264</ele>
<time>2013-09-29T22:00:00.996Z</time>
</trkpt>
<trkpt lat="42.6200470" lon="1.3392550">
<ele>1637.598999</ele>
<time>2013-09-29T22:00:00.996Z</time>
</trkpt>
<trkpt lat="42.6200250" lon="1.3393040">
<ele>1639.123047</ele>
<time>2013-09-29T22:00:00.996Z</time>
</trkpt>
<trkpt lat="42.6199990" lon="1.3393600">
<ele>1640.494629</ele>
<time>2013-09-29T22:00:00.996Z</time>
</trkpt>
<trkpt lat="42.6199950" lon="1.3394090">
<ele>1641.317505</ele>
<time>2013-09-29T22:00:00.996Z</time>
</trkpt>
<trkpt lat="42.6200090" lon="1.3394690">
<ele>1641.683350</ele>
<time>2013-09-29T22:00:00.996Z</time>
</trkpt>
<trkpt lat="42.6200330" lon="1.3395420">
<ele>1641.073730</ele>
<time>2013-09-29T22:00:00.996Z</time>
</trkpt>
<trkpt lat="42.6200520" lon="1.3396390">
<ele>1640.982178</ele>
<time>2013-09-29T22:00:00.996Z</time>
</trkpt>
<trkpt lat="42.6200710" lon="1.3397110">
<ele>1641.134521</ele>
<time>2013-09-29T22:00:00.996Z</time>
</trkpt>
<trkpt lat="42.6200900" lon="1.3397600">
<ele>1641.104248</ele>
<time>2013-09-29T22:00:00.996Z</time>
</trkpt>
<trkpt lat="42.6201310" lon="1.3398130">
<ele>1640.494629</ele>
<time>2013-09-29T22:00:00.996Z</time>
</trkpt>
<trkpt lat="42.6201780" lon="1.3399100">
<ele>1641.073730</ele>
<time>2013-09-29T22:00:00.996Z</time>
</trkpt>
<trkpt lat="42.6202100" lon="1.3399700">
<ele>1642.079468</ele>
<time>2013-09-29T22:00:00.996Z</time>
</trkpt>
<trkpt lat="42.6202610" lon="1.3400900">
<ele>1643.695068</ele>
<time>2013-09-29T22:00:00.996Z</time>
</trkpt>
<trkpt lat="42.6203080" lon="1.3401990">
<ele>1645.157959</ele>
<time>2013-09-29T22:00:00.996Z</time>
</trkpt>
<trkpt lat="42.6203410" lon="1.3403200">
<ele>1646.803833</ele>
<time>2013-09-29T22:00:00.996Z</time>
</trkpt>
<trkpt lat="42.6203610" lon="1.3404470">
<ele>1647.901245</ele>
<time>2013-09-29T22:00:00.996Z</time>
</trkpt>
<trkpt lat="42.6203670" lon="1.3405140">
<ele>1648.998535</ele>
<time>2013-09-29T22:00:00.996Z</time>
</trkpt>
<trkpt lat="42.6203720" lon="1.3405870">
<ele>1650.248169</ele>
<time>2013-09-29T22:00:00.996Z</time>
</trkpt>
<trkpt lat="42.6203550" lon="1.3406550">
<ele>1651.894165</ele>
<time>2013-09-29T22:00:00.996Z</time>
</trkpt>
<trkpt lat="42.6203330" lon="1.3407040">
<ele>1653.418091</ele>
<time>2013-09-29T22:00:00.996Z</time>
</trkpt>
<trkpt lat="42.6202890" lon="1.3407540">
<ele>1655.094482</ele>
<time>2013-09-29T22:00:00.996Z</time>
</trkpt>
<trkpt lat="42.6202670" lon="1.3408030">
<ele>1656.435547</ele>
<time>2013-09-29T22:00:00.996Z</time>
</trkpt>
<trkpt lat="42.6202680" lon="1.3408520">
<ele>1657.868164</ele>
<time>2013-09-29T22:00:00.996Z</time>
</trkpt>
<trkpt lat="42.6202780" lon="1.3409190">
<ele>1659.879761</ele>
<time>2013-09-29T22:00:00.996Z</time>
</trkpt>
<trkpt lat="42.6202700" lon="1.3409860">
<ele>1662.074341</ele>
<time>2013-09-29T22:00:00.996Z</time>
</trkpt>
<trkpt lat="42.6202660" lon="1.3410600">
<ele>1665.335815</ele>
<time>2013-09-29T22:00:00.996Z</time>
</trkpt>
<trkpt lat="42.6202810" lon="1.3411320">
<ele>1668.475220</ele>
<time>2013-09-29T22:00:00.996Z</time>
</trkpt>
<trkpt lat="42.6202950" lon="1.3411810">
<ele>1670.425903</ele>
<time>2013-09-29T22:00:00.996Z</time>
</trkpt>
<trkpt lat="42.6203320" lon="1.3412530">
<ele>1672.772949</ele>
<time>2013-09-29T22:00:00.996Z</time>
</trkpt>
<trkpt lat="42.6203730" lon="1.3412880">
<ele>1673.016724</ele>
<time>2013-09-29T22:00:00.996Z</time>
</trkpt>
<trkpt lat="42.6204190" lon="1.3413240">
<ele>1673.016724</ele>
<time>2013-09-29T22:00:00.996Z</time>
</trkpt>
<trkpt lat="42.6204460" lon="1.3413600">
<ele>1673.534912</ele>
<time>2013-09-29T22:00:00.996Z</time>
</trkpt>
<trkpt lat="42.6204790" lon="1.3414080">
<ele>1674.814941</ele>
<time>2013-09-29T22:00:00.996Z</time>
</trkpt>
<trkpt lat="42.6205110" lon="1.3414680">
<ele>1676.948608</ele>
<time>2013-09-29T22:00:00.996Z</time>
</trkpt>
<trkpt lat="42.6205480" lon="1.3415520">
<ele>1679.600342</ele>
<time>2013-09-29T22:00:00.996Z</time>
</trkpt>
<trkpt lat="42.6205940" lon="1.3415750">
<ele>1679.813843</ele>
<time>2013-09-29T22:00:00.996Z</time>
</trkpt>
<trkpt lat="42.6206300" lon="1.3415930">
<ele>1679.661377</ele>
<time>2013-09-29T22:00:00.996Z</time>
</trkpt>
<trkpt lat="42.6206570" lon="1.3416160">
<ele>1679.783325</ele>
<time>2013-09-29T22:00:00.996Z</time>
</trkpt>
<trkpt lat="42.6206760" lon="1.3416460">
<ele>1680.179443</ele>
<time>2013-09-29T22:00:00.996Z</time>
</trkpt>
<trkpt lat="42.6206850" lon="1.3416950">
<ele>1681.154907</ele>
<time>2013-09-29T22:00:00.996Z</time>
</trkpt>
<trkpt lat="42.6206950" lon="1.3417610">
<ele>1682.434937</ele>
<time>2013-09-29T22:00:00.996Z</time>
</trkpt>
<trkpt lat="42.6207050" lon="1.3418400">
<ele>1683.837036</ele>
<time>2013-09-29T22:00:00.996Z</time>
</trkpt>
<trkpt lat="42.6207200" lon="1.3419010">
<ele>1684.324829</ele>
<time>2013-09-29T22:00:00.996Z</time>
</trkpt>
<trkpt lat="42.6207620" lon="1.3419850">
<ele>1683.898071</ele>
<time>2013-09-29T22:00:00.996Z</time>
</trkpt>
<trkpt lat="42.6207810" lon="1.3420580">
<ele>1684.233398</ele>
<time>2013-09-29T22:00:00.996Z</time>
</trkpt>
<trkpt lat="42.6207860" lon="1.3421190">
<ele>1685.269653</ele>
<time>2013-09-29T22:00:00.996Z</time>
</trkpt>
<trkpt lat="42.6207920" lon="1.3421920">
<ele>1686.793701</ele>
<time>2013-09-29T22:00:00.996Z</time>
</trkpt>
<trkpt lat="42.6208110" lon="1.3422890">
<ele>1688.226196</ele>
<time>2013-09-29T22:00:00.996Z</time>
</trkpt>
<trkpt lat="42.6208260" lon="1.3423620">
<ele>1689.140625</ele>
<time>2013-09-29T22:00:00.996Z</time>
</trkpt>
<trkpt lat="42.6208580" lon="1.3424520">
<ele>1689.536865</ele>
<time>2013-09-29T22:00:00.996Z</time>
</trkpt>
<trkpt lat="42.6208950" lon="1.3425060">
<ele>1690.115967</ele>
<time>2013-09-29T22:00:00.996Z</time>
</trkpt>
<trkpt lat="42.6209230" lon="1.3425300">
<ele>1690.451294</ele>
<time>2013-09-29T22:00:00.996Z</time>
</trkpt>
<trkpt lat="42.6209680" lon="1.3425470">
<ele>1690.847534</ele>
<time>2013-09-29T22:00:00.996Z</time>
</trkpt>
<trkpt lat="42.6210310" lon="1.3425510">
<ele>1691.426636</ele>
<time>2013-09-29T22:00:00.996Z</time>
</trkpt>
<trkpt lat="42.6210720" lon="1.3425750">
<ele>1691.548584</ele>
<time>2013-09-29T22:00:00.996Z</time>
</trkpt>
<trkpt lat="42.6210990" lon="1.3426100">
<ele>1691.701050</ele>
<time>2013-09-29T22:00:00.996Z</time>
</trkpt>
<trkpt lat="42.6211140" lon="1.3426710">
<ele>1692.066650</ele>
<time>2013-09-29T22:00:00.996Z</time>
</trkpt>
<trkpt lat="42.6211190" lon="1.3427500">
<ele>1692.828735</ele>
<time>2013-09-29T22:00:00.996Z</time>
</trkpt>
<trkpt lat="42.6211300" lon="1.3428900">
<ele>1694.139404</ele>
<time>2013-09-29T22:00:00.996Z</time>
</trkpt>
<trkpt lat="42.6211280" lon="1.3430300">
<ele>1694.840454</ele>
<time>2013-09-29T22:00:00.996Z</time>
</trkpt>
<trkpt lat="42.6211200" lon="1.3430980">
<ele>1695.023315</ele>
<time>2013-09-29T22:00:00.996Z</time>
</trkpt>
<trkpt lat="42.6210730" lon="1.3432820">
<ele>1695.236572</ele>
<time>2013-09-29T22:00:00.996Z</time>
</trkpt>
<trkpt lat="42.6210560" lon="1.3433800">
<ele>1694.962280</ele>
<time>2013-09-29T22:00:00.996Z</time>
</trkpt>
<trkpt lat="42.6210400" lon="1.3435020">
<ele>1694.505127</ele>
<time>2013-09-29T22:00:00.996Z</time>
</trkpt>
<trkpt lat="42.6210330" lon="1.3436240">
<ele>1693.743042</ele>
<time>2013-09-29T22:00:00.996Z</time>
</trkpt>
<trkpt lat="42.6210300" lon="1.3437580">
<ele>1693.103027</ele>
<time>2013-09-29T22:00:00.996Z</time>
</trkpt>
<trkpt lat="42.6210320" lon="1.3438920">
<ele>1693.103027</ele>
<time>2013-09-29T22:00:00.996Z</time>
</trkpt>
<trkpt lat="42.6210430" lon="1.3440260">
<ele>1693.042114</ele>
<time>2013-09-29T22:00:00.996Z</time>
</trkpt>
<trkpt lat="42.6210670" lon="1.3441290">
<ele>1692.920166</ele>
<time>2013-09-29T22:00:00.996Z</time>
</trkpt>
<trkpt lat="42.6210960" lon="1.3442260">
<ele>1693.072632</ele>
<time>2013-09-29T22:00:00.996Z</time>
</trkpt>
<trkpt lat="42.6211330" lon="1.3443040">
<ele>1693.255371</ele>
<time>2013-09-29T22:00:00.996Z</time>
</trkpt>
<trkpt lat="42.6211740" lon="1.3443830">
<ele>1693.224976</ele>
<time>2013-09-29T22:00:00.996Z</time>
</trkpt>
<trkpt lat="42.6212160" lon="1.3444610">
<ele>1692.889771</ele>
<time>2013-09-29T22:00:00.996Z</time>
</trkpt>
<trkpt lat="42.6212580" lon="1.3445270">
<ele>1692.676270</ele>
<time>2013-09-29T22:00:00.996Z</time>
</trkpt>
<trkpt lat="42.6213040" lon="1.3446050">
<ele>1692.463013</ele>
<time>2013-09-29T22:00:00.996Z</time>
</trkpt>
<trkpt lat="42.6213460" lon="1.3447010">
<ele>1691.701050</ele>
<time>2013-09-29T22:00:00.996Z</time>
</trkpt>
<trkpt lat="42.6213650" lon="1.3448100">
<ele>1690.969360</ele>
<time>2013-09-29T22:00:00.996Z</time>
</trkpt>
<trkpt lat="42.6213710" lon="1.3448890">
<ele>1690.573242</ele>
<time>2013-09-29T22:00:00.996Z</time>
</trkpt>
<trkpt lat="42.6213820" lon="1.3450050">
<ele>1690.054932</ele>
<time>2013-09-29T22:00:00.996Z</time>
</trkpt>
<trkpt lat="42.6214060" lon="1.3451260">
<ele>1688.896851</ele>
<time>2013-09-29T22:00:00.996Z</time>
</trkpt>
<trkpt lat="42.6214350" lon="1.3452540">
<ele>1687.708130</ele>
<time>2013-09-29T22:00:00.996Z</time>
</trkpt>
<trkpt lat="42.6214720" lon="1.3453380">
<ele>1686.488892</ele>
<time>2013-09-29T22:00:00.996Z</time>
</trkpt>
<trkpt lat="42.6215230" lon="1.3454280">
<ele>1685.818237</ele>
<time>2013-09-29T22:00:00.996Z</time>
</trkpt>
<trkpt lat="42.6215970" lon="1.3455850">
<ele>1685.239258</ele>
<time>2013-09-29T22:00:00.996Z</time>
</trkpt>
<trkpt lat="42.6216850" lon="1.3457770">
<ele>1684.020020</ele>
<time>2013-09-29T22:00:00.996Z</time>
</trkpt>
<trkpt lat="42.6217550" lon="1.3459220">
<ele>1682.557007</ele>
<time>2013-09-29T22:00:00.996Z</time>
</trkpt>
<trkpt lat="42.6218380" lon="1.3460600">
<ele>1681.642578</ele>
<time>2013-09-29T22:00:00.996Z</time>
</trkpt>
<trkpt lat="42.6218930" lon="1.3461250">
<ele>1681.795044</ele>
<time>2013-09-29T22:00:00.996Z</time>
</trkpt>
<trkpt lat="42.6219120" lon="1.3461620">
<ele>1681.734009</ele>
<time>2013-09-29T22:00:00.996Z</time>
</trkpt>
<trkpt lat="42.6219210" lon="1.3461980">
<ele>1681.886353</ele>
<time>2013-09-29T22:00:00.996Z</time>
</trkpt>
<trkpt lat="42.6219220" lon="1.3462340">
<ele>1682.191162</ele>
<time>2013-09-29T22:00:00.996Z</time>
</trkpt>
<trkpt lat="42.6219220" lon="1.3462710">
<ele>1682.434937</ele>
<time>2013-09-29T22:00:00.996Z</time>
</trkpt>
<trkpt lat="42.6219180" lon="1.3463080">
<ele>1682.587402</ele>
<time>2013-09-29T22:00:00.996Z</time>
</trkpt>
<trkpt lat="42.6219190" lon="1.3463440">
<ele>1682.648438</ele>
<time>2013-09-29T22:00:00.996Z</time>
</trkpt>
<trkpt lat="42.6219240" lon="1.3463810">
<ele>1682.557007</ele>
<time>2013-09-29T22:00:00.996Z</time>
</trkpt>
<trkpt lat="42.6219240" lon="1.3464170">
<ele>1682.465454</ele>
<time>2013-09-29T22:00:00.996Z</time>
</trkpt>
<trkpt lat="42.6219110" lon="1.3464600">
<ele>1682.587402</ele>
<time>2013-09-29T22:00:00.996Z</time>
</trkpt>
<trkpt lat="42.6218940" lon="1.3464910">
<ele>1683.014160</ele>
<time>2013-09-29T22:00:00.996Z</time>
</trkpt>
<trkpt lat="42.6218900" lon="1.3465280">
<ele>1683.197021</ele>
<time>2013-09-29T22:00:00.996Z</time>
</trkpt>
<trkpt lat="42.6218990" lon="1.3465700">
<ele>1683.105591</ele>
<time>2013-09-29T22:00:00.996Z</time>
</trkpt>
<trkpt lat="42.6219180" lon="1.3466060">
<ele>1682.526489</ele>
<time>2013-09-29T22:00:00.996Z</time>
</trkpt>
<trkpt lat="42.6219320" lon="1.3466430">
<ele>1682.191162</ele>
<time>2013-09-29T22:00:00.996Z</time>
</trkpt>
<trkpt lat="42.6219370" lon="1.3466970">
<ele>1681.947388</ele>
<time>2013-09-29T22:00:00.996Z</time>
</trkpt>
<trkpt lat="42.6219520" lon="1.3467700">
<ele>1681.368164</ele>
<time>2013-09-29T22:00:00.996Z</time>
</trkpt>
<trkpt lat="42.6219900" lon="1.3469090">
<ele>1679.600342</ele>
<time>2013-09-29T22:00:00.996Z</time>
</trkpt>
<trkpt lat="42.6220000" lon="1.3469640">
<ele>1678.868896</ele>
<time>2013-09-29T22:00:00.996Z</time>
</trkpt>
<trkpt lat="42.6220100" lon="1.3470610">
<ele>1677.466797</ele>
<time>2013-09-29T22:00:00.996Z</time>
</trkpt>
<trkpt lat="42.6220200" lon="1.3471340">
<ele>1676.338989</ele>
<time>2013-09-29T22:00:00.996Z</time>
</trkpt>
<trkpt lat="42.6220480" lon="1.3472190">
<ele>1674.693115</ele>
<time>2013-09-29T22:00:00.996Z</time>
</trkpt>
<trkpt lat="42.6220540" lon="1.3472860">
<ele>1674.357788</ele>
<time>2013-09-29T22:00:00.996Z</time>
</trkpt>
<trkpt lat="42.6220500" lon="1.3473590">
<ele>1674.601685</ele>
<time>2013-09-29T22:00:00.996Z</time>
</trkpt>
<trkpt lat="42.6220210" lon="1.3475000">
<ele>1675.455078</ele>
<time>2013-09-29T22:00:00.996Z</time>
</trkpt>
<trkpt lat="42.6219820" lon="1.3476230">
<ele>1677.375366</ele>
<time>2013-09-29T22:00:00.996Z</time>
</trkpt>
<trkpt lat="42.6219750" lon="1.3477330">
<ele>1678.533569</ele>
<time>2013-09-29T22:00:00.996Z</time>
</trkpt>
<trkpt lat="42.6219660" lon="1.3477760">
<ele>1679.082153</ele>
<time>2013-09-29T22:00:00.996Z</time>
</trkpt>
<trkpt lat="42.6219450" lon="1.3478490">
<ele>1680.179443</ele>
<time>2013-09-29T22:00:00.996Z</time>
</trkpt>
<trkpt lat="42.6219230" lon="1.3479050">
<ele>1680.758545</ele>
<time>2013-09-29T22:00:00.996Z</time>
</trkpt>
<trkpt lat="42.6219060" lon="1.3479540">
<ele>1680.636719</ele>
<time>2013-09-29T22:00:00.996Z</time>
</trkpt>
<trkpt lat="42.6218800" lon="1.3480100">
<ele>1680.514771</ele>
<time>2013-09-29T22:00:00.996Z</time>
</trkpt>
<trkpt lat="42.6218670" lon="1.3480530">
<ele>1679.996582</ele>
<time>2013-09-29T22:00:00.996Z</time>
</trkpt>
<trkpt lat="42.6218580" lon="1.3480960">
<ele>1679.265137</ele>
<time>2013-09-29T22:00:00.996Z</time>
</trkpt>
<trkpt lat="42.6218540" lon="1.3481320">
<ele>1678.564087</ele>
<time>2013-09-29T22:00:00.996Z</time>
</trkpt>
<trkpt lat="42.6218420" lon="1.3482000">
<ele>1677.223022</ele>
<time>2013-09-29T22:00:00.996Z</time>
</trkpt>
<trkpt lat="42.6218290" lon="1.3482610">
<ele>1676.400024</ele>
<time>2013-09-29T22:00:00.996Z</time>
</trkpt>
<trkpt lat="42.6218210" lon="1.3483280">
<ele>1675.942749</ele>
<time>2013-09-29T22:00:00.996Z</time>
</trkpt>
<trkpt lat="42.6218220" lon="1.3484010">
<ele>1675.729370</ele>
<time>2013-09-29T22:00:00.996Z</time>
</trkpt>
<trkpt lat="42.6218240" lon="1.3485420">
<ele>1677.223022</ele>
<time>2013-09-29T22:00:00.996Z</time>
</trkpt>
<trkpt lat="42.6218250" lon="1.3486210">
<ele>1678.259277</ele>
<time>2013-09-29T22:00:00.996Z</time>
</trkpt>
<trkpt lat="42.6218350" lon="1.3486880">
<ele>1678.625000</ele>
<time>2013-09-29T22:00:00.996Z</time>
</trkpt>
<trkpt lat="42.6218410" lon="1.3487480">
<ele>1678.777344</ele>
<time>2013-09-29T22:00:00.996Z</time>
</trkpt>
<trkpt lat="42.6218420" lon="1.3488030">
<ele>1678.747070</ele>
<time>2013-09-29T22:00:00.996Z</time>
</trkpt>
<trkpt lat="42.6218290" lon="1.3488770">
<ele>1678.899414</ele>
<time>2013-09-29T22:00:00.996Z</time>
</trkpt>
<trkpt lat="42.6218210" lon="1.3489500">
<ele>1679.112671</ele>
<time>2013-09-29T22:00:00.996Z</time>
</trkpt>
<trkpt lat="42.6218090" lon="1.3490170">
<ele>1679.509033</ele>
<time>2013-09-29T22:00:00.996Z</time>
</trkpt>
<trkpt lat="42.6217820" lon="1.3490730">
<ele>1680.514771</ele>
<time>2013-09-29T22:00:00.996Z</time>
</trkpt>
<trkpt lat="42.6217700" lon="1.3491590">
<ele>1681.002563</ele>
<time>2013-09-29T22:00:00.996Z</time>
</trkpt>
<trkpt lat="42.6217630" lon="1.3492560">
<ele>1681.429199</ele>
<time>2013-09-29T22:00:00.996Z</time>
</trkpt>
<trkpt lat="42.6217590" lon="1.3493360">
<ele>1681.855835</ele>
<time>2013-09-29T22:00:00.996Z</time>
</trkpt>
<trkpt lat="42.6217560" lon="1.3494400">
<ele>1682.374146</ele>
<time>2013-09-29T22:00:00.996Z</time>
</trkpt>
<trkpt lat="42.6217520" lon="1.3494880">
<ele>1682.831299</ele>
<time>2013-09-29T22:00:00.996Z</time>
</trkpt>
<trkpt lat="42.6217350" lon="1.3495620">
<ele>1683.806641</ele>
<time>2013-09-29T22:00:00.996Z</time>
</trkpt>
<trkpt lat="42.6217140" lon="1.3496300">
<ele>1684.324829</ele>
<time>2013-09-29T22:00:00.996Z</time>
</trkpt>
<trkpt lat="42.6216970" lon="1.3496850">
<ele>1684.538208</ele>
<time>2013-09-29T22:00:00.996Z</time>
</trkpt>
<trkpt lat="42.6216700" lon="1.3497280">
<ele>1685.604980</ele>
<time>2013-09-29T22:00:00.996Z</time>
</trkpt>
<trkpt lat="42.6216440" lon="1.3497720">
<ele>1686.885132</ele>
<time>2013-09-29T22:00:00.996Z</time>
</trkpt>
<trkpt lat="42.6216400" lon="1.3498270">
<ele>1686.946167</ele>
<time>2013-09-29T22:00:00.996Z</time>
</trkpt>
<trkpt lat="42.6216320" lon="1.3498700">
<ele>1687.525146</ele>
<time>2013-09-29T22:00:00.996Z</time>
</trkpt>
<trkpt lat="42.6216320" lon="1.3499120">
<ele>1687.616577</ele>
<time>2013-09-29T22:00:00.996Z</time>
</trkpt>
<trkpt lat="42.6216420" lon="1.3499670">
<ele>1687.129028</ele>
<time>2013-09-29T22:00:00.996Z</time>
</trkpt>
<trkpt lat="42.6216570" lon="1.3500760">
<ele>1686.062256</ele>
<time>2013-09-29T22:00:00.996Z</time>
</trkpt>
<trkpt lat="42.6216680" lon="1.3502040">
<ele>1685.726929</ele>
<time>2013-09-29T22:00:00.996Z</time>
</trkpt>
<trkpt lat="42.6216830" lon="1.3502830">
<ele>1685.300171</ele>
<time>2013-09-29T22:00:00.996Z</time>
</trkpt>
<trkpt lat="42.6216970" lon="1.3503500">
<ele>1684.934448</ele>
<time>2013-09-29T22:00:00.996Z</time>
</trkpt>
<trkpt lat="42.6217120" lon="1.3504160">
<ele>1684.629639</ele>
<time>2013-09-29T22:00:00.996Z</time>
</trkpt>
<trkpt lat="42.6217260" lon="1.3504950">
<ele>1684.843018</ele>
<time>2013-09-29T22:00:00.996Z</time>
</trkpt>
<trkpt lat="42.6217360" lon="1.3505680">
<ele>1685.483032</ele>
<time>2013-09-29T22:00:00.996Z</time>
</trkpt>
<trkpt lat="42.6217650" lon="1.3506530">
<ele>1685.818237</ele>
<time>2013-09-29T22:00:00.996Z</time>
</trkpt>
<trkpt lat="42.6218350" lon="1.3508210">
<ele>1685.543945</ele>
<time>2013-09-29T22:00:00.996Z</time>
</trkpt>
<trkpt lat="42.6218910" lon="1.3509660">
<ele>1686.306030</ele>
<time>2013-09-29T22:00:00.996Z</time>
</trkpt>
<trkpt lat="42.6219100" lon="1.3510270">
<ele>1686.519409</ele>
<time>2013-09-29T22:00:00.996Z</time>
</trkpt>
<trkpt lat="42.6219150" lon="1.3510510">
<ele>1686.793701</ele>
<time>2013-09-29T22:00:00.996Z</time>
</trkpt>
<trkpt lat="42.6219200" lon="1.3510870">
<ele>1687.464233</ele>
<time>2013-09-29T22:00:00.996Z</time>
</trkpt>
<trkpt lat="42.6219200" lon="1.3511240">
<ele>1688.439575</ele>
<time>2013-09-29T22:00:00.996Z</time>
</trkpt>
<trkpt lat="42.6219250" lon="1.3511670">
<ele>1689.292969</ele>
<time>2013-09-29T22:00:00.996Z</time>
</trkpt>
<trkpt lat="42.6219350" lon="1.3512210">
<ele>1690.024658</ele>
<time>2013-09-29T22:00:00.996Z</time>
</trkpt>
<trkpt lat="42.6219590" lon="1.3513240">
<ele>1689.689331</ele>
<time>2013-09-29T22:00:00.996Z</time>
</trkpt>
<trkpt lat="42.6219680" lon="1.3513480">
<ele>1689.292969</ele>
<time>2013-09-29T22:00:00.996Z</time>
</trkpt>
<trkpt lat="42.6219820" lon="1.3513720">
<ele>1688.835815</ele>
<time>2013-09-29T22:00:00.996Z</time>
</trkpt>
<trkpt lat="42.6220420" lon="1.3514440">
<ele>1688.835815</ele>
<time>2013-09-29T22:00:00.996Z</time>
</trkpt>
<trkpt lat="42.6220690" lon="1.3514860">
<ele>1689.292969</ele>
<time>2013-09-29T22:00:00.996Z</time>
</trkpt>
<trkpt lat="42.6221020" lon="1.3515520">
<ele>1690.268433</ele>
<time>2013-09-29T22:00:00.996Z</time>
</trkpt>
<trkpt lat="42.6221620" lon="1.3516420">
<ele>1692.432495</ele>
<time>2013-09-29T22:00:00.996Z</time>
</trkpt>
<trkpt lat="42.6222440" lon="1.3517430">
<ele>1693.529785</ele>
<time>2013-09-29T22:00:00.996Z</time>
</trkpt>
<trkpt lat="42.6223220" lon="1.3518080">
<ele>1695.328125</ele>
<time>2013-09-29T22:00:00.996Z</time>
</trkpt>
<trkpt lat="42.6224310" lon="1.3519270">
<ele>1698.101807</ele>
<time>2013-09-29T22:00:00.996Z</time>
</trkpt>
<trkpt lat="42.6225000" lon="1.3520290">
<ele>1699.900146</ele>
<time>2013-09-29T22:00:00.996Z</time>
</trkpt>
<trkpt lat="42.6225510" lon="1.3521320">
<ele>1702.216675</ele>
<time>2013-09-29T22:00:00.996Z</time>
</trkpt>
<trkpt lat="42.6225980" lon="1.3522520">
<ele>1703.009033</ele>
<time>2013-09-29T22:00:00.996Z</time>
</trkpt>
<trkpt lat="42.6226410" lon="1.3523980">
<ele>1706.453369</ele>
<time>2013-09-29T22:00:00.996Z</time>
</trkpt>
<trkpt lat="42.6226610" lon="1.3525310">
<ele>1710.537598</ele>
<time>2013-09-29T22:00:00.996Z</time>
</trkpt>
<trkpt lat="42.6226990" lon="1.3526580">
<ele>1712.031128</ele>
<time>2013-09-29T22:00:00.996Z</time>
</trkpt>
<trkpt lat="42.6227500" lon="1.3527730">
<ele>1711.848145</ele>
<time>2013-09-29T22:00:00.996Z</time>
</trkpt>
<trkpt lat="42.6228100" lon="1.3529110">
<ele>1710.629028</ele>
<time>2013-09-29T22:00:00.996Z</time>
</trkpt>
<trkpt lat="42.6228790" lon="1.3530190">
<ele>1708.556396</ele>
<time>2013-09-29T22:00:00.996Z</time>
</trkpt>
<trkpt lat="42.6229350" lon="1.3531340">
<ele>1707.337158</ele>
<time>2013-09-29T22:00:00.996Z</time>
</trkpt>
<trkpt lat="42.6229910" lon="1.3532420">
<ele>1706.331421</ele>
<time>2013-09-29T22:00:00.996Z</time>
</trkpt>
<trkpt lat="42.6230550" lon="1.3533560">
<ele>1706.057007</ele>
<time>2013-09-29T22:00:00.996Z</time>
</trkpt>
<trkpt lat="42.6231240" lon="1.3534580">
<ele>1706.514160</ele>
<time>2013-09-29T22:00:00.996Z</time>
</trkpt>
<trkpt lat="42.6231940" lon="1.3535840">
<ele>1707.977295</ele>
<time>2013-09-29T22:00:00.996Z</time>
</trkpt>
<trkpt lat="42.6232360" lon="1.3536930">
<ele>1709.684204</ele>
<time>2013-09-29T22:00:00.996Z</time>
</trkpt>
<trkpt lat="42.6233020" lon="1.3538920">
<ele>1716.115356</ele>
<time>2013-09-29T22:00:00.996Z</time>
</trkpt>
<trkpt lat="42.6233250" lon="1.3539520">
<ele>1718.431885</ele>
<time>2013-09-29T22:00:00.996Z</time>
</trkpt>
<trkpt lat="42.6233800" lon="1.3540360">
<ele>1720.474121</ele>
<time>2013-09-29T22:00:00.996Z</time>
</trkpt>
<trkpt lat="42.6234300" lon="1.3540780">
<ele>1721.053223</ele>
<time>2013-09-29T22:00:00.996Z</time>
</trkpt>
<trkpt lat="42.6234990" lon="1.3541370">
<ele>1721.845703</ele>
<time>2013-09-29T22:00:00.996Z</time>
</trkpt>
<trkpt lat="42.6235580" lon="1.3541900">
<ele>1722.363770</ele>
<time>2013-09-29T22:00:00.996Z</time>
</trkpt>
<trkpt lat="42.6236620" lon="1.3542420">
<ele>1722.394287</ele>
<time>2013-09-29T22:00:00.996Z</time>
</trkpt>
<trkpt lat="42.6237300" lon="1.3542770">
<ele>1722.912476</ele>
<time>2013-09-29T22:00:00.996Z</time>
</trkpt>
<trkpt lat="42.6238000" lon="1.3543130">
<ele>1723.522095</ele>
<time>2013-09-29T22:00:00.996Z</time>
</trkpt>
<trkpt lat="42.6239000" lon="1.3543590">
<ele>1724.863159</ele>
<time>2013-09-29T22:00:00.996Z</time>
</trkpt>
<trkpt lat="42.6239770" lon="1.3544310">
<ele>1727.575928</ele>
<time>2013-09-29T22:00:00.996Z</time>
</trkpt>
<trkpt lat="42.6240640" lon="1.3545140">
<ele>1732.452637</ele>
<time>2013-09-29T22:00:00.996Z</time>
</trkpt>
<trkpt lat="42.6241320" lon="1.3545790">
<ele>1737.664795</ele>
<time>2013-09-29T22:00:00.996Z</time>
</trkpt>
<trkpt lat="42.6241920" lon="1.3546320">
<ele>1744.065552</ele>
<time>2013-09-29T22:00:00.996Z</time>
</trkpt>
<trkpt lat="42.6242690" lon="1.3547090">
<ele>1754.215332</ele>
<time>2013-09-29T22:00:00.996Z</time>
</trkpt>
<trkpt lat="42.6243600" lon="1.3547800">
<ele>1763.847046</ele>
<time>2013-09-29T22:00:00.996Z</time>
</trkpt>
<trkpt lat="42.6244560" lon="1.3548510">
<ele>1769.333496</ele>
<time>2013-09-29T22:00:00.996Z</time>
</trkpt>
<trkpt lat="42.6245340" lon="1.3549460">
<ele>1769.516357</ele>
<time>2013-09-29T22:00:00.996Z</time>
</trkpt>
<trkpt lat="42.6245890" lon="1.3550480">
<ele>1772.259644</ele>
<time>2013-09-29T22:00:00.996Z</time>
</trkpt>
<trkpt lat="42.6247000" lon="1.3552350">
<ele>1775.795288</ele>
<time>2013-09-29T22:00:00.996Z</time>
</trkpt>
<trkpt lat="42.6248290" lon="1.3554630">
<ele>1777.075439</ele>
<time>2013-09-29T22:00:00.996Z</time>
</trkpt>
<trkpt lat="42.6249170" lon="1.3556190">
<ele>1775.886719</ele>
<time>2013-09-29T22:00:00.996Z</time>
</trkpt>
<trkpt lat="42.6249690" lon="1.3557760">
<ele>1775.490479</ele>
<time>2013-09-29T22:00:00.996Z</time>
</trkpt>
<trkpt lat="42.6250020" lon="1.3559090">
<ele>1773.722534</ele>
<time>2013-09-29T22:00:00.996Z</time>
</trkpt>
<trkpt lat="42.6250310" lon="1.3560120">
<ele>1773.966553</ele>
<time>2013-09-29T22:00:00.996Z</time>
</trkpt>
<trkpt lat="42.6250860" lon="1.3563730">
<ele>1775.307617</ele>
<time>2013-09-29T22:00:00.996Z</time>
</trkpt>
<trkpt lat="42.6251180" lon="1.3566900">
<ele>1775.490479</ele>
<time>2013-09-29T22:00:00.996Z</time>
</trkpt>
<trkpt lat="42.6251470" lon="1.3568900">
<ele>1775.551392</ele>
<time>2013-09-29T22:00:00.996Z</time>
</trkpt>
<trkpt lat="42.6252080" lon="1.3570530">
<ele>1776.069580</ele>
<time>2013-09-29T22:00:00.996Z</time>
</trkpt>
<trkpt lat="42.6252870" lon="1.3571730">
<ele>1774.545654</ele>
<time>2013-09-29T22:00:00.996Z</time>
</trkpt>
<trkpt lat="42.6253830" lon="1.3573050">
<ele>1773.448242</ele>
<time>2013-09-29T22:00:00.996Z</time>
</trkpt>
<trkpt lat="42.6254430" lon="1.3573880">
<ele>1774.027344</ele>
<time>2013-09-29T22:00:00.996Z</time>
</trkpt>
<trkpt lat="42.6254850" lon="1.3575090">
<ele>1776.557251</ele>
<time>2013-09-29T22:00:00.996Z</time>
</trkpt>
<trkpt lat="42.6255240" lon="1.3576910">
<ele>1778.965210</ele>
<time>2013-09-29T22:00:00.996Z</time>
</trkpt>
<trkpt lat="42.6255430" lon="1.3578130">
<ele>1781.129272</ele>
<time>2013-09-29T22:00:00.996Z</time>
</trkpt>
<trkpt lat="42.6255810" lon="1.3579460">
<ele>1781.982666</ele>
<time>2013-09-29T22:00:00.996Z</time>
</trkpt>
<trkpt lat="42.6256010" lon="1.3580670">
<ele>1783.903076</ele>
<time>2013-09-29T22:00:00.996Z</time>
</trkpt>
<trkpt lat="42.6256300" lon="1.3581890">
<ele>1785.396484</ele>
<time>2013-09-29T22:00:00.996Z</time>
</trkpt>
<trkpt lat="42.6256810" lon="1.3583210">
<ele>1787.682495</ele>
<time>2013-09-29T22:00:00.996Z</time>
</trkpt>
<trkpt lat="42.6257140" lon="1.3583880">
<ele>1788.444458</ele>
<time>2013-09-29T22:00:00.996Z</time>
</trkpt>
<trkpt lat="42.6257550" lon="1.3584470">
<ele>1789.419800</ele>
<time>2013-09-29T22:00:00.996Z</time>
</trkpt>
<trkpt lat="42.6258240" lon="1.3585250">
<ele>1792.711670</ele>
<time>2013-09-29T22:00:00.996Z</time>
</trkpt>
<trkpt lat="42.6259150" lon="1.3586080">
<ele>1795.119629</ele>
<time>2013-09-29T22:00:00.996Z</time>
</trkpt>
<trkpt lat="42.6259790" lon="1.3586730">
<ele>1796.582520</ele>
<time>2013-09-29T22:00:00.996Z</time>
</trkpt>
<trkpt lat="42.6260470" lon="1.3587390">
<ele>1797.710449</ele>
<time>2013-09-29T22:00:00.996Z</time>
</trkpt>
<trkpt lat="42.6261160" lon="1.3588340">
<ele>1797.984741</ele>
<time>2013-09-29T22:00:00.996Z</time>
</trkpt>
<trkpt lat="42.6261530" lon="1.3588880">
<ele>1798.624756</ele>
<time>2013-09-29T22:00:00.996Z</time>
</trkpt>
<trkpt lat="42.6261900" lon="1.3589540">
<ele>1799.508667</ele>
<time>2013-09-29T22:00:00.996Z</time>
</trkpt>
<trkpt lat="42.6262090" lon="1.3590580">
<ele>1801.459351</ele>
<time>2013-09-29T22:00:00.996Z</time>
</trkpt>
<trkpt lat="42.6262290" lon="1.3591730">
<ele>1802.800659</ele>
<time>2013-09-29T22:00:00.996Z</time>
</trkpt>
<trkpt lat="42.6262400" lon="1.3592950">
<ele>1804.080688</ele>
<time>2013-09-29T22:00:00.996Z</time>
</trkpt>
<trkpt lat="42.6262590" lon="1.3593790">
<ele>1803.044434</ele>
<time>2013-09-29T22:00:00.996Z</time>
</trkpt>
<trkpt lat="42.6262690" lon="1.3594340">
<ele>1802.465332</ele>
<time>2013-09-29T22:00:00.996Z</time>
</trkpt>
<trkpt lat="42.6263060" lon="1.3595310">
<ele>1799.905029</ele>
<time>2013-09-29T22:00:00.996Z</time>
</trkpt>
<trkpt lat="42.6263390" lon="1.3596090">
<ele>1798.838257</ele>
<time>2013-09-29T22:00:00.996Z</time>
</trkpt>
<trkpt lat="42.6263440" lon="1.3596640">
<ele>1799.447876</ele>
<time>2013-09-29T22:00:00.996Z</time>
</trkpt>
<trkpt lat="42.6263270" lon="1.3597250">
<ele>1801.124268</ele>
<time>2013-09-29T22:00:00.996Z</time>
</trkpt>
<trkpt lat="42.6262920" lon="1.3597930">
<ele>1803.532104</ele>
<time>2013-09-29T22:00:00.996Z</time>
</trkpt>
<trkpt lat="42.6262750" lon="1.3598360">
<ele>1805.147461</ele>
<time>2013-09-29T22:00:00.996Z</time>
</trkpt>
<trkpt lat="42.6262670" lon="1.3599340">
<ele>1806.793335</ele>
<time>2013-09-29T22:00:00.996Z</time>
</trkpt>
<trkpt lat="42.6262600" lon="1.3600810">
<ele>1808.104126</ele>
<time>2013-09-29T22:00:00.996Z</time>
</trkpt>
<trkpt lat="42.6262570" lon="1.3602090">
<ele>1809.963379</ele>
<time>2013-09-29T22:00:00.996Z</time>
</trkpt>
<trkpt lat="42.6262540" lon="1.3603190">
<ele>1811.517822</ele>
<time>2013-09-29T22:00:00.996Z</time>
</trkpt>
<trkpt lat="42.6262690" lon="1.3605330">
<ele>1811.243530</ele>
<time>2013-09-29T22:00:00.996Z</time>
</trkpt>
<trkpt lat="42.6262480" lon="1.3606130">
<ele>1812.157837</ele>
<time>2013-09-29T22:00:00.996Z</time>
</trkpt>
<trkpt lat="42.6262130" lon="1.3606690">
<ele>1814.352539</ele>
<time>2013-09-29T22:00:00.996Z</time>
</trkpt>
<trkpt lat="42.6261840" lon="1.3607470">
<ele>1815.785034</ele>
<time>2013-09-29T22:00:00.996Z</time>
</trkpt>
<trkpt lat="42.6261540" lon="1.3608820">
<ele>1816.546997</ele>
<time>2013-09-29T22:00:00.996Z</time>
</trkpt>
<trkpt lat="42.6261340" lon="1.3610170">
<ele>1817.552856</ele>
<time>2013-09-29T22:00:00.996Z</time>
</trkpt>
<trkpt lat="42.6261220" lon="1.3611450">
<ele>1818.345459</ele>
<time>2013-09-29T22:00:00.996Z</time>
</trkpt>
<trkpt lat="42.6260970" lon="1.3612500">
<ele>1819.381714</ele>
<time>2013-09-29T22:00:00.996Z</time>
</trkpt>
<trkpt lat="42.6260800" lon="1.3613230">
<ele>1819.777832</ele>
<time>2013-09-29T22:00:00.996Z</time>
</trkpt>
<trkpt lat="42.6260190" lon="1.3614470">
<ele>1822.368652</ele>
<time>2013-09-29T22:00:00.996Z</time>
</trkpt>
<trkpt lat="42.6259660" lon="1.3615580">
<ele>1824.045044</ele>
<time>2013-09-29T22:00:00.996Z</time>
</trkpt>
<trkpt lat="42.6259050" lon="1.3616690">
<ele>1825.051025</ele>
<time>2013-09-29T22:00:00.996Z</time>
</trkpt>
<trkpt lat="42.6258700" lon="1.3617920">
<ele>1824.868164</ele>
<time>2013-09-29T22:00:00.996Z</time>
</trkpt>
<trkpt lat="42.6258180" lon="1.3619400">
<ele>1825.020508</ele>
<time>2013-09-29T22:00:00.996Z</time>
</trkpt>
<trkpt lat="42.6257760" lon="1.3620880">
<ele>1825.142456</ele>
<time>2013-09-29T22:00:00.996Z</time>
</trkpt>
<trkpt lat="42.6257280" lon="1.3622050">
<ele>1826.056763</ele>
<time>2013-09-29T22:00:00.996Z</time>
</trkpt>
<trkpt lat="42.6256360" lon="1.3624200">
<ele>1826.422607</ele>
<time>2013-09-29T22:00:00.996Z</time>
</trkpt>
<trkpt lat="42.6255750" lon="1.3625680">
<ele>1827.946655</ele>
<time>2013-09-29T22:00:00.996Z</time>
</trkpt>
<trkpt lat="42.6255060" lon="1.3627230">
<ele>1830.262939</ele>
<time>2013-09-29T22:00:00.996Z</time>
</trkpt>
<trkpt lat="42.6254620" lon="1.3628400">
<ele>1831.238403</ele>
<time>2013-09-29T22:00:00.996Z</time>
</trkpt>
<trkpt lat="42.6254060" lon="1.3629750">
<ele>1832.000366</ele>
<time>2013-09-29T22:00:00.996Z</time>
</trkpt>
<trkpt lat="42.6253520" lon="1.3631420">
<ele>1833.219604</ele>
<time>2013-09-29T22:00:00.996Z</time>
</trkpt>
<trkpt lat="42.6253230" lon="1.3632150">
<ele>1834.012085</ele>
<time>2013-09-29T22:00:00.996Z</time>
</trkpt>
<trkpt lat="42.6252890" lon="1.3633140">
<ele>1835.109375</ele>
<time>2013-09-29T22:00:00.996Z</time>
</trkpt>
<trkpt lat="42.6252860" lon="1.3633930">
<ele>1834.987427</ele>
<time>2013-09-29T22:00:00.996Z</time>
</trkpt>
<trkpt lat="42.6252730" lon="1.3634540">
<ele>1835.475098</ele>
<time>2013-09-29T22:00:00.996Z</time>
</trkpt>
<trkpt lat="42.6252470" lon="1.3635340">
<ele>1836.968628</ele>
<time>2013-09-29T22:00:00.996Z</time>
</trkpt>
<trkpt lat="42.6251950" lon="1.3636520">
<ele>1839.224243</ele>
<time>2013-09-29T22:00:00.996Z</time>
</trkpt>
<trkpt lat="42.6251630" lon="1.3637630">
<ele>1839.589844</ele>
<time>2013-09-29T22:00:00.996Z</time>
</trkpt>
<trkpt lat="42.6251300" lon="1.3638490">
<ele>1840.717651</ele>
<time>2013-09-29T22:00:00.996Z</time>
</trkpt>
<trkpt lat="42.6250950" lon="1.3639100">
<ele>1841.997803</ele>
<time>2013-09-29T22:00:00.996Z</time>
</trkpt>
<trkpt lat="42.6250550" lon="1.3639600">
<ele>1842.942749</ele>
<time>2013-09-29T22:00:00.996Z</time>
</trkpt>
<trkpt lat="42.6250340" lon="1.3640580">
<ele>1843.460938</ele>
<time>2013-09-29T22:00:00.996Z</time>
</trkpt>
<trkpt lat="42.6250340" lon="1.3641630">
<ele>1844.344849</ele>
<time>2013-09-29T22:00:00.996Z</time>
</trkpt>
<trkpt lat="42.6250240" lon="1.3643330">
<ele>1844.314331</ele>
<time>2013-09-29T22:00:00.996Z</time>
</trkpt>
<trkpt lat="42.6250180" lon="1.3644920">
<ele>1844.161865</ele>
<time>2013-09-29T22:00:00.996Z</time>
</trkpt>
<trkpt lat="42.6250200" lon="1.3646750">
<ele>1845.746948</ele>
<time>2013-09-29T22:00:00.996Z</time>
</trkpt>
<trkpt lat="42.6250090" lon="1.3648150">
<ele>1846.630859</ele>
<time>2013-09-29T22:00:00.996Z</time>
</trkpt>
<trkpt lat="42.6249890" lon="1.3649990">
<ele>1847.423340</ele>
<time>2013-09-29T22:00:00.996Z</time>
</trkpt>
<trkpt lat="42.6249600" lon="1.3651700">
<ele>1848.642456</ele>
<time>2013-09-29T22:00:00.996Z</time>
</trkpt>
<trkpt lat="42.6249670" lon="1.3653770">
<ele>1849.556885</ele>
<time>2013-09-29T22:00:00.996Z</time>
</trkpt>
<trkpt lat="42.6249820" lon="1.3656030">
<ele>1849.374023</ele>
<time>2013-09-29T22:00:00.996Z</time>
</trkpt>
<trkpt lat="42.6249720" lon="1.3658350">
<ele>1849.435059</ele>
<time>2013-09-29T22:00:00.996Z</time>
</trkpt>
<trkpt lat="42.6249520" lon="1.3660120">
<ele>1849.526367</ele>
<time>2013-09-29T22:00:00.996Z</time>
</trkpt>
<trkpt lat="42.6249400" lon="1.3661040">
<ele>1849.739868</ele>
<time>2013-09-29T22:00:00.996Z</time>
</trkpt>
<trkpt lat="42.6249350" lon="1.3662440">
<ele>1850.044678</ele>
<time>2013-09-29T22:00:00.996Z</time>
</trkpt>
<trkpt lat="42.6249360" lon="1.3663780">
<ele>1849.953125</ele>
<time>2013-09-29T22:00:00.996Z</time>
</trkpt>
<trkpt lat="42.6249380" lon="1.3664510">
<ele>1849.648315</ele>
<time>2013-09-29T22:00:00.996Z</time>
</trkpt>
<trkpt lat="42.6249390" lon="1.3665370">
<ele>1849.008179</ele>
<time>2013-09-29T22:00:00.996Z</time>
</trkpt>
<trkpt lat="42.6249400" lon="1.3666460">
<ele>1848.154785</ele>
<time>2013-09-29T22:00:00.996Z</time>
</trkpt>
<trkpt lat="42.6249390" lon="1.3669030">
<ele>1847.545166</ele>
<time>2013-09-29T22:00:00.996Z</time>
</trkpt>
<trkpt lat="42.6249380" lon="1.3670980">
<ele>1846.996582</ele>
<time>2013-09-29T22:00:00.996Z</time>
</trkpt>
<trkpt lat="42.6249400" lon="1.3672560">
<ele>1846.051758</ele>
<time>2013-09-29T22:00:00.996Z</time>
</trkpt>
<trkpt lat="42.6249240" lon="1.3674270">
<ele>1846.234619</ele>
<time>2013-09-29T22:00:00.996Z</time>
</trkpt>
<trkpt lat="42.6249090" lon="1.3675860">
<ele>1846.143066</ele>
<time>2013-09-29T22:00:00.996Z</time>
</trkpt>
<trkpt lat="42.6249020" lon="1.3677210">
<ele>1845.655396</ele>
<time>2013-09-29T22:00:00.996Z</time>
</trkpt>
<trkpt lat="42.6248680" lon="1.3678800">
<ele>1845.411621</ele>
<time>2013-09-29T22:00:00.996Z</time>
</trkpt>
<trkpt lat="42.6248430" lon="1.3680150">
<ele>1844.375366</ele>
<time>2013-09-29T22:00:00.996Z</time>
</trkpt>
<trkpt lat="42.6248350" lon="1.3681130">
<ele>1844.009521</ele>
<time>2013-09-29T22:00:00.996Z</time>
</trkpt>
<trkpt lat="42.6248320" lon="1.3681920">
<ele>1843.796265</ele>
<time>2013-09-29T22:00:00.996Z</time>
</trkpt>
<trkpt lat="42.6248330" lon="1.3682770">
<ele>1843.521729</ele>
<time>2013-09-29T22:00:00.996Z</time>
</trkpt>
<trkpt lat="42.6248330" lon="1.3682960">
<ele>1843.460938</ele>
<time>2013-09-29T22:00:00.996Z</time>
</trkpt>
<trkpt lat="42.6248290" lon="1.3683200">
<ele>1843.460938</ele>
<time>2013-09-29T22:00:00.996Z</time>
</trkpt>
<trkpt lat="42.6248210" lon="1.3683570">
<ele>1843.369385</ele>
<time>2013-09-29T22:00:00.996Z</time>
</trkpt>
<trkpt lat="42.6248030" lon="1.3684000">
<ele>1843.277954</ele>
<time>2013-09-29T22:00:00.996Z</time>
</trkpt>
<trkpt lat="42.6247770" lon="1.3684500">
<ele>1843.095093</ele>
<time>2013-09-29T22:00:00.996Z</time>
</trkpt>
<trkpt lat="42.6247510" lon="1.3685110">
<ele>1842.759766</ele>
<time>2013-09-29T22:00:00.996Z</time>
</trkpt>
<trkpt lat="42.6247340" lon="1.3685670">
<ele>1842.485474</ele>
<time>2013-09-29T22:00:00.996Z</time>
</trkpt>
<trkpt lat="42.6247260" lon="1.3686400">
<ele>1842.272217</ele>
<time>2013-09-29T22:00:00.996Z</time>
</trkpt>
<trkpt lat="42.6247220" lon="1.3687250">
<ele>1841.906372</ele>
<time>2013-09-29T22:00:00.996Z</time>
</trkpt>
<trkpt lat="42.6247140" lon="1.3688290">
<ele>1841.266235</ele>
<time>2013-09-29T22:00:00.996Z</time>
</trkpt>
<trkpt lat="42.6246930" lon="1.3689210">
<ele>1840.412964</ele>
<time>2013-09-29T22:00:00.996Z</time>
</trkpt>
<trkpt lat="42.6246490" lon="1.3690500">
<ele>1839.772827</ele>
<time>2013-09-29T22:00:00.996Z</time>
</trkpt>
<trkpt lat="42.6246330" lon="1.3691240">
<ele>1839.041260</ele>
<time>2013-09-29T22:00:00.996Z</time>
</trkpt>
<trkpt lat="42.6246190" lon="1.3691970">
<ele>1838.035400</ele>
<time>2013-09-29T22:00:00.996Z</time>
</trkpt>
<trkpt lat="42.6246030" lon="1.3693500">
<ele>1837.578125</ele>
<time>2013-09-29T22:00:00.996Z</time>
</trkpt>
<trkpt lat="42.6246010" lon="1.3695390">
<ele>1837.486816</ele>
<time>2013-09-29T22:00:00.996Z</time>
</trkpt>
<trkpt lat="42.6246000" lon="1.3697220">
<ele>1835.231323</ele>
<time>2013-09-29T22:00:00.996Z</time>
</trkpt>
<trkpt lat="42.6245930" lon="1.3698930">
<ele>1834.499878</ele>
<time>2013-09-29T22:00:00.996Z</time>
</trkpt>
<trkpt lat="42.6245860" lon="1.3700270">
<ele>1834.499878</ele>
<time>2013-09-29T22:00:00.996Z</time>
</trkpt>
<trkpt lat="42.6245700" lon="1.3701990">
<ele>1833.432983</ele>
<time>2013-09-29T22:00:00.996Z</time>
</trkpt>
<trkpt lat="42.6245540" lon="1.3702970">
<ele>1832.427124</ele>
<time>2013-09-29T22:00:00.996Z</time>
</trkpt>
<trkpt lat="42.6245330" lon="1.3704370">
<ele>1831.177368</ele>
<time>2013-09-29T22:00:00.996Z</time>
</trkpt>
<trkpt lat="42.6245310" lon="1.3705650">
<ele>1830.202148</ele>
<time>2013-09-29T22:00:00.996Z</time>
</trkpt>
<trkpt lat="42.6245420" lon="1.3707180">
<ele>1829.623047</ele>
<time>2013-09-29T22:00:00.996Z</time>
</trkpt>
<trkpt lat="42.6245620" lon="1.3708510">
<ele>1829.318237</ele>
<time>2013-09-29T22:00:00.996Z</time>
</trkpt>
<trkpt lat="42.6245810" lon="1.3709790">
<ele>1829.744873</ele>
<time>2013-09-29T22:00:00.996Z</time>
</trkpt>
<trkpt lat="42.6246200" lon="1.3711420">
<ele>1829.775391</ele>
<time>2013-09-29T22:00:00.996Z</time>
</trkpt>
<trkpt lat="42.6246310" lon="1.3712640">
<ele>1830.323975</ele>
<time>2013-09-29T22:00:00.996Z</time>
</trkpt>
<trkpt lat="42.6246590" lon="1.3713790">
<ele>1830.202148</ele>
<time>2013-09-29T22:00:00.996Z</time>
</trkpt>
<trkpt lat="42.6246780" lon="1.3714270">
<ele>1829.805786</ele>
<time>2013-09-29T22:00:00.996Z</time>
</trkpt>
<trkpt lat="42.6247110" lon="1.3715120">
<ele>1828.952393</ele>
<time>2013-09-29T22:00:00.996Z</time>
</trkpt>
<trkpt lat="42.6247290" lon="1.3715720">
<ele>1828.617065</ele>
<time>2013-09-29T22:00:00.996Z</time>
</trkpt>
<trkpt lat="42.6247390" lon="1.3716390">
<ele>1828.617065</ele>
<time>2013-09-29T22:00:00.996Z</time>
</trkpt>
<trkpt lat="42.6247400" lon="1.3716820">
<ele>1828.891357</ele>
<time>2013-09-29T22:00:00.996Z</time>
</trkpt>
<trkpt lat="42.6247320" lon="1.3717370">
<ele>1829.623047</ele>
<time>2013-09-29T22:00:00.996Z</time>
</trkpt>
<trkpt lat="42.6247150" lon="1.3718410">
<ele>1831.634521</ele>
<time>2013-09-29T22:00:00.996Z</time>
</trkpt>
<trkpt lat="42.6247210" lon="1.3719510">
<ele>1832.183350</ele>
<time>2013-09-29T22:00:00.996Z</time>
</trkpt>
<trkpt lat="42.6247410" lon="1.3720600">
<ele>1832.305176</ele>
<time>2013-09-29T22:00:00.996Z</time>
</trkpt>
<trkpt lat="42.6247520" lon="1.3722120">
<ele>1834.316895</ele>
<time>2013-09-29T22:00:00.996Z</time>
</trkpt>
<trkpt lat="42.6247720" lon="1.3723640">
<ele>1834.957031</ele>
<time>2013-09-29T22:00:00.996Z</time>
</trkpt>
<trkpt lat="42.6248100" lon="1.3724970">
<ele>1833.158569</ele>
<time>2013-09-29T22:00:00.996Z</time>
</trkpt>
<trkpt lat="42.6248390" lon="1.3726430">
<ele>1831.848022</ele>
<time>2013-09-29T22:00:00.996Z</time>
</trkpt>
<trkpt lat="42.6248770" lon="1.3727640">
<ele>1831.482178</ele>
<time>2013-09-29T22:00:00.996Z</time>
</trkpt>
<trkpt lat="42.6249010" lon="1.3728970">
<ele>1832.701416</ele>
<time>2013-09-29T22:00:00.996Z</time>
</trkpt>
<trkpt lat="42.6249120" lon="1.3730130">
<ele>1834.195068</ele>
<time>2013-09-29T22:00:00.996Z</time>
</trkpt>
<trkpt lat="42.6249250" lon="1.3731580">
<ele>1835.292236</ele>
<time>2013-09-29T22:00:00.996Z</time>
</trkpt>
<trkpt lat="42.6249400" lon="1.3732680">
<ele>1834.591187</ele>
<time>2013-09-29T22:00:00.996Z</time>
</trkpt>
<trkpt lat="42.6249680" lon="1.3733890">
<ele>1832.762451</ele>
<time>2013-09-29T22:00:00.996Z</time>
</trkpt>
<trkpt lat="42.6249870" lon="1.3735290">
<ele>1831.786987</ele>
<time>2013-09-29T22:00:00.996Z</time>
</trkpt>
<trkpt lat="42.6249890" lon="1.3736810">
<ele>1832.884277</ele>
<time>2013-09-29T22:00:00.996Z</time>
</trkpt>
<trkpt lat="42.6249690" lon="1.3738220">
<ele>1836.267578</ele>
<time>2013-09-29T22:00:00.996Z</time>
</trkpt>
<trkpt lat="42.6249570" lon="1.3739500">
<ele>1836.968628</ele>
<time>2013-09-29T22:00:00.996Z</time>
</trkpt>
<trkpt lat="42.6249410" lon="1.3740910">
<ele>1837.364868</ele>
<time>2013-09-29T22:00:00.996Z</time>
</trkpt>
<trkpt lat="42.6249250" lon="1.3741520">
<ele>1838.340210</ele>
<time>2013-09-29T22:00:00.996Z</time>
</trkpt>
<trkpt lat="42.6249180" lon="1.3742980">
<ele>1838.645020</ele>
<time>2013-09-29T22:00:00.996Z</time>
</trkpt>
<trkpt lat="42.6249270" lon="1.3743720">
<ele>1838.187744</ele>
<time>2013-09-29T22:00:00.996Z</time>
</trkpt>
<trkpt lat="42.6249380" lon="1.3745120">
<ele>1837.364868</ele>
<time>2013-09-29T22:00:00.996Z</time>
</trkpt>
<trkpt lat="42.6249580" lon="1.3746330">
<ele>1836.694336</ele>
<time>2013-09-29T22:00:00.996Z</time>
</trkpt>
<trkpt lat="42.6249910" lon="1.3747730">
<ele>1836.694336</ele>
<time>2013-09-29T22:00:00.996Z</time>
</trkpt>
<trkpt lat="42.6250200" lon="1.3749120">
<ele>1837.364868</ele>
<time>2013-09-29T22:00:00.996Z</time>
</trkpt>
<trkpt lat="42.6250180" lon="1.3750830">
<ele>1839.803345</ele>
<time>2013-09-29T22:00:00.996Z</time>
</trkpt>
<trkpt lat="42.6249970" lon="1.3752110">
<ele>1842.272217</ele>
<time>2013-09-29T22:00:00.996Z</time>
</trkpt>
<trkpt lat="42.6249900" lon="1.3753400">
<ele>1841.875854</ele>
<time>2013-09-29T22:00:00.996Z</time>
</trkpt>
<trkpt lat="42.6249970" lon="1.3755040">
<ele>1838.888916</ele>
<time>2013-09-29T22:00:00.996Z</time>
</trkpt>
<trkpt lat="42.6249990" lon="1.3756500">
<ele>1838.766968</ele>
<time>2013-09-29T22:00:00.996Z</time>
</trkpt>
<trkpt lat="42.6249780" lon="1.3757910">
<ele>1841.540527</ele>
<time>2013-09-29T22:00:00.996Z</time>
</trkpt>
<trkpt lat="42.6249670" lon="1.3759440">
<ele>1843.125610</ele>
<time>2013-09-29T22:00:00.996Z</time>
</trkpt>
<trkpt lat="42.6249690" lon="1.3760900">
<ele>1843.430420</ele>
<time>2013-09-29T22:00:00.996Z</time>
</trkpt>
<trkpt lat="42.6249670" lon="1.3762610">
<ele>1842.973145</ele>
<time>2013-09-29T22:00:00.996Z</time>
</trkpt>
<trkpt lat="42.6249690" lon="1.3764010">
<ele>1840.717651</ele>
<time>2013-09-29T22:00:00.996Z</time>
</trkpt>
<trkpt lat="42.6249850" lon="1.3765470">
<ele>1836.420044</ele>
<time>2013-09-29T22:00:00.996Z</time>
</trkpt>
<trkpt lat="42.6249690" lon="1.3767120">
<ele>1834.316895</ele>
<time>2013-09-29T22:00:00.996Z</time>
</trkpt>
<trkpt lat="42.6249480" lon="1.3768530">
<ele>1834.469360</ele>
<time>2013-09-29T22:00:00.996Z</time>
</trkpt>
<trkpt lat="42.6249550" lon="1.3769750">
<ele>1832.305176</ele>
<time>2013-09-29T22:00:00.996Z</time>
</trkpt>
<trkpt lat="42.6249570" lon="1.3771390">
<ele>1831.573730</ele>
<time>2013-09-29T22:00:00.996Z</time>
</trkpt>
<trkpt lat="42.6249590" lon="1.3772910">
<ele>1827.123657</ele>
<time>2013-09-29T22:00:00.996Z</time>
</trkpt>
<trkpt lat="42.6249880" lon="1.3774130">
<ele>1823.313599</ele>
<time>2013-09-29T22:00:00.996Z</time>
</trkpt>
<trkpt lat="42.6250120" lon="1.3775040">
<ele>1821.240967</ele>
<time>2013-09-29T22:00:00.996Z</time>
</trkpt>
<trkpt lat="42.6250220" lon="1.3775830">
<ele>1819.564575</ele>
<time>2013-09-29T22:00:00.996Z</time>
</trkpt>
<trkpt lat="42.6250140" lon="1.3776620">
<ele>1819.503540</ele>
<time>2013-09-29T22:00:00.996Z</time>
</trkpt>
<trkpt lat="42.6249840" lon="1.3777850">
<ele>1821.972534</ele>
<time>2013-09-29T22:00:00.996Z</time>
</trkpt>
<trkpt lat="42.6249680" lon="1.3779070">
<ele>1822.246826</ele>
<time>2013-09-29T22:00:00.996Z</time>
</trkpt>
<trkpt lat="42.6249780" lon="1.3780100">
<ele>1820.143677</ele>
<time>2013-09-29T22:00:00.996Z</time>
</trkpt>
<trkpt lat="42.6249990" lon="1.3781620">
<ele>1816.973877</ele>
<time>2013-09-29T22:00:00.996Z</time>
</trkpt>
<trkpt lat="42.6250190" lon="1.3783080">
<ele>1815.449829</ele>
<time>2013-09-29T22:00:00.996Z</time>
</trkpt>
<trkpt lat="42.6250300" lon="1.3784540">
<ele>1814.047729</ele>
<time>2013-09-29T22:00:00.996Z</time>
</trkpt>
<trkpt lat="42.6250180" lon="1.3785760">
<ele>1813.499023</ele>
<time>2013-09-29T22:00:00.996Z</time>
</trkpt>
<trkpt lat="42.6249880" lon="1.3786990">
<ele>1815.663086</ele>
<time>2013-09-29T22:00:00.996Z</time>
</trkpt>
<trkpt lat="42.6249710" lon="1.3787850">
<ele>1816.089722</ele>
<time>2013-09-29T22:00:00.996Z</time>
</trkpt>
<trkpt lat="42.6249320" lon="1.3788960">
<ele>1817.583374</ele>
<time>2013-09-29T22:00:00.996Z</time>
</trkpt>
<trkpt lat="42.6248930" lon="1.3789940">
<ele>1820.265625</ele>
<time>2013-09-29T22:00:00.996Z</time>
</trkpt>
<trkpt lat="42.6248640" lon="1.3791290">
<ele>1822.094360</ele>
<time>2013-09-29T22:00:00.996Z</time>
</trkpt>
<trkpt lat="42.6248510" lon="1.3792150">
<ele>1821.149536</ele>
<time>2013-09-29T22:00:00.996Z</time>
</trkpt>
<trkpt lat="42.6248440" lon="1.3793130">
<ele>1818.772095</ele>
<time>2013-09-29T22:00:00.996Z</time>
</trkpt>
<trkpt lat="42.6248270" lon="1.3793740">
<ele>1819.717041</ele>
<time>2013-09-29T22:00:00.996Z</time>
</trkpt>
<trkpt lat="42.6248010" lon="1.3794420">
<ele>1822.063843</ele>
<time>2013-09-29T22:00:00.996Z</time>
</trkpt>
<trkpt lat="42.6247790" lon="1.3794910">
<ele>1824.106079</ele>
<time>2013-09-29T22:00:00.996Z</time>
</trkpt>
<trkpt lat="42.6247720" lon="1.3795270">
<ele>1824.471802</ele>
<time>2013-09-29T22:00:00.996Z</time>
</trkpt>
<trkpt lat="42.6247750" lon="1.3795580">
<ele>1823.770752</ele>
<time>2013-09-29T22:00:00.996Z</time>
</trkpt>
<trkpt lat="42.6247850" lon="1.3796190">
<ele>1822.277344</ele>
<time>2013-09-29T22:00:00.996Z</time>
</trkpt>
<trkpt lat="42.6247870" lon="1.3796480">
<ele>1821.728638</ele>
<time>2013-09-29T22:00:00.996Z</time>
</trkpt>
<trkpt lat="42.6247810" lon="1.3796800">
<ele>1821.576172</ele>
<time>2013-09-29T22:00:00.996Z</time>
</trkpt>
<trkpt lat="42.6247600" lon="1.3797600">
<ele>1819.991333</ele>
<time>2013-09-29T22:00:00.996Z</time>
</trkpt>
<trkpt lat="42.6247310" lon="1.3798390">
<ele>1818.619751</ele>
<time>2013-09-29T22:00:00.996Z</time>
</trkpt>
<trkpt lat="42.6247090" lon="1.3798880">
<ele>1817.766235</ele>
<time>2013-09-29T22:00:00.996Z</time>
</trkpt>
<trkpt lat="42.6246870" lon="1.3799380">
<ele>1817.278564</ele>
<time>2013-09-29T22:00:00.996Z</time>
</trkpt>
<trkpt lat="42.6246730" lon="1.3799820">
<ele>1816.912842</ele>
<time>2013-09-29T22:00:00.996Z</time>
</trkpt>
<trkpt lat="42.6246560" lon="1.3800490">
<ele>1816.455566</ele>
<time>2013-09-29T22:00:00.996Z</time>
</trkpt>
<trkpt lat="42.6246410" lon="1.3801220">
<ele>1815.449829</ele>
<time>2013-09-29T22:00:00.996Z</time>
</trkpt>
<trkpt lat="42.6246370" lon="1.3801770">
<ele>1814.413330</ele>
<time>2013-09-29T22:00:00.996Z</time>
</trkpt>
<trkpt lat="42.6246380" lon="1.3802320">
<ele>1812.980957</ele>
<time>2013-09-29T22:00:00.996Z</time>
</trkpt>
<trkpt lat="42.6246530" lon="1.3803350">
<ele>1808.896606</ele>
<time>2013-09-29T22:00:00.996Z</time>
</trkpt>
<trkpt lat="42.6246720" lon="1.3804560">
<ele>1803.958740</ele>
<time>2013-09-29T22:00:00.996Z</time>
</trkpt>
<trkpt lat="42.6246820" lon="1.3805350">
<ele>1801.703369</ele>
<time>2013-09-29T22:00:00.996Z</time>
</trkpt>
<trkpt lat="42.6246930" lon="1.3806200">
<ele>1799.295410</ele>
<time>2013-09-29T22:00:00.996Z</time>
</trkpt>
<trkpt lat="42.6246940" lon="1.3806870">
<ele>1797.557983</ele>
<time>2013-09-29T22:00:00.996Z</time>
</trkpt>
<trkpt lat="42.6246900" lon="1.3807420">
<ele>1796.430176</ele>
<time>2013-09-29T22:00:00.996Z</time>
</trkpt>
<trkpt lat="42.6246820" lon="1.3807910">
<ele>1795.576782</ele>
<time>2013-09-29T22:00:00.996Z</time>
</trkpt>
<trkpt lat="42.6246640" lon="1.3808470">
<ele>1795.363403</ele>
<time>2013-09-29T22:00:00.996Z</time>
</trkpt>
<trkpt lat="42.6246410" lon="1.3809030">
<ele>1795.393921</ele>
<time>2013-09-29T22:00:00.996Z</time>
</trkpt>
<trkpt lat="42.6245890" lon="1.3810320">
<ele>1794.296631</ele>
<time>2013-09-29T22:00:00.996Z</time>
</trkpt>
<trkpt lat="42.6245270" lon="1.3811380">
<ele>1796.216919</ele>
<time>2013-09-29T22:00:00.996Z</time>
</trkpt>
<trkpt lat="42.6243910" lon="1.3813610">
<ele>1799.264893</ele>
<time>2013-09-29T22:00:00.996Z</time>
</trkpt>
<trkpt lat="42.6242670" lon="1.3815410">
<ele>1803.074951</ele>
<time>2013-09-29T22:00:00.996Z</time>
</trkpt>
<trkpt lat="42.6242230" lon="1.3816030">
<ele>1804.263550</ele>
<time>2013-09-29T22:00:00.996Z</time>
</trkpt>
<trkpt lat="42.6241320" lon="1.3817440">
<ele>1808.591797</ele>
<time>2013-09-29T22:00:00.996Z</time>
</trkpt>
<trkpt lat="42.6240920" lon="1.3818000">
<ele>1809.353760</ele>
<time>2013-09-29T22:00:00.996Z</time>
</trkpt>
<trkpt lat="42.6240660" lon="1.3818440">
<ele>1809.262329</ele>
<time>2013-09-29T22:00:00.996Z</time>
</trkpt>
<trkpt lat="42.6240490" lon="1.3818810">
<ele>1808.896606</ele>
<time>2013-09-29T22:00:00.996Z</time>
</trkpt>
<trkpt lat="42.6240400" lon="1.3819050">
<ele>1808.500244</ele>
<time>2013-09-29T22:00:00.996Z</time>
</trkpt>
<trkpt lat="42.6240310" lon="1.3819360">
<ele>1807.921143</ele>
<time>2013-09-29T22:00:00.996Z</time>
</trkpt>
<trkpt lat="42.6240260" lon="1.3819680">
<ele>1807.189697</ele>
<time>2013-09-29T22:00:00.996Z</time>
</trkpt>
<trkpt lat="42.6240230" lon="1.3819970">
<ele>1806.671509</ele>
<time>2013-09-29T22:00:00.996Z</time>
</trkpt>
<trkpt lat="42.6240240" lon="1.3820340">
<ele>1805.787598</ele>
<time>2013-09-29T22:00:00.996Z</time>
</trkpt>
<trkpt lat="42.6240240" lon="1.3820700">
<ele>1804.903687</ele>
<time>2013-09-29T22:00:00.996Z</time>
</trkpt>
<trkpt lat="42.6240190" lon="1.3821140">
<ele>1804.111206</ele>
<time>2013-09-29T22:00:00.996Z</time>
</trkpt>
<trkpt lat="42.6240110" lon="1.3821630">
<ele>1803.684570</ele>
<time>2013-09-29T22:00:00.996Z</time>
</trkpt>
<trkpt lat="42.6239980" lon="1.3822250">
<ele>1803.471069</ele>
<time>2013-09-29T22:00:00.996Z</time>
</trkpt>
<trkpt lat="42.6239780" lon="1.3822970">
<ele>1803.196777</ele>
<time>2013-09-29T22:00:00.996Z</time>
</trkpt>
<trkpt lat="42.6239500" lon="1.3823600">
<ele>1802.983398</ele>
<time>2013-09-29T22:00:00.996Z</time>
</trkpt>
<trkpt lat="42.6239240" lon="1.3824220">
<ele>1803.135742</ele>
<time>2013-09-29T22:00:00.996Z</time>
</trkpt>
<trkpt lat="42.6238980" lon="1.3824830">
<ele>1803.562622</ele>
<time>2013-09-29T22:00:00.996Z</time>
</trkpt>
<trkpt lat="42.6238850" lon="1.3825320">
<ele>1803.532104</ele>
<time>2013-09-29T22:00:00.996Z</time>
</trkpt>
<trkpt lat="42.6238740" lon="1.3825920">
<ele>1803.349243</ele>
<time>2013-09-29T22:00:00.996Z</time>
</trkpt>
<trkpt lat="42.6238660" lon="1.3826720">
<ele>1802.251831</ele>
<time>2013-09-29T22:00:00.996Z</time>
</trkpt>
<trkpt lat="42.6238670" lon="1.3827270">
<ele>1801.032715</ele>
<time>2013-09-29T22:00:00.996Z</time>
</trkpt>
<trkpt lat="42.6238770" lon="1.3829100">
<ele>1798.076172</ele>
<time>2013-09-29T22:00:00.996Z</time>
</trkpt>
<trkpt lat="42.6238780" lon="1.3829650">
<ele>1797.862793</ele>
<time>2013-09-29T22:00:00.996Z</time>
</trkpt>
<trkpt lat="42.6238750" lon="1.3829890">
<ele>1797.954224</ele>
<time>2013-09-29T22:00:00.996Z</time>
</trkpt>
<trkpt lat="42.6238690" lon="1.3830080">
<ele>1798.167603</ele>
<time>2013-09-29T22:00:00.996Z</time>
</trkpt>
<trkpt lat="42.6238520" lon="1.3830570">
<ele>1798.137085</ele>
<time>2013-09-29T22:00:00.996Z</time>
</trkpt>
<trkpt lat="42.6238400" lon="1.3830810">
<ele>1798.319946</ele>
<time>2013-09-29T22:00:00.996Z</time>
</trkpt>
<trkpt lat="42.6238260" lon="1.3831070">
<ele>1798.533447</ele>
<time>2013-09-29T22:00:00.996Z</time>
</trkpt>
<trkpt lat="42.6238010" lon="1.3831490">
<ele>1799.356323</ele>
<time>2013-09-29T22:00:00.996Z</time>
</trkpt>
<trkpt lat="42.6237740" lon="1.3831920">
<ele>1800.605957</ele>
<time>2013-09-29T22:00:00.996Z</time>
</trkpt>
<trkpt lat="42.6237610" lon="1.3832230">
<ele>1801.489868</ele>
<time>2013-09-29T22:00:00.996Z</time>
</trkpt>
<trkpt lat="42.6237480" lon="1.3832660">
<ele>1802.495850</ele>
<time>2013-09-29T22:00:00.996Z</time>
</trkpt>
<trkpt lat="42.6237360" lon="1.3833340">
<ele>1803.714966</ele>
<time>2013-09-29T22:00:00.996Z</time>
</trkpt>
<trkpt lat="42.6237310" lon="1.3834020">
<ele>1804.659790</ele>
<time>2013-09-29T22:00:00.996Z</time>
</trkpt>
<trkpt lat="42.6237370" lon="1.3834810">
<ele>1805.421753</ele>
<time>2013-09-29T22:00:00.996Z</time>
</trkpt>
<trkpt lat="42.6237520" lon="1.3835970">
<ele>1805.543823</ele>
<time>2013-09-29T22:00:00.996Z</time>
</trkpt>
<trkpt lat="42.6237720" lon="1.3837910">
<ele>1805.239014</ele>
<time>2013-09-29T22:00:00.996Z</time>
</trkpt>
<trkpt lat="42.6237740" lon="1.3838760">
<ele>1805.604736</ele>
<time>2013-09-29T22:00:00.996Z</time>
</trkpt>
<trkpt lat="42.6237700" lon="1.3839740">
<ele>1806.366699</ele>
<time>2013-09-29T22:00:00.996Z</time>
</trkpt>
<trkpt lat="42.6237580" lon="1.3840720">
<ele>1806.793335</ele>
<time>2013-09-29T22:00:00.996Z</time>
</trkpt>
<trkpt lat="42.6237330" lon="1.3841580">
<ele>1807.067871</ele>
<time>2013-09-29T22:00:00.996Z</time>
</trkpt>
<trkpt lat="42.6237110" lon="1.3842200">
<ele>1807.037354</ele>
<time>2013-09-29T22:00:00.996Z</time>
</trkpt>
<trkpt lat="42.6236800" lon="1.3842870">
<ele>1807.890747</ele>
<time>2013-09-29T22:00:00.996Z</time>
</trkpt>
<trkpt lat="42.6236630" lon="1.3843180">
<ele>1808.866089</ele>
<time>2013-09-29T22:00:00.996Z</time>
</trkpt>
<trkpt lat="42.6236380" lon="1.3843480">
<ele>1810.420654</ele>
<time>2013-09-29T22:00:00.996Z</time>
</trkpt>
<trkpt lat="42.6236180" lon="1.3843620">
<ele>1811.700684</ele>
<time>2013-09-29T22:00:00.996Z</time>
</trkpt>
<trkpt lat="42.6235790" lon="1.3843800">
<ele>1813.681885</ele>
<time>2013-09-29T22:00:00.996Z</time>
</trkpt>
<trkpt lat="42.6235530" lon="1.3844110">
<ele>1815.297363</ele>
<time>2013-09-29T22:00:00.996Z</time>
</trkpt>
<trkpt lat="42.6235470" lon="1.3844430">
<ele>1815.906982</ele>
<time>2013-09-29T22:00:00.996Z</time>
</trkpt>
<trkpt lat="42.6235450" lon="1.3844850">
<ele>1816.272705</ele>
<time>2013-09-29T22:00:00.996Z</time>
</trkpt>
<trkpt lat="42.6235500" lon="1.3845330">
<ele>1816.729858</ele>
<time>2013-09-29T22:00:00.996Z</time>
</trkpt>
<trkpt lat="42.6235550" lon="1.3845820">
<ele>1817.187134</ele>
<time>2013-09-29T22:00:00.996Z</time>
</trkpt>
<trkpt lat="42.6235650" lon="1.3846550">
<ele>1817.796631</ele>
<time>2013-09-29T22:00:00.996Z</time>
</trkpt>
<trkpt lat="42.6235710" lon="1.3847030">
<ele>1818.131958</ele>
<time>2013-09-29T22:00:00.996Z</time>
</trkpt>
<trkpt lat="42.6235710" lon="1.3847520">
<ele>1818.314941</ele>
<time>2013-09-29T22:00:00.996Z</time>
</trkpt>
<trkpt lat="42.6235670" lon="1.3848010">
<ele>1818.284424</ele>
<time>2013-09-29T22:00:00.996Z</time>
</trkpt>
<trkpt lat="42.6235580" lon="1.3848580">
<ele>1818.192993</ele>
<time>2013-09-29T22:00:00.996Z</time>
</trkpt>
<trkpt lat="42.6235360" lon="1.3849370">
<ele>1818.650269</ele>
<time>2013-09-29T22:00:00.996Z</time>
</trkpt>
<trkpt lat="42.6234730" lon="1.3851200">
<ele>1819.594971</ele>
<time>2013-09-29T22:00:00.996Z</time>
</trkpt>
<trkpt lat="42.6234150" lon="1.3852880">
<ele>1820.052124</ele>
<time>2013-09-29T22:00:00.996Z</time>
</trkpt>
<trkpt lat="42.6233940" lon="1.3853740">
<ele>1820.265625</ele>
<time>2013-09-29T22:00:00.996Z</time>
</trkpt>
<trkpt lat="42.6233770" lon="1.3854230">
<ele>1819.899780</ele>
<time>2013-09-29T22:00:00.996Z</time>
</trkpt>
<trkpt lat="42.6233550" lon="1.3854600">
<ele>1819.777832</ele>
<time>2013-09-29T22:00:00.996Z</time>
</trkpt>
<trkpt lat="42.6233280" lon="1.3854850">
<ele>1820.143677</ele>
<time>2013-09-29T22:00:00.996Z</time>
</trkpt>
<trkpt lat="42.6232830" lon="1.3855050">
<ele>1821.393433</ele>
<time>2013-09-29T22:00:00.996Z</time>
</trkpt>
<trkpt lat="42.6232120" lon="1.3855250">
<ele>1822.947754</ele>
<time>2013-09-29T22:00:00.996Z</time>
</trkpt>
<trkpt lat="42.6230910" lon="1.3855650">
<ele>1823.465942</ele>
<time>2013-09-29T22:00:00.996Z</time>
</trkpt>
<trkpt lat="42.6230230" lon="1.3855910">
<ele>1824.746216</ele>
<time>2013-09-29T22:00:00.996Z</time>
</trkpt>
<trkpt lat="42.6229760" lon="1.3856150">
<ele>1825.203369</ele>
<time>2013-09-29T22:00:00.996Z</time>
</trkpt>
<trkpt lat="42.6229350" lon="1.3856400">
<ele>1825.020508</ele>
<time>2013-09-29T22:00:00.996Z</time>
</trkpt>
<trkpt lat="42.6228730" lon="1.3856850">
<ele>1825.691040</ele>
<time>2013-09-29T22:00:00.996Z</time>
</trkpt>
<trkpt lat="42.6227600" lon="1.3857740">
<ele>1829.043823</ele>
<time>2013-09-29T22:00:00.996Z</time>
</trkpt>
<trkpt lat="42.6226760" lon="1.3858560">
<ele>1830.202148</ele>
<time>2013-09-29T22:00:00.996Z</time>
</trkpt>
<trkpt lat="42.6226270" lon="1.3859060">
<ele>1830.903076</ele>
<time>2013-09-29T22:00:00.996Z</time>
</trkpt>
<trkpt lat="42.6225600" lon="1.3859560">
<ele>1832.457642</ele>
<time>2013-09-29T22:00:00.996Z</time>
</trkpt>
<trkpt lat="42.6223860" lon="1.3860460">
<ele>1834.499878</ele>
<time>2013-09-29T22:00:00.996Z</time>
</trkpt>
<trkpt lat="42.6222210" lon="1.3861360">
<ele>1837.334351</ele>
<time>2013-09-29T22:00:00.996Z</time>
</trkpt>
<trkpt lat="42.6221800" lon="1.3861610">
<ele>1838.248779</ele>
<time>2013-09-29T22:00:00.996Z</time>
</trkpt>
<trkpt lat="42.6221040" lon="1.3862000">
<ele>1839.346069</ele>
<time>2013-09-29T22:00:00.996Z</time>
</trkpt>
<trkpt lat="42.6220460" lon="1.3862200">
<ele>1839.864136</ele>
<time>2013-09-29T22:00:00.996Z</time>
</trkpt>
<trkpt lat="42.6219700" lon="1.3862460">
<ele>1840.412964</ele>
<time>2013-09-29T22:00:00.996Z</time>
</trkpt>
<trkpt lat="42.6218580" lon="1.3862730">
<ele>1841.113892</ele>
<time>2013-09-29T22:00:00.996Z</time>
</trkpt>
<trkpt lat="42.6217540" lon="1.3862820">
<ele>1842.485474</ele>
<time>2013-09-29T22:00:00.996Z</time>
</trkpt>
<trkpt lat="42.6217050" lon="1.3862890">
<ele>1843.247437</ele>
<time>2013-09-29T22:00:00.996Z</time>
</trkpt>
<trkpt lat="42.6216710" lon="1.3863190">
<ele>1843.430420</ele>
<time>2013-09-29T22:00:00.996Z</time>
</trkpt>
<trkpt lat="42.6216440" lon="1.3863570">
<ele>1843.338989</ele>
<time>2013-09-29T22:00:00.996Z</time>
</trkpt>
<trkpt lat="42.6216180" lon="1.3864000">
<ele>1842.637939</ele>
<time>2013-09-29T22:00:00.996Z</time>
</trkpt>
<trkpt lat="42.6215510" lon="1.3865190">
<ele>1841.388184</ele>
<time>2013-09-29T22:00:00.996Z</time>
</trkpt>
<trkpt lat="42.6215380" lon="1.3865500">
<ele>1841.662598</ele>
<time>2013-09-29T22:00:00.996Z</time>
</trkpt>
<trkpt lat="42.6215340" lon="1.3865930">
<ele>1841.845337</ele>
<time>2013-09-29T22:00:00.996Z</time>
</trkpt>
<trkpt lat="42.6215520" lon="1.3866290">
<ele>1842.028320</ele>
<time>2013-09-29T22:00:00.996Z</time>
</trkpt>
<trkpt lat="42.6216430" lon="1.3867120">
<ele>1843.399902</ele>
<time>2013-09-29T22:00:00.996Z</time>
</trkpt>
<trkpt lat="42.6216680" lon="1.3867460">
<ele>1844.070557</ele>
<time>2013-09-29T22:00:00.996Z</time>
</trkpt>
<trkpt lat="42.6217080" lon="1.3868320">
<ele>1844.863037</ele>
<time>2013-09-29T22:00:00.996Z</time>
</trkpt>
<trkpt lat="42.6217330" lon="1.3868780">
<ele>1845.411621</ele>
<time>2013-09-29T22:00:00.996Z</time>
</trkpt>
<trkpt lat="42.6217820" lon="1.3869340">
<ele>1846.386963</ele>
<time>2013-09-29T22:00:00.996Z</time>
</trkpt>
<trkpt lat="42.6218510" lon="1.3870030">
<ele>1847.758667</ele>
<time>2013-09-29T22:00:00.996Z</time>
</trkpt>
<trkpt lat="42.6219020" lon="1.3870570">
<ele>1849.343506</ele>
<time>2013-09-29T22:00:00.996Z</time>
</trkpt>
<trkpt lat="42.6219830" lon="1.3871040">
<ele>1851.111450</ele>
<time>2013-09-29T22:00:00.996Z</time>
</trkpt>
<trkpt lat="42.6220560" lon="1.3871380">
<ele>1852.269653</ele>
<time>2013-09-29T22:00:00.996Z</time>
</trkpt>
<trkpt lat="42.6221010" lon="1.3871490">
<ele>1852.879150</ele>
<time>2013-09-29T22:00:00.996Z</time>
</trkpt>
<trkpt lat="42.6221560" lon="1.3871970">
<ele>1854.128906</ele>
<time>2013-09-29T22:00:00.996Z</time>
</trkpt>
<trkpt lat="42.6221880" lon="1.3872390">
<ele>1854.616577</ele>
<time>2013-09-29T22:00:00.996Z</time>
</trkpt>
<trkpt lat="42.6222210" lon="1.3873290">
<ele>1855.805298</ele>
<time>2013-09-29T22:00:00.996Z</time>
</trkpt>
<trkpt lat="42.6222480" lon="1.3873770">
<ele>1855.896729</ele>
<time>2013-09-29T22:00:00.996Z</time>
</trkpt>
<trkpt lat="42.6222710" lon="1.3874130">
<ele>1855.835815</ele>
<time>2013-09-29T22:00:00.996Z</time>
</trkpt>
<trkpt lat="42.6222950" lon="1.3874550">
<ele>1855.866211</ele>
<time>2013-09-29T22:00:00.996Z</time>
</trkpt>
<trkpt lat="42.6223140" lon="1.3875280">
<ele>1856.110107</ele>
<time>2013-09-29T22:00:00.996Z</time>
</trkpt>
<trkpt lat="42.6223770" lon="1.3876190">
<ele>1855.622437</ele>
<time>2013-09-29T22:00:00.996Z</time>
</trkpt>
<trkpt lat="42.6224860" lon="1.3877390">
<ele>1856.567261</ele>
<time>2013-09-29T22:00:00.996Z</time>
</trkpt>
<trkpt lat="42.6225870" lon="1.3878210">
<ele>1855.927246</ele>
<time>2013-09-29T22:00:00.996Z</time>
</trkpt>
<trkpt lat="42.6226700" lon="1.3879030">
<ele>1856.689209</ele>
<time>2013-09-29T22:00:00.996Z</time>
</trkpt>
<trkpt lat="42.6227320" lon="1.3879330">
<ele>1857.115845</ele>
<time>2013-09-29T22:00:00.996Z</time>
</trkpt>
<trkpt lat="42.6228100" lon="1.3879480">
<ele>1857.176880</ele>
<time>2013-09-29T22:00:00.996Z</time>
</trkpt>
<trkpt lat="42.6229010" lon="1.3880010">
<ele>1858.213257</ele>
<time>2013-09-29T22:00:00.996Z</time>
</trkpt>
<trkpt lat="42.6229550" lon="1.3880300">
<ele>1858.548462</ele>
<time>2013-09-29T22:00:00.996Z</time>
</trkpt>
<trkpt lat="42.6230240" lon="1.3880890">
<ele>1860.255371</ele>
<time>2013-09-29T22:00:00.996Z</time>
</trkpt>
<trkpt lat="42.6230500" lon="1.3881080">
<ele>1860.895386</ele>
<time>2013-09-29T22:00:00.996Z</time>
</trkpt>
<trkpt lat="42.6231130" lon="1.3881370">
<ele>1861.931763</ele>
<time>2013-09-29T22:00:00.996Z</time>
</trkpt>
<trkpt lat="42.6231650" lon="1.3881640">
<ele>1862.998657</ele>
<time>2013-09-29T22:00:00.996Z</time>
</trkpt>
<trkpt lat="42.6232190" lon="1.3882000">
<ele>1864.461548</ele>
<time>2013-09-29T22:00:00.996Z</time>
</trkpt>
<trkpt lat="42.6232900" lon="1.3882300">
<ele>1865.132202</ele>
<time>2013-09-29T22:00:00.996Z</time>
</trkpt>
<trkpt lat="42.6233780" lon="1.3882690">
<ele>1865.193115</ele>
<time>2013-09-29T22:00:00.996Z</time>
</trkpt>
<trkpt lat="42.6234190" lon="1.3883040">
<ele>1866.320923</ele>
<time>2013-09-29T22:00:00.996Z</time>
</trkpt>
<trkpt lat="42.6235050" lon="1.3884380">
<ele>1871.350098</ele>
<time>2013-09-29T22:00:00.996Z</time>
</trkpt>
<trkpt lat="42.6235430" lon="1.3884780">
<ele>1872.904663</ele>
<time>2013-09-29T22:00:00.996Z</time>
</trkpt>
<trkpt lat="42.6235970" lon="1.3884950">
<ele>1873.971436</ele>
<time>2013-09-29T22:00:00.996Z</time>
</trkpt>
<trkpt lat="42.6236990" lon="1.3884880">
<ele>1874.550537</ele>
<time>2013-09-29T22:00:00.996Z</time>
</trkpt>
<trkpt lat="42.6237950" lon="1.3884960">
<ele>1875.556274</ele>
<time>2013-09-29T22:00:00.996Z</time>
</trkpt>
<trkpt lat="42.6238360" lon="1.3885070">
<ele>1876.562256</ele>
<time>2013-09-29T22:00:00.996Z</time>
</trkpt>
<trkpt lat="42.6238710" lon="1.3885440">
<ele>1878.787231</ele>
<time>2013-09-29T22:00:00.996Z</time>
</trkpt>
<trkpt lat="42.6239750" lon="1.3885840">
<ele>1881.256104</ele>
<time>2013-09-29T22:00:00.996Z</time>
</trkpt>
<trkpt lat="42.6240850" lon="1.3886160">
<ele>1883.054443</ele>
<time>2013-09-29T22:00:00.996Z</time>
</trkpt>
<trkpt lat="42.6241390" lon="1.3886510">
<ele>1884.730835</ele>
<time>2013-09-29T22:00:00.996Z</time>
</trkpt>
<trkpt lat="42.6241700" lon="1.3886770">
<ele>1885.949951</ele>
<time>2013-09-29T22:00:00.996Z</time>
</trkpt>
<trkpt lat="42.6241940" lon="1.3886990">
<ele>1886.986328</ele>
<time>2013-09-29T22:00:00.996Z</time>
</trkpt>
<trkpt lat="42.6242920" lon="1.3887160">
<ele>1888.357910</ele>
<time>2013-09-29T22:00:00.996Z</time>
</trkpt>
<trkpt lat="42.6244060" lon="1.3887180">
<ele>1889.881836</ele>
<time>2013-09-29T22:00:00.996Z</time>
</trkpt>
<trkpt lat="42.6244420" lon="1.3887050">
<ele>1890.247681</ele>
<time>2013-09-29T22:00:00.996Z</time>
</trkpt>
<trkpt lat="42.6244730" lon="1.3886730">
<ele>1889.881836</ele>
<time>2013-09-29T22:00:00.996Z</time>
</trkpt>
<trkpt lat="42.6245130" lon="1.3886420">
<ele>1889.729492</ele>
<time>2013-09-29T22:00:00.996Z</time>
</trkpt>
<trkpt lat="42.6245620" lon="1.3886160">
<ele>1889.333252</ele>
<time>2013-09-29T22:00:00.996Z</time>
</trkpt>
<trkpt lat="42.6245850" lon="1.3886150">
<ele>1889.272339</ele>
<time>2013-09-29T22:00:00.996Z</time>
</trkpt>
<trkpt lat="42.6246150" lon="1.3886290">
<ele>1889.516235</ele>
<time>2013-09-29T22:00:00.996Z</time>
</trkpt>
<trkpt lat="42.6246620" lon="1.3886740">
<ele>1891.009766</ele>
<time>2013-09-29T22:00:00.996Z</time>
</trkpt>
<trkpt lat="42.6246940" lon="1.3886920">
<ele>1891.588745</ele>
<time>2013-09-29T22:00:00.996Z</time>
</trkpt>
<trkpt lat="42.6247330" lon="1.3886870">
<ele>1891.832520</ele>
<time>2013-09-29T22:00:00.996Z</time>
</trkpt>
<trkpt lat="42.6247880" lon="1.3886470">
<ele>1892.289795</ele>
<time>2013-09-29T22:00:00.996Z</time>
</trkpt>
<trkpt lat="42.6248550" lon="1.3885900">
<ele>1893.021362</ele>
<time>2013-09-29T22:00:00.996Z</time>
</trkpt>
<trkpt lat="42.6249210" lon="1.3884970">
<ele>1894.819702</ele>
<time>2013-09-29T22:00:00.996Z</time>
</trkpt>
<trkpt lat="42.6249680" lon="1.3884060">
<ele>1896.953369</ele>
<time>2013-09-29T22:00:00.996Z</time>
</trkpt>
<trkpt lat="42.6250080" lon="1.3883120">
<ele>1898.964966</ele>
<time>2013-09-29T22:00:00.996Z</time>
</trkpt>
<trkpt lat="42.6250290" lon="1.3882200">
<ele>1900.153687</ele>
<time>2013-09-29T22:00:00.996Z</time>
</trkpt>
<trkpt lat="42.6250420" lon="1.3881280">
<ele>1901.098633</ele>
<time>2013-09-29T22:00:00.996Z</time>
</trkpt>
<trkpt lat="42.6250620" lon="1.3879510">
<ele>1902.775024</ele>
<time>2013-09-29T22:00:00.996Z</time>
</trkpt>
</trkseg>
</trk>
</gpx>
